[[{"header":{"parameterUnit":"m.s-1","parameterCategory":1,"la1":31.0,"la2":29.5877,"lo1":-88.7671,"lo2":-86.6584,"dy":0.0162,"dx":0.0185,"nx":115,"ny":88,"refTime":"2023-10-06T06:00:00:Z","depth":0,"parameterNumber":2,"parameterNumberName":"U-component_of_WINDS"},"data":[0.0,0.0,0.0,0.0,0.0,0.0,0.0,0.0,0.0,0.0,0.0,0.0,0.0,0.0,0.0,0.0,0.0,0.0,0.0,0.0,0.0,0.0,0.0,0.0,0.0,0.0,0.0,0.0,0.0,0.0,0.0,0.0,0.0,0.0,0.0,0.0,0.0,0.0,0.0,0.0,0.0,0.0,0.0,0.0,0.0,0.0,0.0,0.0,0.0,0.0,0.0,0.0,0.0,0.0,0.0,0.0,0.0,0.0,0.0,0.0,0.0,0.0,0.0,0.0,0.0,0.0,0.0,0.0,0.0,0.0,0.0,0.0,0.0,0.0,0.0,0.0,0.0,0.0,0.0,0.0,0.0,0.0,0.0,0.0,0.0,0.0,0.0,0.0,0.0,0.0,0.0,0.0,0.0,0.0,0.0,0.0,0.0,0.0,0.0,0.0,0.0,0.0,0.0,0.0,0.0,0.0,0.0,0.0,0.0,0.0,0.0,0.0,0.0,0.0,0.0,0.0,0.0,0.0,0.0,0.0,0.0,0.0,0.0,0.0,0.0,0.0,0.0,0.0,0.0,0.0,0.0,0.0,0.0,0.0,0.0,0.0,0.0,0.0,0.0,0.0,0.0,0.0,0.0,0.0,0.0,0.0,0.0,0.0,0.0,0.0,0.0,0.0,0.0,0.0,0.0,0.0,0.0,0.0,0.0,0.0,0.0,0.0,0.0,0.0,0.0,0.0,0.0,0.0,0.0,0.0,0.0,0.0,0.0,0.0,0.0,0.0,0.0,0.0,0.0,0.0,0.0,0.0,0.0,0.0,0.0,0.0,0.0,0.0,0.0,0.0,0.0,0.0,0.0,0.0,0.0,0.0,0.0,0.0,0.0,0.0,0.0,0.0,0.0,0.0,0.0,0.0,0.0,0.0,0.0,0.0,0.0,0.0,0.0,0.0,0.0,0.0,0.0,0.0,0.0,0.0,0.0,0.0,0.0,0.0,0.0,0.0,0.0,0.0,0.0,0.0,0.0,0.0,0.0,0.0,0.0,0.0,0.0,0.0,0.0,0.0,0.0,0.0,0.0,0.0,0.0,0.0,0.0,0.0,0.0,0.0,0.0,0.0,0.0,0.0,0.0,0.0,0.0,0.0,0.0,0.0,0.0,0.0,0.0,0.0,0.0,0.0,0.0,0.0,0.0,0.0,0.0,0.0,0.0,0.0,0.0,0.0,0.0,0.0,0.0,0.0,0.0,0.0,0.0,0.0,0.0,0.0,0.0,0.0,0.0,0.0,0.0,0.0,0.0,0.0,0.0,0.0,0.0,0.0,0.0,0.0,0.0,0.0,0.0,0.0,0.0,0.0,0.0,0.0,0.0,0.0,0.0,0.0,0.0,0.0,0.0,0.0,0.0,0.0,0.0,0.0,0.0,0.0,0.0,0.0,0.0,0.0,0.0,0.0,0.0,0.0,0.0,0.0,0.0,0.0,0.0,0.0,0.0,0.0,0.0,0.0,0.0,0.0,0.0,0.0,0.0,0.0,0.0,0.0,0.0,0.0,0.0,0.0,0.0,0.0,0.0,0.0,0.0,0.0,0.0,0.0,0.0,0.0,0.0,0.0,0.0,0.0,0.0,0.0,0.0,0.0,0.0,0.0,0.0,0.0,0.0,0.0,0.0,0.0,0.0,0.0,0.0,0.0,0.0,0.0,0.0,0.0,0.0,0.0,0.0,0.0,0.0,0.0,0.0,0.0,0.0,0.0,0.0,0.0,0.0,0.0,0.0,0.0,0.0,0.0,0.0,0.0,0.0,0.0,0.0,0.0,0.0,0.0,0.0,0.0,0.0,0.0,0.0,0.0,0.0,0.0,0.0,0.0,0.0,0.0,0.0,0.0,0.0,0.0,0.0,0.0,0.0,0.0,0.0,0.0,0.0,0.0,0.0,0.0,0.0,0.0,0.0,0.0,0.0,0.0,0.0,0.0,0.0,0.0,0.0,0.0,0.0,0.0,0.0,0.0,0.0,0.0,0.0,0.0,0.0,0.0,0.0,0.0,0.0,0.0,0.0,0.0,0.0,0.0,0.0,0.0,0.0,0.0,0.0,0.0,0.0,0.0,0.0,0.0,0.0,0.0,0.0,0.0,0.0,0.0,0.0,0.0,0.0,0.0,0.0,0.0,0.0,0.0,0.0,0.0,0.0,0.0,0.0,0.0,0.0,0.0,0.0,0.0,0.0,0.0,0.0,0.0,0.0,0.0,0.0,0.0,0.0,0.0,0.0,0.0,0.0,0.0,0.0,0.0,0.0,0.0,0.0,0.0,0.0,0.0,0.0,0.0,0.0,0.0,0.0,0.0,0.0,0.0,0.0,0.0,0.0,0.0,0.0,0.0,0.0,0.0,0.0,0.0,0.0,0.0,0.0,0.0,0.0,0.0,0.0,0.0,0.0,0.0,0.0,0.0,0.0,0.0,0.0,0.0,0.0,0.0,0.0,0.0,0.0,0.0,0.0,0.0,0.0,0.0,0.0,0.0,0.0,0.0,0.0,0.0,0.0,0.0,0.0,0.0,0.0,0.0,0.0,0.0,0.0,0.0,0.0,0.0,0.0,0.0,0.0,0.0,0.0,0.0,0.0,0.0,0.0,0.0,0.0,0.0,0.0,0.0,0.0,0.0,0.0,0.0,0.0,0.0,0.0,0.0,0.0,0.0,0.0,0.0,0.0,0.0,0.0,0.0,0.0,0.0,0.0,0.0,0.0,0.0,0.0,0.0,0.0,0.0,0.0,0.0,0.0,0.0,0.0,0.0,0.0,0.0,0.0,0.0,0.0,0.0,0.0,0.0,0.0,0.0,0.0,0.0,0.0,0.0,0.0,0.0,0.0,0.0,0.0,0.0,0.0,0.0,0.0,0.0,0.0,0.0,0.0,0.0,0.0,0.0,0.0,0.0,0.0,0.0,0.0,0.0,0.0,0.0,0.0,0.0,0.0,0.0,0.0,0.0,0.0,0.0,0.0,0.0,0.0,0.0,0.0,0.0,0.0,0.0,0.0,0.0,0.0,0.0,0.0,0.0,0.0,0.0,0.0,0.0,0.0,0.0,0.0,0.0,0.0,0.0,0.0,0.0,0.0,0.0,0.0,0.0,0.0,0.0,0.0,0.0,0.0,0.0,0.0,0.0,0.0,0.0,0.0,0.0,0.0,0.0,0.0,0.0,0.0,0.0,0.0,0.0,0.0,0.0,0.0,0.0,0.0,0.0,0.0,0.0,0.0,0.0,0.0,0.0,0.0,0.0,0.0,0.0,0.0,0.0,0.0,0.0,0.0,0.0,0.0,0.0,0.0,0.0,0.0,0.0,0.0,0.0,0.0,0.0,0.0,0.0,0.0,0.0,0.0,0.0,0.0,0.0,0.0,0.0,0.0,0.0,0.0,0.0,0.0,0.0,0.0,0.0,0.0,0.0,0.0,0.0,0.0,0.0,0.0,0.0,0.0,0.0,0.0,0.0,0.0,0.0,0.0,0.0,0.0,0.0,0.0,0.0,0.0,0.0,0.0,0.0,0.0,0.0,0.0,0.0,0.0,0.0,0.0,0.0,0.0,0.0,0.0,0.0,0.0,0.0,0.0,0.0,0.0,0.0,0.0,0.0,0.0,0.0,0.0,0.0,0.0,0.0,0.0,0.0,0.0,0.0,0.0,0.0,0.0,0.0,0.0,0.0,0.0,0.0,0.0,0.0,0.0,0.0,0.0,0.0,0.0,0.0,0.0,0.0,0.0,0.0,0.0,0.0,0.0,0.0,0.0,0.0,0.0,0.0,0.0,0.0,0.0,0.0,0.0,0.0,0.0,0.0,0.0,0.0,0.0,0.0,0.0,0.0,0.0,0.0,0.0,0.0,0.0,0.0,0.0,0.0,0.0,0.0,0.0,0.0,0.0,0.0,0.0,0.0,0.0,0.0,0.0,0.0,0.0,0.0,0.0,0.0,0.0,0.0,0.0,0.0,0.0,0.0,0.0,0.0,0.0,0.0,0.0,0.0,0.0,0.0,0.0,0.0,0.0,0.0,0.0,0.0,0.0,0.0,0.0,0.0,0.0,0.0,0.0,0.0,0.0,0.0,0.0,0.0,0.0,0.0,0.0,0.0,0.0,0.0,0.0,0.0,0.0,0.0,0.0,0.0,0.0,0.0,0.0,0.0,0.0,0.0,0.0,0.0,0.0,0.0,0.0,0.0,0.0,0.0,0.0,0.0,0.0,0.0,0.0,0.0,0.0,0.0,0.0,0.0,-2.5631,0.0,0.0,0.0,0.0,0.0,0.0,0.0,0.0,0.0,0.0,0.0,0.0,0.0,0.0,0.0,0.0,0.0,0.0,0.0,0.0,0.0,0.0,0.0,0.0,0.0,0.0,0.0,0.0,0.0,0.0,0.0,0.0,0.0,0.0,0.0,0.0,0.0,0.0,0.0,0.0,0.0,0.0,0.0,0.0,0.0,0.0,0.0,0.0,0.0,0.0,0.0,0.0,0.0,0.0,0.0,0.0,0.0,0.0,0.0,0.0,0.0,0.0,0.0,0.0,0.0,0.0,0.0,0.0,0.0,0.0,0.0,0.0,0.0,0.0,0.0,0.0,0.0,0.0,0.0,0.0,0.0,0.0,0.0,0.0,0.0,0.0,0.0,0.0,0.0,0.0,0.0,0.0,0.0,0.0,0.0,0.0,0.0,0.0,0.0,0.0,0.0,0.0,0.0,0.0,0.0,0.0,0.0,0.0,0.0,0.0,-2.6573,-2.6297,-2.6505,-2.6332,-2.5705,0.0,0.0,0.0,0.0,0.0,0.0,0.0,0.0,0.0,0.0,0.0,0.0,0.0,0.0,0.0,0.0,0.0,0.0,0.0,0.0,0.0,0.0,0.0,0.0,0.0,0.0,0.0,0.0,0.0,0.0,0.0,0.0,0.0,0.0,0.0,0.0,0.0,0.0,0.0,0.0,0.0,0.0,0.0,0.0,0.0,0.0,0.0,0.0,0.0,0.0,0.0,0.0,0.0,0.0,0.0,0.0,0.0,0.0,0.0,0.0,0.0,0.0,0.0,0.0,0.0,0.0,0.0,0.0,0.0,0.0,0.0,0.0,0.0,0.0,0.0,0.0,0.0,0.0,0.0,0.0,0.0,0.0,0.0,0.0,0.0,0.0,0.0,0.0,0.0,0.0,0.0,0.0,0.0,0.0,0.0,0.0,0.0,0.0,0.0,0.0,0.0,0.0,0.0,0.0,0.0,0.0,0.0,0.0,0.0,0.0,0.0,0.0,-2.6841,-2.6438,-2.534,0.0,0.0,0.0,0.0,0.0,0.0,0.0,0.0,0.0,0.0,0.0,0.0,0.0,0.0,0.0,0.0,0.0,0.0,0.0,0.0,0.0,0.0,0.0,0.0,0.0,0.0,0.0,0.0,0.0,0.0,0.0,0.0,0.0,0.0,0.0,0.0,0.0,0.0,0.0,0.0,0.0,0.0,0.0,0.0,0.0,0.0,0.0,0.0,0.0,0.0,0.0,0.0,0.0,0.0,0.0,0.0,0.0,0.0,0.0,0.0,0.0,0.0,0.0,0.0,0.0,0.0,0.0,0.0,0.0,0.0,0.0,0.0,0.0,0.0,0.0,0.0,0.0,0.0,0.0,0.0,0.0,0.0,0.0,0.0,0.0,0.0,0.0,0.0,0.0,0.0,0.0,0.0,0.0,0.0,0.0,0.0,0.0,0.0,0.0,0.0,0.0,0.0,0.0,0.0,0.0,0.0,0.0,0.0,0.0,0.0,-2.731,-2.6956,-2.7261,0.0,-2.4364,0.0,0.0,0.0,0.0,0.0,0.0,0.0,0.0,0.0,0.0,0.0,0.0,0.0,0.0,0.0,0.0,0.0,0.0,0.0,0.0,0.0,0.0,0.0,0.0,0.0,0.0,0.0,0.0,0.0,0.0,0.0,0.0,0.0,0.0,0.0,0.0,0.0,0.0,0.0,0.0,0.0,0.0,0.0,0.0,0.0,0.0,0.0,0.0,0.0,0.0,0.0,0.0,0.0,0.0,0.0,0.0,0.0,0.0,0.0,0.0,0.0,0.0,0.0,0.0,0.0,0.0,0.0,0.0,0.0,0.0,0.0,0.0,0.0,0.0,0.0,0.0,0.0,0.0,0.0,0.0,0.0,0.0,0.0,0.0,0.0,0.0,0.0,0.0,0.0,0.0,0.0,0.0,0.0,0.0,0.0,0.0,0.0,0.0,0.0,0.0,0.0,0.0,0.0,0.0,0.0,0.0,0.0,0.0,0.0,0.0,-2.7617,-2.743,-2.7213,-2.6315,0.0,0.0,0.0,0.0,0.0,0.0,0.0,0.0,0.0,0.0,0.0,0.0,0.0,0.0,0.0,0.0,0.0,0.0,0.0,0.0,0.0,0.0,0.0,0.0,0.0,0.0,0.0,0.0,0.0,0.0,0.0,0.0,0.0,0.0,0.0,0.0,0.0,0.0,0.0,0.0,0.0,0.0,0.0,0.0,0.0,0.0,0.0,0.0,0.0,0.0,0.0,0.0,0.0,0.0,0.0,0.0,0.0,0.0,0.0,0.0,0.0,0.0,0.0,0.0,0.0,0.0,0.0,0.0,0.0,0.0,0.0,0.0,0.0,0.0,0.0,0.0,0.0,0.0,0.0,0.0,0.0,0.0,0.0,0.0,0.0,0.0,0.0,0.0,0.0,0.0,0.0,0.0,0.0,0.0,0.0,0.0,0.0,0.0,0.0,0.0,0.0,0.0,0.0,0.0,0.0,0.0,0.0,0.0,0.0,0.0,-2.7824,-2.7871,-2.7672,-2.7213,-2.6386,-2.5179,0.0,0.0,0.0,0.0,0.0,0.0,0.0,0.0,0.0,0.0,0.0,0.0,0.0,0.0,0.0,0.0,0.0,0.0,0.0,0.0,0.0,0.0,0.0,0.0,0.0,0.0,0.0,0.0,0.0,0.0,0.0,0.0,0.0,0.0,0.0,0.0,0.0,0.0,0.0,0.0,0.0,0.0,0.0,0.0,0.0,0.0,0.0,0.0,0.0,0.0,0.0,0.0,0.0,0.0,0.0,0.0,0.0,0.0,0.0,0.0,0.0,0.0,0.0,0.0,0.0,0.0,0.0,0.0,0.0,0.0,0.0,0.0,0.0,0.0,0.0,0.0,0.0,0.0,0.0,0.0,0.0,0.0,0.0,0.0,0.0,0.0,0.0,0.0,0.0,0.0,0.0,0.0,0.0,0.0,0.0,0.0,0.0,0.0,0.0,0.0,0.0,0.0,0.0,0.0,0.0,0.0,0.0,0.0,-2.7933,-2.8071,-2.7968,-2.7683,-2.7483,-2.6696,0.0,0.0,0.0,0.0,0.0,0.0,0.0,0.0,0.0,0.0,0.0,0.0,0.0,0.0,0.0,0.0,0.0,0.0,0.0,0.0,0.0,0.0,0.0,0.0,0.0,0.0,0.0,0.0,0.0,0.0,0.0,0.0,0.0,0.0,0.0,0.0,0.0,0.0,0.0,0.0,0.0,0.0,0.0,0.0,0.0,0.0,0.0,0.0,0.0,0.0,0.0,0.0,0.0,0.0,0.0,0.0,0.0,0.0,0.0,0.0,0.0,0.0,0.0,0.0,0.0,0.0,0.0,0.0,0.0,0.0,0.0,0.0,0.0,0.0,0.0,0.0,0.0,0.0,0.0,0.0,0.0,0.0,0.0,0.0,0.0,0.0,0.0,0.0,0.0,0.0,0.0,0.0,0.0,0.0,0.0,0.0,0.0,0.0,0.0,0.0,0.0,0.0,0.0,0.0,0.0,0.0,0.0,0.0,0.0,-2.8109,-2.8246,-2.8156,-2.7897,-2.7771,-2.7134,0.0,0.0,0.0,0.0,0.0,0.0,0.0,0.0,0.0,0.0,0.0,0.0,0.0,0.0,0.0,0.0,0.0,0.0,0.0,0.0,0.0,0.0,0.0,0.0,0.0,0.0,0.0,0.0,0.0,0.0,0.0,0.0,0.0,0.0,0.0,0.0,0.0,0.0,0.0,0.0,0.0,0.0,0.0,0.0,0.0,0.0,0.0,0.0,0.0,0.0,0.0,0.0,0.0,0.0,0.0,0.0,0.0,0.0,0.0,0.0,0.0,0.0,0.0,0.0,0.0,0.0,0.0,0.0,0.0,0.0,0.0,0.0,0.0,0.0,0.0,0.0,0.0,0.0,0.0,0.0,0.0,0.0,0.0,0.0,0.0,0.0,0.0,0.0,0.0,0.0,0.0,0.0,0.0,0.0,0.0,0.0,0.0,0.0,0.0,0.0,0.0,0.0,0.0,0.0,0.0,0.0,0.0,0.0,0.0,-2.8291,0.0,-2.836,-2.811,-2.7971,-2.7452,0.0,0.0,0.0,0.0,0.0,0.0,0.0,0.0,0.0,0.0,0.0,0.0,0.0,0.0,0.0,0.0,0.0,0.0,0.0,0.0,0.0,0.0,0.0,0.0,0.0,0.0,0.0,0.0,0.0,0.0,0.0,0.0,0.0,0.0,0.0,0.0,0.0,0.0,0.0,0.0,0.0,0.0,0.0,0.0,0.0,0.0,0.0,0.0,0.0,0.0,0.0,0.0,0.0,0.0,0.0,0.0,0.0,0.0,0.0,0.0,0.0,0.0,0.0,0.0,0.0,0.0,0.0,0.0,0.0,0.0,0.0,0.0,0.0,0.0,0.0,0.0,0.0,0.0,0.0,0.0,0.0,0.0,0.0,0.0,0.0,0.0,0.0,0.0,0.0,0.0,0.0,0.0,0.0,0.0,0.0,0.0,0.0,0.0,0.0,0.0,0.0,0.0,0.0,0.0,0.0,0.0,0.0,0.0,-2.8246,-2.8492,-2.8639,-2.8572,-2.8327,-2.8055,-2.7589,0.0,0.0,0.0,0.0,0.0,0.0,0.0,0.0,0.0,0.0,0.0,0.0,0.0,0.0,0.0,0.0,0.0,0.0,0.0,0.0,0.0,0.0,0.0,0.0,0.0,0.0,0.0,0.0,0.0,0.0,0.0,0.0,0.0,0.0,0.0,0.0,0.0,0.0,0.0,0.0,0.0,0.0,0.0,0.0,0.0,0.0,0.0,0.0,0.0,0.0,0.0,0.0,0.0,0.0,0.0,0.0,0.0,0.0,0.0,0.0,0.0,0.0,0.0,0.0,0.0,0.0,0.0,0.0,0.0,0.0,0.0,0.0,0.0,0.0,0.0,0.0,0.0,0.0,0.0,0.0,0.0,0.0,0.0,0.0,0.0,0.0,0.0,0.0,0.0,0.0,0.0,0.0,0.0,0.0,0.0,0.0,0.0,0.0,0.0,0.0,0.0,0.0,0.0,0.0,0.0,0.0,0.0,0.0,0.0,-2.8989,-2.8993,-2.8837,-2.8496,-2.829,-2.7787,0.0,0.0,0.0,0.0,0.0,0.0,0.0,0.0,0.0,0.0,0.0,0.0,0.0,0.0,0.0,0.0,0.0,0.0,0.0,0.0,0.0,0.0,0.0,0.0,0.0,0.0,0.0,0.0,0.0,0.0,0.0,0.0,0.0,0.0,0.0,0.0,0.0,0.0,0.0,0.0,0.0,0.0,0.0,0.0,0.0,0.0,0.0,0.0,0.0,0.0,0.0,0.0,0.0,0.0,0.0,0.0,0.0,0.0,0.0,0.0,0.0,0.0,0.0,0.0,0.0,0.0,0.0,0.0,0.0,0.0,0.0,0.0,0.0,0.0,0.0,0.0,0.0,0.0,0.0,0.0,0.0,0.0,0.0,0.0,0.0,0.0,0.0,0.0,0.0,0.0,0.0,0.0,0.0,0.0,0.0,0.0,0.0,0.0,0.0,0.0,0.0,0.0,0.0,0.0,0.0,0.0,0.0,0.0,0.0,-2.8866,-2.9103,-2.8997,-2.8615,-2.8402,-2.7929,-2.7178,0.0,0.0,0.0,0.0,0.0,0.0,0.0,0.0,0.0,0.0,0.0,0.0,0.0,0.0,0.0,0.0,0.0,0.0,0.0,0.0,0.0,0.0,0.0,0.0,0.0,0.0,0.0,0.0,0.0,0.0,0.0,0.0,0.0,0.0,0.0,0.0,0.0,0.0,0.0,0.0,0.0,0.0,0.0,0.0,0.0,0.0,0.0,0.0,0.0,0.0,0.0,0.0,0.0,0.0,0.0,0.0,0.0,0.0,0.0,0.0,0.0,0.0,0.0,0.0,0.0,0.0,0.0,0.0,0.0,0.0,0.0,0.0,0.0,0.0,0.0,0.0,0.0,0.0,0.0,0.0,0.0,0.0,0.0,0.0,0.0,0.0,0.0,0.0,0.0,0.0,0.0,0.0,0.0,0.0,0.0,0.0,0.0,0.0,0.0,0.0,0.0,0.0,0.0,0.0,0.0,0.0,0.0,0.0,-2.8278,-2.9003,-2.9141,-2.8626,-2.8358,-2.8004,0.0,0.0,0.0,0.0,0.0,0.0,0.0,0.0,0.0,0.0,0.0,0.0,0.0,0.0,0.0,0.0,0.0,0.0,0.0,0.0,0.0,0.0,0.0,0.0,0.0,0.0,0.0,0.0,0.0,0.0,0.0,0.0,0.0,0.0,0.0,0.0,0.0,0.0,0.0,0.0,0.0,0.0,0.0,0.0,0.0,0.0,0.0,0.0,0.0,0.0,0.0,0.0,0.0,0.0,0.0,0.0,0.0,0.0,0.0,0.0,0.0,0.0,0.0,0.0,0.0,0.0,0.0,0.0,0.0,0.0,0.0,0.0,0.0,0.0,0.0,0.0,0.0,0.0,0.0,0.0,0.0,0.0,0.0,0.0,0.0,0.0,0.0,0.0,0.0,0.0,0.0,0.0,0.0,0.0,0.0,0.0,0.0,0.0,0.0,0.0,0.0,0.0,0.0,0.0,0.0,0.0,0.0,0.0,0.0,-2.8161,-2.886,-2.9134,-2.8797,-2.7972,-2.729,0.0,0.0,0.0,0.0,0.0,0.0,0.0,0.0,0.0,0.0,0.0,0.0,0.0,0.0,0.0,0.0,0.0,0.0,0.0,0.0,0.0,0.0,0.0,0.0,0.0,0.0,0.0,0.0,0.0,0.0,0.0,0.0,0.0,0.0,0.0,0.0,0.0,0.0,0.0,0.0,0.0,0.0,0.0,0.0,0.0,0.0,0.0,0.0,0.0,0.0,0.0,0.0,0.0,0.0,0.0,0.0,0.0,0.0,0.0,0.0,0.0,0.0,0.0,0.0,0.0,0.0,0.0,0.0,0.0,0.0,0.0,0.0,0.0,0.0,0.0,0.0,0.0,0.0,0.0,0.0,0.0,0.0,0.0,0.0,0.0,0.0,0.0,0.0,0.0,0.0,0.0,0.0,0.0,0.0,0.0,0.0,0.0,0.0,0.0,0.0,0.0,0.0,0.0,0.0,0.0,0.0,0.0,0.0,-2.768,-2.7603,-2.8609,-2.9044,-2.8952,-2.7815,-2.7056,0.0,0.0,0.0,0.0,0.0,0.0,0.0,0.0,0.0,0.0,0.0,0.0,0.0,0.0,0.0,0.0,0.0,0.0,0.0,0.0,0.0,0.0,0.0,0.0,0.0,0.0,0.0,0.0,0.0,0.0,0.0,0.0,0.0,0.0,0.0,0.0,0.0,0.0,0.0,0.0,0.0,0.0,0.0,0.0,0.0,0.0,0.0,0.0,0.0,0.0,0.0,0.0,0.0,0.0,0.0,0.0,0.0,0.0,0.0,0.0,0.0,0.0,0.0,0.0,0.0,0.0,0.0,0.0,0.0,0.0,0.0,0.0,0.0,0.0,0.0,0.0,0.0,0.0,0.0,0.0,0.0,0.0,0.0,0.0,0.0,0.0,0.0,0.0,0.0,0.0,0.0,0.0,0.0,0.0,0.0,0.0,0.0,0.0,0.0,0.0,0.0,0.0,0.0,0.0,0.0,0.0,0.0,0.0,-2.6953,-2.7028,-2.8301,-2.8975,-2.8957,-2.7749,-2.6956,0.0,0.0,0.0,0.0,0.0,0.0,0.0,0.0,0.0,0.0,0.0,0.0,0.0,0.0,0.0,0.0,0.0,0.0,0.0,0.0,0.0,0.0,0.0,0.0,0.0,0.0,0.0,0.0,0.0,0.0,0.0,0.0,0.0,0.0,0.0,0.0,0.0,0.0,0.0,0.0,0.0,0.0,0.0,0.0,0.0,0.0,0.0,0.0,0.0,0.0,0.0,0.0,0.0,0.0,0.0,0.0,0.0,0.0,0.0,0.0,0.0,0.0,0.0,0.0,0.0,0.0,0.0,0.0,0.0,0.0,0.0,0.0,0.0,0.0,0.0,0.0,0.0,0.0,0.0,0.0,0.0,0.0,0.0,0.0,0.0,0.0,0.0,0.0,0.0,0.0,0.0,0.0,0.0,0.0,0.0,0.0,0.0,0.0,0.0,0.0,0.0,0.0,0.0,0.0,0.0,0.0,0.0,0.0,-2.7154,-2.7684,-2.8529,-2.8975,-2.8975,-2.7266,-2.6242,0.0,0.0,0.0,0.0,0.0,0.0,0.0,0.0,0.0,0.0,0.0,0.0,0.0,0.0,0.0,0.0,0.0,0.0,0.0,0.0,0.0,0.0,0.0,0.0,0.0,0.0,0.0,0.0,0.0,0.0,0.0,0.0,0.0,0.0,0.0,0.0,0.0,0.0,0.0,0.0,0.0,0.0,0.0,0.0,0.0,0.0,0.0,0.0,-2.843,0.0,0.0,0.0,0.0,0.0,0.0,0.0,0.0,0.0,0.0,0.0,0.0,0.0,0.0,0.0,0.0,0.0,0.0,0.0,0.0,0.0,0.0,0.0,0.0,0.0,0.0,0.0,0.0,0.0,0.0,0.0,0.0,0.0,0.0,0.0,0.0,0.0,0.0,0.0,0.0,0.0,0.0,0.0,0.0,0.0,0.0,0.0,0.0,0.0,0.0,0.0,0.0,0.0,0.0,0.0,0.0,0.0,0.0,0.0,-2.7638,-2.7959,-2.8621,-2.8975,-2.8938,-2.7375,-2.6516,0.0,0.0,0.0,0.0,0.0,0.0,0.0,0.0,0.0,0.0,0.0,0.0,0.0,0.0,0.0,0.0,0.0,0.0,0.0,0.0,0.0,0.0,0.0,0.0,0.0,0.0,0.0,0.0,0.0,0.0,0.0,0.0,0.0,0.0,0.0,0.0,0.0,0.0,0.0,0.0,0.0,0.0,0.0,0.0,0.0,0.0,0.0,0.0,0.0,0.0,0.0,0.0,0.0,0.0,0.0,0.0,0.0,0.0,0.0,0.0,0.0,0.0,0.0,0.0,0.0,0.0,0.0,0.0,0.0,0.0,0.0,0.0,0.0,0.0,0.0,0.0,0.0,0.0,0.0,0.0,0.0,0.0,0.0,0.0,0.0,0.0,0.0,0.0,0.0,0.0,0.0,0.0,0.0,0.0,0.0,0.0,0.0,0.0,0.0,0.0,0.0,0.0,0.0,0.0,0.0,0.0,0.0,-2.7923,-2.8199,-2.8162,-2.8695,-2.8952,-2.8905,-2.7774,-2.7174,-2.7094,0.0,0.0,0.0,0.0,0.0,0.0,0.0,0.0,0.0,0.0,0.0,0.0,0.0,0.0,0.0,0.0,0.0,0.0,0.0,0.0,0.0,0.0,0.0,0.0,0.0,0.0,0.0,0.0,0.0,0.0,0.0,0.0,0.0,0.0,0.0,0.0,0.0,0.0,-2.8619,-2.9178,0.0,0.0,0.0,0.0,0.0,0.0,0.0,0.0,-2.861,0.0,0.0,0.0,0.0,0.0,0.0,0.0,0.0,0.0,0.0,0.0,0.0,0.0,0.0,0.0,0.0,0.0,0.0,0.0,0.0,0.0,0.0,0.0,0.0,0.0,0.0,0.0,0.0,0.0,0.0,0.0,0.0,0.0,0.0,0.0,0.0,0.0,0.0,0.0,0.0,0.0,0.0,0.0,0.0,0.0,0.0,0.0,0.0,0.0,0.0,0.0,0.0,0.0,0.0,0.0,0.0,-2.8017,-2.8147,-2.84,-2.8819,-2.8962,-2.8839,-2.8496,-2.8111,-2.7814,-2.7542,0.0,0.0,0.0,0.0,0.0,0.0,0.0,0.0,0.0,0.0,0.0,0.0,0.0,0.0,0.0,0.0,0.0,0.0,0.0,0.0,0.0,0.0,0.0,0.0,0.0,0.0,0.0,0.0,0.0,0.0,0.0,0.0,0.0,0.0,0.0,0.0,0.0,0.0,0.0,-2.844,-2.8574,0.0,0.0,0.0,0.0,0.0,0.0,0.0,0.0,-2.8216,0.0,0.0,0.0,0.0,0.0,0.0,0.0,0.0,0.0,0.0,0.0,0.0,0.0,0.0,0.0,0.0,0.0,0.0,0.0,0.0,0.0,0.0,0.0,0.0,0.0,0.0,0.0,0.0,0.0,0.0,0.0,0.0,0.0,0.0,0.0,0.0,0.0,0.0,0.0,0.0,0.0,0.0,0.0,0.0,0.0,0.0,0.0,0.0,0.0,0.0,0.0,0.0,0.0,0.0,0.0,-2.8839,-2.8779,-2.8799,-2.898,-2.8975,-2.8797,-2.8402,-2.8237,-2.8037,0.0,0.0,0.0,0.0,0.0,0.0,0.0,0.0,0.0,0.0,0.0,0.0,0.0,0.0,0.0,0.0,0.0,0.0,0.0,0.0,0.0,0.0,0.0,0.0,0.0,0.0,0.0,0.0,0.0,0.0,0.0,0.0,0.0,0.0,0.0,0.0,0.0,0.0,0.0,0.0,-2.8422,-2.8739,-2.9563,0.0,0.0,0.0,0.0,0.0,0.0,-2.8342,-2.7903,0.0,0.0,0.0,0.0,0.0,0.0,0.0,0.0,0.0,0.0,0.0,0.0,0.0,0.0,0.0,0.0,0.0,0.0,0.0,0.0,0.0,0.0,0.0,0.0,0.0,0.0,0.0,0.0,0.0,0.0,0.0,0.0,0.0,0.0,0.0,0.0,0.0,0.0,0.0,0.0,0.0,0.0,0.0,0.0,0.0,0.0,0.0,0.0,0.0,0.0,0.0,0.0,0.0,0.0,0.0,-2.9476,-2.9316,-2.9141,-2.9017,-2.8975,-2.8773,-2.8316,-2.8264,-2.7994,0.0,0.0,0.0,0.0,0.0,0.0,0.0,0.0,0.0,0.0,0.0,0.0,0.0,0.0,0.0,0.0,0.0,0.0,0.0,0.0,0.0,0.0,0.0,0.0,0.0,0.0,0.0,0.0,0.0,0.0,0.0,0.0,0.0,0.0,0.0,0.0,0.0,0.0,0.0,0.0,0.0,-2.881,-2.9226,-2.894,0.0,0.0,0.0,0.0,-2.8259,-2.7985,0.0,0.0,0.0,0.0,0.0,0.0,0.0,0.0,0.0,0.0,0.0,0.0,0.0,0.0,0.0,0.0,0.0,0.0,0.0,0.0,0.0,0.0,0.0,0.0,0.0,0.0,0.0,0.0,0.0,0.0,0.0,0.0,0.0,0.0,0.0,0.0,0.0,0.0,0.0,0.0,0.0,0.0,0.0,0.0,0.0,0.0,0.0,0.0,0.0,0.0,0.0,0.0,0.0,0.0,0.0,0.0,-2.9495,-2.9357,-2.9225,-2.8998,-2.8975,-2.8694,-2.7992,-2.8291,-2.7735,0.0,0.0,0.0,0.0,0.0,0.0,0.0,0.0,0.0,0.0,0.0,0.0,0.0,0.0,0.0,0.0,0.0,0.0,0.0,0.0,0.0,0.0,0.0,0.0,0.0,0.0,0.0,0.0,0.0,0.0,0.0,0.0,0.0,0.0,0.0,0.0,0.0,0.0,0.0,0.0,0.0,-2.762,-2.9089,-2.856,-2.827,0.0,0.0,-2.8382,-2.8383,-2.8476,0.0,0.0,0.0,0.0,0.0,0.0,0.0,0.0,0.0,0.0,0.0,0.0,0.0,0.0,0.0,0.0,0.0,0.0,0.0,0.0,0.0,0.0,0.0,0.0,0.0,0.0,0.0,0.0,0.0,0.0,0.0,0.0,0.0,0.0,0.0,0.0,0.0,0.0,0.0,0.0,0.0,0.0,0.0,0.0,0.0,0.0,0.0,0.0,0.0,0.0,0.0,0.0,0.0,0.0,0.0,-2.9607,-2.9551,-2.9291,-2.9071,-2.8998,-2.8975,-2.8651,-2.7926,-2.8317,-2.7754,0.0,0.0,0.0,0.0,0.0,0.0,0.0,0.0,0.0,0.0,0.0,0.0,0.0,0.0,0.0,0.0,0.0,0.0,0.0,0.0,0.0,0.0,0.0,0.0,0.0,0.0,0.0,0.0,0.0,0.0,0.0,0.0,0.0,0.0,0.0,0.0,0.0,0.0,0.0,0.0,0.0,0.0,-2.8476,-2.821,0.0,0.0,0.0,-2.7742,-2.7126,0.0,0.0,0.0,0.0,0.0,0.0,0.0,0.0,0.0,0.0,0.0,0.0,0.0,0.0,0.0,0.0,0.0,0.0,0.0,0.0,0.0,0.0,0.0,0.0,0.0,0.0,0.0,0.0,0.0,0.0,0.0,0.0,0.0,0.0,0.0,0.0,0.0,0.0,0.0,0.0,0.0,0.0,0.0,0.0,0.0,0.0,0.0,0.0,0.0,0.0,0.0,0.0,0.0,0.0,0.0,0.0,0.0,-2.927,-2.9092,-2.8975,-2.8994,-2.8905,-2.8576,-2.7926,-2.8192,0.0,0.0,0.0,0.0,0.0,0.0,0.0,0.0,0.0,0.0,0.0,0.0,0.0,0.0,0.0,0.0,0.0,0.0,0.0,0.0,0.0,0.0,0.0,0.0,0.0,0.0,0.0,-2.4794,0.0,0.0,0.0,0.0,0.0,0.0,0.0,0.0,0.0,0.0,0.0,0.0,0.0,0.0,-2.7988,-2.7988,-2.7981,-2.8048,0.0,0.0,-2.7383,-2.673,-2.7675,-2.7885,0.0,0.0,0.0,0.0,0.0,0.0,0.0,0.0,0.0,0.0,0.0,0.0,0.0,0.0,0.0,0.0,0.0,0.0,0.0,0.0,0.0,0.0,0.0,0.0,0.0,0.0,0.0,0.0,0.0,0.0,0.0,0.0,0.0,0.0,0.0,0.0,0.0,0.0,0.0,0.0,0.0,0.0,0.0,0.0,0.0,0.0,0.0,0.0,0.0,0.0,0.0,0.0,0.0,0.0,0.0,-2.839,-2.8793,-2.8975,-2.8994,-2.8633,-2.8246,-2.7926,-2.78,-2.6854,0.0,0.0,0.0,0.0,0.0,0.0,0.0,0.0,0.0,0.0,0.0,0.0,0.0,0.0,0.0,0.0,0.0,0.0,0.0,0.0,0.0,0.0,0.0,0.0,0.0,0.0,0.0,0.0,0.0,0.0,0.0,0.0,0.0,0.0,0.0,0.0,0.0,0.0,0.0,0.0,0.0,-2.7987,-2.7987,-2.7988,-2.8268,0.0,0.0,-2.7841,-2.8256,-2.8876,-2.8741,-2.7063,0.0,0.0,0.0,0.0,0.0,0.0,0.0,0.0,0.0,0.0,0.0,0.0,0.0,0.0,0.0,0.0,0.0,0.0,0.0,0.0,0.0,0.0,0.0,0.0,0.0,0.0,0.0,0.0,0.0,0.0,0.0,0.0,0.0,0.0,0.0,0.0,0.0,0.0,0.0,0.0,0.0,0.0,0.0,0.0,0.0,0.0,0.0,0.0,0.0,0.0,0.0,0.0,0.0,-2.8276,-2.8296,-2.8756,-2.8975,-2.8994,-2.859,-2.8219,-2.788,-2.7771,-2.6807,0.0,0.0,0.0,0.0,0.0,0.0,0.0,0.0,0.0,0.0,0.0,0.0,0.0,0.0,0.0,0.0,0.0,0.0,0.0,0.0,0.0,0.0,0.0,0.0,0.0,0.0,0.0,0.0,-2.6809,-2.6883,-2.6534,0.0,0.0,0.0,0.0,0.0,0.0,0.0,0.0,0.0,0.0,-2.8248,-2.8777,-2.8838,0.0,0.0,-2.8898,-2.8441,-2.7946,-2.8506,-2.8376,-2.6679,-2.6364,0.0,0.0,0.0,0.0,0.0,0.0,0.0,0.0,0.0,0.0,0.0,0.0,0.0,0.0,0.0,0.0,0.0,0.0,0.0,0.0,0.0,0.0,0.0,0.0,0.0,0.0,0.0,0.0,0.0,0.0,0.0,0.0,0.0,0.0,0.0,0.0,0.0,0.0,0.0,0.0,0.0,0.0,0.0,0.0,0.0,0.0,0.0,0.0,0.0,0.0,0.0,0.0,-2.7939,-2.7921,-2.8627,-2.8975,-2.8975,-2.8515,-2.8129,-2.7897,-2.7577,-2.6653,0.0,0.0,0.0,0.0,0.0,0.0,0.0,0.0,0.0,0.0,0.0,0.0,0.0,0.0,0.0,0.0,0.0,0.0,0.0,0.0,0.0,0.0,0.0,0.0,0.0,0.0,0.0,0.0,-2.7132,-2.7123,-2.6551,0.0,0.0,0.0,0.0,0.0,0.0,0.0,0.0,0.0,0.0,-2.8613,-2.8979,-2.8973,-2.8935,-2.8916,-2.8675,-2.8261,-2.7661,-2.8045,-2.7984,-2.6716,0.0,0.0,0.0,0.0,0.0,0.0,0.0,0.0,0.0,0.0,0.0,0.0,0.0,0.0,0.0,0.0,0.0,0.0,0.0,0.0,0.0,0.0,0.0,0.0,0.0,0.0,0.0,0.0,0.0,0.0,-2.6657,0.0,0.0,0.0,0.0,0.0,0.0,0.0,0.0,0.0,0.0,0.0,0.0,0.0,0.0,0.0,0.0,0.0,0.0,0.0,0.0,0.0,0.0,-2.7117,-2.7063,-2.8326,-2.8994,-2.897,-2.8299,-2.7897,-2.7851,-2.7147,-2.6435,-2.5749,0.0,0.0,0.0,0.0,0.0,0.0,0.0,0.0,0.0,0.0,0.0,0.0,0.0,0.0,0.0,0.0,0.0,0.0,0.0,0.0,0.0,0.0,0.0,0.0,0.0,0.0,-2.5597,-2.6268,-2.676,0.0,0.0,0.0,0.0,0.0,0.0,0.0,0.0,0.0,0.0,-2.8336,-2.9058,-2.8261,-2.8134,-2.815,-2.809,-2.7412,-2.707,-2.7603,-2.7715,-2.7677,0.0,0.0,0.0,0.0,0.0,0.0,0.0,0.0,0.0,0.0,0.0,0.0,0.0,0.0,0.0,0.0,0.0,0.0,0.0,0.0,0.0,0.0,0.0,0.0,0.0,0.0,0.0,-2.6493,-2.6379,0.0,0.0,0.0,0.0,0.0,0.0,0.0,0.0,0.0,0.0,0.0,-2.7573,-2.7573,0.0,0.0,0.0,0.0,0.0,0.0,0.0,0.0,0.0,0.0,0.0,0.0,-2.7093,-2.7115,-2.8062,-2.859,-2.859,-2.789,-2.7517,-2.75,-2.6987,-2.6386,-2.5737,0.0,0.0,0.0,0.0,0.0,0.0,0.0,0.0,0.0,0.0,0.0,0.0,0.0,0.0,0.0,0.0,0.0,0.0,0.0,0.0,0.0,0.0,0.0,0.0,0.0,-2.6566,0.0,0.0,0.0,0.0,0.0,0.0,0.0,0.0,0.0,0.0,0.0,-2.7114,-2.769,-2.7741,-2.7828,-2.811,-2.8144,-2.8262,0.0,0.0,0.0,0.0,0.0,0.0,0.0,0.0,0.0,0.0,0.0,0.0,0.0,0.0,-3.0288,-2.8868,-2.9039,-2.9346,-2.9113,0.0,0.0,0.0,0.0,0.0,0.0,0.0,0.0,0.0,0.0,0.0,0.0,0.0,0.0,0.0,0.0,-2.6037,0.0,0.0,0.0,0.0,0.0,0.0,0.0,0.0,-2.7526,-2.7461,-2.7204,-2.7233,-2.7058,0.0,-2.7086,-2.7271,0.0,0.0,0.0,0.0,0.0,0.0,0.0,0.0,-2.7058,-2.7131,-2.7958,-2.8394,-2.8368,-2.7689,-2.7303,-2.7303,-2.6906,-2.6438,-2.5849,-2.4929,-2.4165,0.0,0.0,0.0,0.0,0.0,0.0,0.0,0.0,0.0,0.0,0.0,0.0,0.0,0.0,0.0,0.0,0.0,0.0,0.0,0.0,0.0,0.0,0.0,-2.6803,0.0,0.0,0.0,0.0,0.0,0.0,0.0,0.0,0.0,-2.689,-2.7149,-2.7554,-2.8125,-2.7963,-2.7776,-2.7722,0.0,0.0,0.0,0.0,0.0,0.0,0.0,-2.6633,-2.6302,-2.6477,-2.7135,-2.855,-3.0196,-3.1544,-3.2238,0.0,0.0,-3.0598,-3.081,-3.1155,-3.0871,-3.1314,-3.1474,-3.0606,-3.0773,-3.0761,0.0,0.0,0.0,0.0,0.0,0.0,0.0,0.0,-2.6162,-2.5823,0.0,-2.5178,0.0,0.0,0.0,0.0,0.0,-2.5929,0.0,0.0,-2.671,-2.6499,-2.6161,-2.6234,-2.638,-2.6643,-2.601,-2.59,-2.6267,-2.6886,0.0,0.0,0.0,0.0,0.0,0.0,-2.6971,-2.7169,-2.7972,-2.8394,-2.8368,-2.766,-2.7303,-2.7255,-2.6906,-2.6505,-2.6016,-2.5198,-2.4538,-2.4047,-2.3068,0.0,0.0,0.0,0.0,0.0,0.0,0.0,0.0,0.0,0.0,0.0,0.0,0.0,0.0,0.0,0.0,0.0,0.0,0.0,0.0,-2.6387,0.0,0.0,0.0,0.0,0.0,0.0,0.0,0.0,0.0,0.0,-2.6963,-2.7632,-2.8158,-2.8135,0.0,0.0,0.0,0.0,-2.7637,-2.6002,-2.5761,-2.5837,-2.5879,-2.6422,-2.7103,-2.7842,0.0,0.0,-3.1239,-3.2044,-3.2554,-3.2897,-3.3253,-3.3415,-3.2584,-3.2755,-3.2837,-3.2152,-3.2048,-3.1642,-3.0839,-3.044,-2.9874,-2.8799,0.0,0.0,0.0,0.0,-2.6342,-2.6081,-2.5768,-2.5567,-2.545,-2.543,-2.5264,0.0,0.0,0.0,0.0,0.0,0.0,-2.5916,-2.6678,-2.6935,-2.6886,-2.6534,-2.6517,-2.6601,-2.6684,-2.6473,-2.6447,-2.6557,-2.674,-2.6419,-2.559,0.0,0.0,0.0,0.0,-2.7252,-2.7792,-2.796,-2.8065,-2.802,-2.7286,-2.6873,-2.6873,-2.6758,-2.6624,-2.6505,-2.594,-2.5382,-2.4786,-2.4116,0.0,0.0,0.0,0.0,0.0,0.0,0.0,0.0,0.0,0.0,0.0,0.0,0.0,0.0,0.0,0.0,0.0,0.0,0.0,-2.7544,-2.8113,-2.815,0.0,0.0,0.0,0.0,0.0,0.0,0.0,0.0,0.0,-2.7823,-2.7449,-2.7201,0.0,0.0,-2.6462,-2.5952,-2.6653,-2.7244,-2.7302,0.0,0.0,0.0,-2.7896,-2.7706,-2.7893,-2.8929,-2.987,-3.0299,-3.1396,-3.2257,-3.2364,-3.2621,-3.2765,-3.2645,-3.3767,-3.4578,-3.4488,-3.4424,-3.4135,-3.3338,-3.2996,-3.2488,-2.841,-2.7744,-2.7514,-2.6802,-2.5816,-2.5723,-2.5598,-2.5393,-2.5134,-2.4991,-2.4914,-2.4732,-2.4513,-2.4254,-2.4338,0.0,0.0,0.0,-2.5643,-2.6455,-2.6822,-2.6891,-2.6691,-2.6708,-2.6708,-2.6708,-2.6708,-2.6708,-2.6725,-2.6534,-2.6196,-2.5608,0.0,0.0,-2.5816,-2.6523,-2.7123,-2.7581,-2.7638,-2.7666,-2.7666,-2.7036,-2.6708,-2.6708,-2.6708,-2.6708,-2.6691,-2.6262,-2.5834,-2.5475,-2.4865,-2.4328,0.0,0.0,0.0,0.0,0.0,0.0,0.0,0.0,0.0,0.0,0.0,-2.53,-2.5132,0.0,0.0,0.0,-2.7599,-2.8473,-2.8916,-2.9113,0.0,0.0,0.0,0.0,0.0,0.0,0.0,-2.6599,-2.7519,-2.8205,-2.8186,-2.7712,-2.7469,-2.7827,-2.7415,-2.6957,-2.6615,0.0,-2.7949,-2.8039,-2.8067,-2.8232,-2.8648,-2.8593,-2.8548,-2.8848,-2.9845,-3.0586,-3.0643,-3.154,-3.2274,-3.2397,-3.2483,-3.2546,-3.2641,-3.3657,-3.4468,-3.4468,-3.4468,-3.4276,-3.3757,-3.3517,-3.3012,-2.7372,-2.633,-2.6119,-2.5699,-2.5114,-2.5244,-2.5346,-2.539,-2.4792,-2.447,-2.4323,-2.3837,-2.3492,-2.3333,-2.3375,0.0,-2.4323,-2.4827,-2.5353,-2.5949,-2.6438,-2.6674,-2.6657,-2.6624,-2.6657,-2.6657,-2.6657,-2.6657,-2.6624,-2.6364,-2.6234,-2.6217,-2.6177,-2.6061,-2.5877,-2.6379,-2.6746,-2.695,-2.7162,-2.7247,-2.7255,-2.6873,-2.6708,-2.6708,-2.6708,-2.6708,-2.6691,-2.6175,-2.5961,-2.5997,-2.5231,-2.4802,-2.4824,0.0,0.0,0.0,0.0,0.0,0.0,0.0,0.0,0.0,0.0,0.0,0.0,0.0,0.0,0.0,-2.8312,0.0,-3.0233,-2.9654,0.0,0.0,0.0,-2.8301,-2.8123,-2.8221,-2.8252,-2.8118,0.0,0.0,-2.8306,-2.8306,-2.8594,-2.94,-2.9439,-2.9099,-2.8306,-2.8935,-2.9238,-2.8376,-2.8323,-2.8377,-2.8495,-2.8931,-2.9524,-3.0158,-3.1076,-3.148,-3.1482,-3.1881,-3.2373,-3.2532,-3.2474,-3.2344,-3.2622,-3.2653,-3.2692,-3.2723,-3.2877,-3.2935,-3.2837,-3.2414,-3.1967,-2.5998,-2.4896,-2.4878,-2.4792,-2.4747,-2.4747,-2.4507,-2.4059,-2.3909,-2.3831,-2.3794,-2.3681,-2.3586,-2.3503,-2.3542,-2.3876,-2.4364,-2.4545,-2.4877,-2.541,-2.5928,-2.6156,-2.6156,-2.6156,-2.6156,-2.6156,-2.6156,-2.6156,-2.6191,-2.6438,-2.6451,-2.6214,-2.6178,-2.618,-2.6095,-2.6235,-2.6627,-2.729,-2.7041,-2.69,-2.6856,-2.6741,-2.6708,-2.6708,-2.6708,-2.6708,-2.6691,-2.5855,-2.5561,-2.5961,-2.5045,-2.4654,-2.5079,-2.4669,0.0,0.0,0.0,0.0,0.0,0.0,0.0,0.0,0.0,-2.693,-2.7382,0.0,-2.8318,0.0,-2.8365,-2.9329,-3.0341,-3.0277,0.0,0.0,-2.9162,-2.8815,-2.818,-2.871,-2.8885,-2.8249,-2.8781,-2.9199,-2.9196,-2.9177,-2.9283,-2.9529,-2.8967,-2.8427,-2.8248,-2.892,-2.9373,-2.9156,-2.9533,-3.0019,-2.9894,-3.0115,-3.0249,-3.0461,-3.0646,-3.0771,-3.0729,-3.0816,-3.0919,-3.0975,-3.097,-3.0938,-3.1025,-3.102,-3.1081,-3.1168,-3.2067,-3.2793,-3.2264,-3.2013,-3.1683,-2.4895,-2.4032,-2.4032,-2.4106,-2.4178,-2.4178,-2.3954,-2.361,-2.3595,-2.3595,-2.3595,-2.3595,-2.3595,-2.3595,-2.3595,-2.3786,-2.4051,-2.4276,-2.4549,-2.4892,-2.54,-2.5652,-2.5635,-2.5652,-2.5779,-2.6013,-2.6013,-2.6013,-2.6013,-2.6262,-2.6282,-2.611,-2.5883,-2.5805,-2.5879,-2.5949,-2.6183,-2.6628,-2.657,-2.6467,-2.6402,-2.6401,-2.6285,-2.6051,-2.6034,-2.6015,-2.5979,-2.5446,-2.528,-2.5578,-2.5095,-2.4996,-2.5261,-2.492,-2.4754,0.0,0.0,0.0,0.0,0.0,0.0,0.0,0.0,0.0,0.0,0.0,-2.894,-2.8936,-2.9352,-2.9853,-3.0489,-3.0549,-3.0374,-2.9922,-2.9909,-2.9734,-2.9244,-2.9718,-2.9863,-2.9392,-2.9801,-2.9956,-2.9605,-2.9546,-2.939,-2.9038,-2.8515,-2.821,-2.8264,-2.8651,-2.8904,-2.8896,-2.9237,-2.9523,-2.9497,-2.9485,-2.9609,-2.9899,-2.9962,-3.0056,-3.0432,-3.0472,-3.0491,-3.0472,-3.0491,-3.0491,-3.05,-3.0505,-3.054,-3.0685,-3.1279,-3.1713,-3.1423,-3.133,-3.1152,-2.4032,-2.3595,-2.3595,-2.3566,-2.348,-2.3493,-2.3465,-2.3465,-2.3406,-2.3421,-2.3508,-2.3551,-2.3595,-2.3595,-2.3595,-2.3595,-2.3638,-2.4074,-2.4311,-2.4331,-2.4838,-2.5105,-2.5089,-2.5105,-2.5335,-2.5779,-2.5815,-2.5799,-2.5815,-2.5852,-2.5864,-2.5815,-2.5379,-2.5228,-2.536,-2.5462,-2.5554,-2.57,-2.6026,-2.6141,-2.6009,-2.5995,-2.5731,-2.5261,-2.526,-2.5193,-2.5136,-2.5073,-2.5045,-2.5118,-2.5212,-2.5312,-2.5365,-2.4913,-2.4813,0.0,-2.4595,0.0,0.0,0.0,0.0,0.0,0.0,0.0,0.0,-2.8504,-2.9338,-3.0338,-3.0369,-3.0401,-3.0568,-3.0573,-3.0592,-3.058,-3.0637,-3.065,-3.0617,-3.0777,-3.0779,-3.0572,-3.0662,-3.0371,-2.951,-2.9413,-2.9057,-2.8201,-2.7978,-2.7867,-2.7925,-2.8103,-2.83,-2.8192,-2.8188,-2.8393,-2.8299,-2.8218,-2.8442,-2.9035,-2.9171,-2.9419,-3.0069,-3.0205,-3.0269,-3.0366,-3.0347,-3.0417,-3.0559,-3.0594,-3.0607,-3.0643,-3.0701,-3.0721,-3.069,-3.0694,-3.0604,-2.3681,-2.3595,-2.3595,-2.3334,-2.2875,-2.2889,-2.2889,-2.283,-2.2285,-2.2377,-2.2875,-2.3363,-2.3595,-2.3595,-2.3595,-2.3595,-2.361,-2.3724,-2.3739,-2.3786,-2.4313,-2.4552,-2.4552,-2.4536,-2.4592,-2.4697,-2.4697,-2.4697,-2.4712,-2.5144,-2.5214,-2.4958,-2.4843,-2.4658,-2.4448,0.0,0.0,0.0,-2.6036,-2.6214,-2.6076,-2.5876,-2.5639,-2.545,-2.545,0.0,-2.5393,-2.4901,-2.4816,-2.5212,-2.4787,0.0,0.0,0.0,0.0,0.0,0.0,0.0,0.0,0.0,0.0,0.0,-2.6965,-2.7771,-2.9284,-2.9154,-2.9117,-2.9429,-2.9457,-2.9727,-3.0393,-3.0441,-3.0432,-3.0441,-3.0498,-3.0567,-3.06,-3.0677,-3.0481,-2.982,-2.9755,-2.9413,-2.8567,-2.8381,-2.8045,-2.7214,-2.7054,-2.6786,-2.6167,-2.7231,-2.8072,-2.8103,-2.8012,-2.8138,-2.818,-2.8144,-2.8114,-2.8427,-2.8415,-2.8478,-2.8632,-2.8635,-2.8882,-2.9399,-2.9518,-2.9705,-3.0352,-3.0524,-3.0485,-3.0538,-3.0547,-3.0626,-3.0653,-3.0632,-3.0604,-2.3157,0.0,-2.2786,-2.2469,0.0,-2.1894,-2.1752,-2.1738,-2.1724,-2.1899,-2.2253,-2.2515,-2.2696,-2.2651,-2.2651,-2.2657,-2.2643,-2.2686,-2.2651,-2.2696,-2.2936,-2.3245,-2.3535,-2.323,-2.3404,-2.3945,-2.3987,-2.3987,-2.3987,-2.422,-2.441,-2.4528,-2.3977,-2.3754,-2.3832,-2.3535,-2.3939,-2.5086,-2.5367,-2.5459,-2.5285,-2.513,-2.491,-2.4593,0.0,0.0,0.0,0.0,0.0,0.0,0.0,0.0,0.0,0.0,0.0,-2.4421,-2.4513,-2.4747,-2.5207,-2.5738,-2.6355,-2.7127,-2.79,-2.8615,-2.9313,-2.955,-2.9701,-2.977,-2.9783,-2.9957,-3.0333,-3.0439,-3.0462,-3.0472,-3.0545,-3.0477,-3.0099,-3.0071,-2.9764,-2.899,-2.8801,-2.8459,-2.7571,-2.7449,-2.7084,-2.6267,-2.6087,-2.5952,-2.5589,-2.619,-2.6802,-2.6807,-2.6844,-2.6864,-2.6864,-2.69,-2.711,-2.7377,-2.7516,-2.7694,-2.8046,-2.8104,-2.8241,-2.8632,-2.8691,-2.8844,-2.9214,-2.9642,-2.9959,-2.9994,-3.0275,-3.042,-3.0269,-3.0354,-3.0525,-2.2649,-2.2452,-2.1932,-2.1663,-2.152,-2.1015,-2.0746,-2.0646,0.0,0.0,0.0,-2.1649,-2.1697,-2.1697,-2.1697,-2.1699,-2.1698,-2.1695,-2.1718,-2.1719,-2.1704,-2.1993,-2.2498,-2.1946,-2.2243,-2.3171,-2.3171,-2.3171,-2.3171,-2.326,-2.351,-2.3821,-2.3065,-2.2804,-2.3112,-2.2646,-2.2957,-2.4099,-2.4419,-2.4446,-2.4287,-2.4225,-2.3889,-2.3346,-2.3421,-2.3499,-2.3506,-2.3473,-2.3456,-2.344,-2.3441,-2.3457,-2.3506,-2.3621,-2.3767,-2.3916,-2.4093,-2.4572,-2.5378,-2.5671,-2.6446,-2.7883,-2.8888,-2.9325,-2.9031,-2.9832,-3.0336,-3.0398,-3.0402,-3.0406,-3.0406,-3.0472,-3.0455,-3.0319,-3.039,-3.0125,-2.9315,-2.921,-2.8883,-2.8058,-2.7848,-2.7526,-2.6687,-2.6526,-2.6275,-2.5599,-2.5441,-2.5343,-2.5303,-2.5441,-2.5615,-2.5615,-2.571,-2.5571,-2.5512,-2.5532,-2.5751,-2.6384,-2.647,-2.6732,-2.7301,-2.7535,-2.7593,-2.7707,-2.7743,-2.7783,-2.7926,-2.8427,-2.8885,-2.8869,-2.9313,-2.9667,-2.9384,-2.9589,-2.9855,-2.2346,-2.1852,-2.1744,-2.1376,-2.0894,-2.0845,-2.0459,-2.0003,-2.0646,-2.0944,-2.0979,-2.1472,-2.1697,-2.1697,-2.1697,-2.1702,-2.1713,-2.1716,-2.1697,0.0,-2.1704,-2.1758,-2.1852,-2.1744,-2.1791,-2.1965,-2.1965,-2.1979,-2.1993,-2.2362,-2.239,-2.2184,-2.2311,-2.2264,-2.1983,-2.1852,-2.1895,-2.2121,-2.3312,-2.3855,-2.3729,-2.3481,-2.301,-2.2287,-2.2783,-2.3091,-2.3095,-2.2959,-2.2925,-2.2891,-2.2303,-2.198,-2.2028,-2.2058,-2.2289,-2.2888,-2.3707,-2.4522,-2.5201,-2.6387,-2.7402,-2.828,-2.9159,-2.9689,-2.9827,-2.9952,-3.015,-3.0367,-3.0462,-3.0491,-3.0481,-3.0494,-3.0237,-2.9582,-2.9539,-2.9236,-2.8398,-2.8276,-2.7931,-2.7013,-2.6889,-2.6536,-2.5771,-2.5542,-2.5495,-2.5341,-2.5138,-2.5205,-2.5019,-2.5215,-2.5312,-2.5339,-2.5395,-2.542,-2.5306,-2.5304,-2.5309,-2.5388,-2.5297,-2.5274,-2.5485,-2.5543,-2.5726,-2.6341,-2.6369,-2.6489,-2.6867,-2.7085,-2.7053,-2.6864,-2.6985,-2.7177,-2.7522,-2.7653,-2.7951,-2.15,-2.1161,-2.0805,-2.0521,-2.0245,-2.0258,-2.0105,-1.985,-2.0105,-2.0245,-2.0295,-2.057,-2.0657,-2.0657,-2.0657,-2.0657,-2.0657,-2.0657,-2.0664,-2.0656,-2.0651,-2.0855,-2.1161,-2.0868,-2.0855,-2.1197,-2.121,-2.121,-2.1272,-2.1567,-2.1698,-2.1663,-2.1595,-2.1402,-2.121,-2.0855,-2.0644,-2.0654,-2.1987,-2.2646,-2.2551,-2.2454,-2.2203,-2.185,-2.2129,-2.2282,-2.2282,-2.223,-2.2203,-2.2203,-2.1883,-2.1715,-2.1705,-2.1688,-2.1843,-2.2165,-2.2565,-2.34,-2.4602,-2.6488,-2.7865,-2.8482,-2.9246,-2.9874,-3.0225,-3.0222,-3.0285,-3.0432,-3.0491,-3.0311,-2.9911,-2.9927,-2.9598,-2.8739,-2.8691,-2.8332,-2.7527,-2.7347,-2.6914,-2.5986,-2.586,-2.5726,-2.5201,-2.5015,-2.4917,-2.4892,-2.4554,-2.4132,-2.4014,-2.3851,-2.402,-2.4601,-2.4929,-2.4884,-2.4625,-2.4645,-2.4607,-2.4471,-2.4356,-2.4312,-2.4317,-2.4279,-2.4448,-2.4779,-2.4703,-2.4628,-2.4875,-2.5037,-2.5074,-2.5063,-2.5383,-2.5533,-2.4998,-2.4201,-2.47,-2.0696,-2.0497,-2.0003,-1.9798,-1.9798,-1.9798,-1.9798,-1.9798,-1.9798,-1.9798,-1.9798,-1.9798,-1.9798,-1.9798,-1.9798,-1.9798,-1.9798,-1.9798,-1.9798,-1.9798,-1.9631,-1.9876,-2.0265,-1.9699,-1.9699,-2.0145,-2.0218,-2.0231,-2.0244,-2.0598,-2.0678,-2.0473,-2.0041,-1.981,-1.9797,-1.9308,-1.8914,-1.8802,-1.9718,-2.0417,-2.0818,-2.0745,-2.0643,-2.05,-2.0616,-2.0725,-2.0677,-2.0798,-2.0831,-2.0831,-2.0806,-2.0775,-2.0788,-2.0788,-2.0886,-2.1205,-2.137,-2.2312,-2.4293,-2.6616,-2.804,-2.8213,-2.8988,-2.9584,-2.9795,-2.9862,-2.9988,-3.0167,-3.0032,-2.9674,-2.9162,-2.907,-2.8789,-2.7947,-2.7787,-2.7418,-2.6585,-2.6304,-2.5938,-2.5068,-2.4941,-2.4905,-2.475,-2.4553,-2.4376,-2.4174,-2.3279,-2.2557,-2.2516,-2.2004,-2.1951,-2.2729,-2.3621,-2.4038,-2.3579,-2.3356,-2.3244,-2.3076,-2.27,-2.2402,-2.2379,-2.2495,-2.2553,-2.2433,-2.2277,-2.2021,-2.2031,-2.2211,-2.2295,-2.2201,-2.24,-2.2446,-2.1318,-2.1066,-2.1743,-2.0446,-1.9952,-1.985,-1.9798,-1.9798,-1.9798,-1.9747,-1.9747,-1.9798,-1.9798,-1.9722,-1.9798,-1.9734,-1.9798,-1.9786,-1.9722,-1.9709,-1.9786,-1.9709,-1.9645,-1.9085,-1.8906,-1.9058,-1.8432,-1.8189,-1.843,-1.8488,-1.849,-1.8551,-1.9361,-1.8859,-1.7086,-1.6822,-1.6862,-1.685,-1.6811,-1.6441,-1.572,-1.58,-1.6672,-1.8101,-1.7897,-1.746,-1.6904,-1.7424,-1.7701,-1.7787,-1.8068,-1.8262,-1.826,-1.8096,-1.8012,-1.7958,-1.797,-1.8537,-1.9775,-2.0312,-2.1882,-2.4664,-2.6939,-2.7741,-2.7254,-2.8184,-2.8599,-2.8063,-2.8116,-2.8559,-2.9084,-2.8777,-2.8447,-2.8218,-2.8258,-2.79,-2.7028,-2.6831,-2.6481,-2.5685,-2.5091,-2.4747,-2.4681,-2.4246,-2.3916,-2.3934,-2.375,-2.358,-2.3073,-2.1447,-2.0248,-2.0143,-1.92,-1.8239,-1.8925,-2.0644,-2.2148,-2.2036,-2.1507,-2.0642,-2.0484,-1.9666,-1.8983,-1.8748,-1.8793,-1.8946,-1.8563,-1.8728,-1.8485,-1.8399,-1.8499,-1.835,-1.7964,-1.7789,-1.7408,-1.7491,-1.8425,-2.0557,-2.0042,-1.9798,-1.9798,-1.9798,-1.9747,-1.9359,-1.915,-1.915,-1.8661,-1.839,-1.8171,-1.8171,-1.8502,-1.9113,-1.8914,-1.8588,-1.816,-1.7918,-1.7823,-1.776,-1.7454,-1.74,-1.7438,-1.7151,-1.7035,-1.7118,-1.7156,-1.7107,-1.7118,-1.7128,-1.6103,-1.4429,-1.5177,-1.5582,-1.5254,-1.5992,-1.584,-1.4696,-1.5038,-1.5307,-1.5414,-1.5469,-1.5394,-1.5243,-1.5394,-1.5524,-1.5535,-1.5709,-1.5756,-1.5766,-1.568,-1.5648,-1.5637,-1.5637,-1.6061,-1.7099,-1.87,-2.0534,-2.267,-2.4497,-2.5808,-2.6454,-2.7245,-2.7714,-2.79,-2.7445,-2.7297,-2.7637,-2.7947,-2.7949,-2.742,-2.7312,-2.6965,-2.6113,-2.5687,-2.5298,-2.4969,-2.4448,-2.4095,-2.3971,-2.3654,-2.3358,-2.3109,-2.2258,-2.146,-2.0825,-1.9241,-1.7763,-1.6702,-1.5672,-1.4617,-1.3682,-1.4344,-1.5784,-1.7142,-1.7493,-1.6529,-1.5313,-1.4538,-1.4167,-1.4029,-1.4116,-1.4104,-1.4092,-1.3843,-1.3677,-1.3518,-1.3342,-1.3137,-1.3119,-1.3236,-1.317,-1.4351,-1.4548,-1.5448,-1.9695,-1.9475,-1.9307,-1.9117,-1.8995,-1.8448,-1.8154,-1.8037,-1.7508,-1.7092,-1.6841,-1.683,-1.7163,-1.7682,-1.7662,-1.7342,-1.6853,-1.6541,-1.6277,-1.6104,-1.5913,-1.5835,-1.5875,-1.5653,-1.5587,-1.5637,-1.5641,-1.5769,-1.582,-1.502,-1.3535,-1.2068,-1.3227,-1.4019,-1.3985,-1.4666,-1.4543,-1.3811,-1.2917,-1.1386,-0.9753,-0.971,-1.0957,-1.3044,-1.3337,-1.3337,-1.3337,-1.3308,-1.3355,-1.3355,-1.3531,-1.367,-1.3723,-1.3679,-1.4033,-1.4966,-1.7205,-1.9209,-2.0585,-2.2701,-2.4375,-2.5443,-2.6166,-2.6796,-2.6997,-2.6342,-2.5851,-2.5882,-2.6442,-2.6456,-2.6359,-2.6152,-2.5726,-2.4973,-2.4478,-2.4172,-2.4014,-2.3561,-2.303,-2.2623,-2.2121,-2.1927,-2.1267,-1.9578,-1.8018,-1.7602,-1.5794,-1.4075,-1.2379,-1.1313,-1.0001,-0.8601,-0.8099,-0.9079,-1.1556,-1.1932,-1.1047,-0.9342,-0.8242,-0.7852,-0.8077,-0.8026,-0.8217,-0.7683,-0.7826,-0.8081,-0.8148,-0.7949,-0.8521,-0.8683,-0.9029,-0.9425,-1.0086,-0.9813,-1.0171,-1.9423,-1.8703,-1.7993,-1.7546,-1.7149,-1.7108,-1.6848,-1.6559,-1.6474,-1.6418,-1.6294,-1.6272,-1.6003,-1.5389,-1.5942,-1.6398,-1.6348,-1.6203,-1.5752,-1.5129,-1.4531,-1.4399,-1.4546,-1.3901,-1.362,-1.3734,-1.3724,-1.3865,-1.4234,-1.3114,-1.1488,-0.898,-0.9791,-1.1325,-1.1731,-1.0916,-1.1538,-1.1372,-0.7419,-0.3224,0.0104,0.0871,-0.2509,-0.8775,-1.0737,-1.0473,-1.0632,-1.0786,-1.0794,-1.081,-1.1288,-1.1833,-1.1987,-1.1979,-1.2415,-1.3584,-1.609,-1.7854,-1.8833,-2.1391,-2.3352,-2.3455,-2.3591,-2.5317,-2.4574,-2.388,-2.3644,-2.3989,-2.3665,-2.3785,-2.4433,-2.452,-2.4309,-2.3802,-2.3414,-2.3016,-2.2589,-2.197,-2.1357,-2.0386,-1.9638,-1.8792,-1.7814,-1.5575,-1.4264,-1.3332,-1.0876,-0.8505,-0.8019,-0.6247,-0.477,-0.4046,-0.3343,-0.3352,-0.5954,-0.6366,-0.475,-0.2982,-0.1842,-0.0866,-0.058,-0.0533,-0.1021,-0.1416,-0.1765,-0.2128,-0.2518,-0.3326,-0.4422,-0.5099,-0.5798,-0.6225,-0.6433,-0.6745,-0.6989,-1.7728,-1.718,-1.6922,-1.6768,-1.657,-1.6074,-1.5758,-1.5566,-1.5112,-1.479,-1.4501,-1.4113,-1.3588,-1.3045,-1.2893,-1.3231,-1.3821,-1.3591,-1.3101,-1.2503,-1.2586,-1.2255,-1.1479,-1.1639,-1.1598,-1.1436,-1.136,-0.9857,-0.7126,-0.5433,-0.3285,-0.1321,-0.1704,-0.1886,-0.1476,-0.2297,-0.2911,-0.2703,-0.0879,0.1521,0.498,0.8926,0.9492,0.6466,0.0502,-0.2624,-0.2624,-0.2997,-0.3066,-0.2617,-0.3313,-0.424,-0.5337,-0.6529,-0.7306,-0.7978,-1.2,-1.2797,-0.9271,-0.9649,-1.1001,-1.2023,-1.2559,-1.5648,-1.8979,-1.9391,-1.9467,-2.1016,-2.0745,-2.0504,-2.0977,-2.2167,-2.3109,-2.2801,-2.1829,-2.0805,-2.027,-1.9593,-1.8758,-1.7849,-1.6644,-1.4967,-1.3001,-1.1158,-1.0191,-0.9855,-0.7468,-0.5212,-0.3536,-0.1557,0.0258,0.1679,0.2722,0.3487,0.4195,0.0983,0.0399,0.2413,0.3827,0.3878,0.4097,0.4167,0.3749,0.3571,0.3521,0.2882,0.2115,0.1202,0.0053,-0.1172,-0.187,-0.2574,-0.2934,-0.3229,-0.3226,-1.6273,-1.6008,-1.5731,-1.5429,-1.5086,-1.4553,-1.4142,-1.3765,-1.3256,-1.2856,-1.2591,-1.2144,-1.1678,-1.1108,-1.0645,-1.0541,-1.0953,-1.1259,-1.0973,-1.0198,-1.061,-1.0156,-0.932,-0.9761,-0.9976,-0.9263,-0.728,-0.4192,-0.0408,0.1863,0.4686,0.7975,0.8383,0.9209,0.9987,0.8749,0.7898,0.7664,0.7619,0.8873,1.1195,1.4708,1.6789,1.5792,1.0288,0.6818,0.6602,0.5493,0.4786,0.4817,0.4833,0.3675,0.1261,0.1112,0.0571,-0.0945,-0.4599,-0.5221,-0.1368,-0.0942,-0.2572,-0.4911,-0.5643,-0.8705,-1.4992,-1.4886,-1.5501,-1.6757,-1.6647,-1.5942,-1.6218,-1.7394,-1.8974,-1.9848,-1.8808,-1.7467,-1.68,-1.575,-1.4759,-1.358,-1.1734,-0.9877,-0.8248,-0.6307,-0.5249,-0.5069,-0.2789,-0.0473,0.0956,0.2894,0.4658,0.6173,0.7015,0.8076,0.8615,0.6811,0.5933,0.7654,0.7991,0.8184,0.828,0.8382,0.8426,0.8433,0.8095,0.7396,0.6581,0.565,0.4442,0.3069,0.2205,0.145,0.092,0.0381,0.0165,-1.5091,-1.4894,-1.4357,-1.3504,-1.2715,-1.2532,-1.1843,-1.1124,-1.0981,-1.0997,-1.0871,-1.0787,-1.0372,-0.979,-0.9533,-0.8964,-0.8403,-0.9776,-0.9872,-0.8763,-0.8888,-0.8462,-0.7717,-0.854,-0.8137,-0.7222,-0.1745,0.2697,0.5694,0.7819,1.1398,1.6585,1.8365,1.8714,2.0498,1.9114,1.8796,1.719,1.7089,1.8333,1.9526,1.8555,1.8098,1.7702,1.6777,1.6089,1.5783,1.362,1.1573,1.0854,1.1718,1.0697,0.7729,0.9799,1.0695,0.7145,0.5671,0.515,0.4599,0.3556,0.1909,-0.1229,-0.3793,-0.524,-0.9505,-1.0342,-1.0377,-1.1234,-1.0714,-1.0329,-1.0445,-1.0277,-1.1845,-1.5262,-1.4198,-1.2605,-1.1891,-1.0686,-0.9338,-0.7979,-0.5947,-0.4349,-0.3425,-0.1294,0.052,0.1098,0.2906,0.4608,0.5047,0.6816,0.8345,0.8899,0.9837,1.112,1.1782,1.2211,1.2357,1.258,1.2184,1.2048,1.1974,1.2003,1.1773,1.1725,1.123,1.0491,0.8834,0.7899,0.7222,0.6111,0.5664,0.4831,0.4028,0.3273,0.3182,-1.2166,-1.2166,-1.1919,-1.167,-1.1251,-1.0799,-1.0344,-1.0061,-1.0054,-0.979,-0.9423,-0.9341,-0.8926,-0.8285,-0.777,-0.7309,-0.6999,-0.7984,-0.7984,-0.7481,-0.8209,-0.7836,-0.6869,-0.7913,-0.5528,-0.0215,0.3276,0.7638,1.1921,1.3355,1.5635,1.843,1.9752,2.0577,2.1329,2.0746,1.9955,1.9558,1.9694,1.9942,2.0156,2.0526,2.06,2.0415,1.9595,1.9236,1.9672,1.6435,1.4642,1.454,1.4563,1.4085,1.3739,1.5038,1.5143,1.3751,1.5889,1.7668,1.8118,1.7619,1.5037,1.1424,0.9843,0.5831,-0.0605,-0.1446,-0.2753,-0.5595,-0.4794,-0.39,-0.5376,-0.4224,-0.5738,-1.1249,-0.9632,-0.7695,-0.6871,-0.514,-0.3293,-0.1899,-0.0567,0.0726,0.2104,0.4102,0.4662,0.4875,0.6467,0.7581,0.8003,0.9756,1.1384,1.1617,1.2706,1.3148,1.3338,1.3527,1.3784,1.3873,1.3836,1.392,1.4236,1.4422,1.44,1.4204,1.3763,1.2907,1.1277,1.0163,0.9373,0.8566,0.757,0.686,0.6367,0.5936,0.5653,-1.0375,-1.0383,-1.0112,-0.9849,-0.9592,-0.9113,-0.8756,-0.8554,-0.8547,-0.8285,-0.7976,-0.8119,-0.7753,-0.7052,-0.6712,-0.6287,-0.59,-0.6192,-0.5845,-0.5441,-0.7112,-0.6673,-0.4553,-0.3836,-0.0432,0.5828,0.8677,1.2125,1.664,1.719,1.8264,2.0073,2.0684,2.1295,2.2023,2.1614,2.1357,2.1427,2.1454,2.1511,2.1824,2.2433,2.2717,2.2429,2.1667,2.1467,2.168,1.9267,1.78,1.738,1.6632,1.6386,1.6818,1.7313,1.7585,1.7989,1.9941,2.2325,2.3957,2.3781,2.284,1.825,1.6995,1.3209,0.6325,0.4956,0.304,0.0249,0.0702,0.1274,0.0052,0.0779,-0.0051,-0.3188,-0.3293,-0.2276,-0.1173,0.0362,0.1673,0.2837,0.3926,0.5176,0.631,0.7483,0.7991,0.8204,0.9249,1.0147,1.0598,1.2029,1.2964,1.3585,1.3878,1.4261,1.4549,1.4778,1.4949,1.4835,1.4698,1.4744,1.4915,1.5005,1.5039,1.4858,1.4516,1.4147,1.2724,1.1938,1.113,1.0292,0.9614,0.9357,0.8989,0.8115,0.7735,-0.9526,-0.9467,-0.8892,-0.8279,-0.7776,-0.7676,-0.732,-0.675,-0.6524,-0.6524,-0.6588,-0.7166,-0.6673,-0.5909,-0.5753,-0.5262,-0.4546,-0.4089,-0.3292,-0.2894,-0.3999,-0.377,-0.1436,0.2013,0.6109,1.042,1.3135,1.584,1.8249,1.8838,2.0303,2.1866,2.2365,2.2838,2.3041,2.3177,2.3231,2.33,2.3422,2.3669,2.4059,2.4184,2.4059,2.3639,2.347,2.3177,2.2642,2.2153,2.1255,1.9621,1.8528,1.8058,1.7969,1.8122,1.8847,1.9489,2.0369,2.1924,2.3242,2.4193,2.261,1.8582,1.7461,1.4698,0.9547,0.8406,0.7484,0.5418,0.5788,0.5786,0.5369,0.5637,0.5645,0.6034,0.3626,0.3392,0.5231,0.5659,0.6039,0.6769,0.7914,0.8885,0.9082,1.0229,1.0789,1.1206,1.2027,1.2541,1.2897,1.3684,1.4527,1.488,1.496,1.5186,1.5454,1.5466,1.5644,1.5599,1.5478,1.5511,1.5555,1.5599,1.5644,1.5454,1.5231,1.4869,1.4446,1.3575,1.3014,1.2435,1.2094,1.2003,1.119,0.9995,0.9386,-0.7422,-0.7422,-0.767,-0.7634,-0.7376,-0.7074,-0.6758,-0.643,-0.5445,-0.4948,-0.525,-0.633,-0.5297,-0.3342,-0.3289,-0.3128,-0.2514,-0.1616,-0.0388,0.0939,0.1599,0.1758,0.3341,0.6679,1.0029,1.2809,1.4168,1.6162,1.9209,1.988,2.1075,2.2845,2.3194,2.3459,2.3592,2.3945,2.4174,2.4246,2.4383,2.4479,2.4625,2.4674,2.4625,2.4523,2.4267,2.404,2.3805,2.358,2.2892,2.1589,2.1042,2.0774,2.071,2.1035,2.1344,2.1702,2.2726,2.3571,2.4095,2.4511,2.3448,2.143,1.9874,1.799,1.499,1.3802,1.212,1.0344,1.0458,1.035,0.8673,0.9118,0.9817,0.9468,0.7953,0.7477,0.8868,0.9766,1.0147,1.0448,1.1496,1.2031,1.2301,1.2829,1.3433,1.3622,1.4068,1.4517,1.4448,1.5227,1.6065,1.5828,1.5884,1.6114,1.6269,1.6225,1.6238,1.6238,1.6194,1.6194,1.6194,1.6207,1.6238,1.6194,1.582,1.5454,1.5365,1.4926,1.4607,1.3831,1.3168,1.2395,1.1738,1.0814,1.0527,-0.6332,-0.6273,-0.6242,-0.5795,-0.5226,-0.4853,-0.4754,-0.4467,-0.3274,-0.2609,-0.2839,-0.3395,-0.289,-0.1334,-0.0667,-0.0,0.0666,0.1442,0.2652,0.4334,0.6531,0.7306,0.7829,1.0275,1.2435,1.3752,1.5334,1.7411,1.959,2.065,2.1936,2.3141,2.3588,2.3819,2.4041,2.4301,2.4591,2.4674,2.4836,2.4904,2.5006,2.5019,2.5,2.4987,2.4801,2.4723,2.4676,2.4445,2.386,2.3074,2.2764,2.2705,2.2729,2.3102,2.3254,2.3218,2.4193,2.473,2.4732,2.4907,2.4266,2.2829,2.1568,1.9782,1.7571,1.6477,1.4852,1.2186,1.2849,1.2067,1.0897,1.1594,1.2425,1.2329,1.167,1.1309,1.1679,1.2036,1.2628,1.3107,1.3767,1.4345,1.4182,1.471,1.4858,1.4858,1.5229,1.5285,1.5297,1.6481,1.7081,1.6689,1.6459,1.657,1.6685,1.6697,1.674,1.674,1.6582,1.6637,1.6522,1.6534,1.6479,1.6423,1.6238,1.6095,1.5952,1.5543,1.463,1.3888,1.3273,1.2841,1.2297,1.1886,1.1657,-0.569,-0.5458,-0.4764,-0.353,-0.2174,-0.1672,-0.1503,-0.1503,-0.0444,0.0222,0.0443,0.0609,0.083,0.0775,0.222,0.3335,0.4436,0.4436,0.5604,0.7506,0.9877,1.1275,1.0965,1.2579,1.3924,1.4765,1.7342,1.8995,2.04,2.1652,2.2667,2.3526,2.3756,2.4002,2.4338,2.4495,2.4697,2.4924,2.5018,2.5107,2.5222,2.5243,2.5233,2.5214,2.5214,2.5184,2.5173,2.5027,2.4639,2.4006,2.3916,2.3841,2.3897,2.4204,2.421,2.4117,2.4671,2.511,2.4993,2.5024,2.4577,2.3154,2.2417,2.0958,1.8478,1.7476,1.6093,1.3744,1.3223,1.2936,1.2464,1.3215,1.3852,1.4122,1.4378,1.4147,1.3527,1.3564,1.4136,1.4778,1.5351,1.5363,1.5285,1.5285,1.5528,1.5543,1.6003,1.6323,1.6494,1.7315,1.7477,1.705,1.6909,1.6879,1.6993,1.7105,1.7188,1.7188,1.6909,1.6795,1.6565,1.6534,1.6534,1.6436,1.6324,1.6324,1.6324,1.5644,1.4824,1.4549,1.4389,1.3768,1.3132,1.2909,1.2667,-0.4082,-0.3065,-0.4045,-0.2912,-0.0334,0.2011,0.2347,0.1336,0.1614,0.2506,0.3516,0.4629,0.5018,0.5069,0.5328,0.5887,0.6258,0.6686,0.7764,0.9703,1.1403,1.3268,1.3906,1.4956,1.5599,1.6731,1.827,2.0111,2.1698,2.2487,2.3328,2.3958,2.4074,2.4229,2.4461,2.4636,2.4802,2.5012,2.519,2.5292,2.5293,2.5313,2.5313,2.5313,2.5313,2.5313,2.5303,2.5264,2.5143,2.496,2.4719,2.4557,2.4595,2.4642,2.4655,2.472,2.4986,2.5259,2.5178,2.49,2.4568,2.3997,2.2565,2.1201,2.056,1.8664,1.7437,1.6161,1.5513,1.4596,1.4111,1.4272,1.4606,1.488,1.5152,1.532,1.5073,1.5073,1.5374,1.5903,1.6476,1.6857,1.6689,1.6731,1.6689,1.6386,1.6714,1.7272,1.772,1.8118,1.7933,1.7504,1.7544,1.7558,1.7476,1.7585,1.7693,1.7693,1.7422,1.6993,1.6765,1.6607,1.6637,1.6552,1.6466,1.6466,1.6466,1.6324,1.5599,1.5555,1.5365,1.4652,1.4014,1.3826,1.3552,-0.0885,-0.0166,-0.0276,0.0606,0.2318,0.4453,0.5026,0.4391,0.4556,0.5066,0.5854,0.6786,0.7052,0.7101,0.7433,0.7735,0.8298,0.9299,1.0656,1.2358,1.3889,1.514,1.6211,1.7167,1.8016,1.8079,1.9504,2.1108,2.2228,2.3099,2.3671,2.4151,2.4209,2.4303,2.4497,2.469,2.485,2.5024,2.5261,2.537,2.5313,2.5313,2.5313,2.5313,2.5313,2.5313,2.5303,2.5303,2.5284,2.5253,2.5164,2.5082,2.5082,2.5089,2.5107,2.5194,2.531,2.5431,2.5321,2.5061,2.4739,2.4469,2.3106,2.2148,2.1207,1.9611,1.8232,1.7169,1.6218,1.541,1.5186,1.5096,1.5186,1.5555,1.5788,1.6008,1.5996,1.6008,1.6095,1.6557,1.7079,1.7133,1.7229,1.7585,1.7504,1.705,1.7639,1.8171,1.7933,1.8302,1.838,1.8185,1.8263,1.821,1.8066,1.8092,1.8235,1.8235,1.8078,1.7531,1.7076,1.6951,1.6837,1.6667,1.6466,1.6479,1.6479,1.6337,1.6151,1.5732,1.5365,1.5062,1.4789,1.4376,1.4201,0.2808,0.3312,0.4573,0.5062,0.5221,0.6258,0.6717,0.6912,0.7268,0.7144,0.7639,0.7835,0.8035,0.8075,0.8743,0.9423,1.046,1.1985,1.3403,1.4676,1.6061,1.7116,1.8012,1.9251,1.981,1.8561,2.0473,2.1915,2.2553,2.3199,2.3798,2.4152,2.4247,2.4393,2.4547,2.4725,2.4922,2.5091,2.5282,2.537,2.5313,2.5313,2.5313,2.5313,2.5313,2.5313,2.5313,2.5313,2.5313,2.5332,2.537,2.539,2.5428,2.5428,2.5466,2.5581,2.5553,2.557,2.552,2.5294,2.4926,2.4486,2.3806,2.2982,2.1765,2.0286,1.8877,1.7702,1.6671,1.5808,1.572,1.572,1.5952,1.6281,1.6479,1.6522,1.6595,1.6637,1.6667,1.6909,1.7463,1.7666,1.7787,1.8013,1.7867,1.7867,1.8496,1.8855,1.865,1.865,1.8864,1.9089,1.9185,1.9222,1.9059,1.8419,1.8598,1.8507,1.8468,1.784,1.7271,1.6951,1.671,1.6595,1.6479,1.6522,1.6479,1.6324,1.6051,1.5676,1.5543,1.5511,1.5242,1.488,1.4709,0.5475,0.7744,0.7973,0.8039,0.7907,0.7495,0.7771,0.818,0.7882,0.7929,0.8593,0.9099,0.9453,0.9658,1.0156,1.1065,1.2546,1.4093,1.5468,1.6503,1.7611,1.8484,1.9802,2.0528,2.1059,2.1797,2.24,2.2702,2.3164,2.3581,2.3917,2.4171,2.4357,2.4545,2.4717,2.4945,2.5069,2.5157,2.5321,2.537,2.5313,2.5313,2.5313,2.5313,2.5313,2.5313,2.5313,2.5313,2.5332,2.539,2.5332,2.5409,2.5505,2.5543,2.5548,2.5547,2.5582,2.5602,2.5542,2.5316,2.5111,2.4779,2.4082,2.3554,2.2558,2.0884,1.9325,1.8489,1.7275,1.6324,1.6324,1.6238,1.6337,1.6491,1.6565,1.6667,1.6993,1.7188,1.7353,1.7706,1.8013,1.8171,1.821,1.8366,1.8482,1.8507,1.8864,1.9251,1.9236,1.9456,1.9778,2.0004,2.0212,2.0212,2.0128,1.9236,1.8817,1.8636,1.8391,1.7814,1.7271,1.6837,1.6637,1.6837,1.6723,1.6565,1.6466,1.6367,1.6281,1.6107,1.6064,1.5964,1.5744,1.5433,1.4971,0.777,0.9461,0.9351,0.9492,0.9688,0.9361,0.9377,0.9688,0.943,0.9796,1.0648,1.1389,1.209,1.2644,1.3331,1.4283,1.5337,1.6164,1.7343,1.8324,1.9016,1.9677,2.0925,2.1368,2.2027,2.2669,2.3132,2.3516,2.3862,2.3919,2.4036,2.419,2.441,2.4561,2.4707,2.4945,2.5094,2.5179,2.5292,2.537,2.5313,2.5313,2.5313,2.5313,2.5313,2.5313,2.5313,2.5313,2.5332,2.5399,2.539,2.547,2.5533,2.5601,2.5631,2.559,2.5595,2.5592,2.5543,2.5343,2.5113,2.4655,2.4008,2.3497,2.272,2.1166,1.9435,1.8331,1.7825,1.6795,1.6509,1.6522,1.6534,1.6565,1.671,1.7034,1.7271,1.7544,1.7973,1.8405,1.8559,1.8559,1.838,1.8612,1.8991,1.9214,1.9383,1.9549,1.9798,2.0162,2.0516,2.0483,2.055,2.0364,2.0212,1.9543,1.9095,1.8916,1.8444,1.7854,1.7626,1.7353,1.7353,1.7463,1.7229,1.671,1.671,1.6697,1.6637,1.6534,1.6392,1.625,1.6151,1.592,1.5511,1.0324,1.1006,1.078,1.1163,1.1728,1.167,1.1807,1.1972,1.1953,1.2388,1.3227,1.385,1.4653,1.5593,1.6372,1.7186,1.8053,1.8149,1.8964,1.9587,2.0237,2.0734,2.1384,2.2092,2.281,2.3227,2.3689,2.419,2.4133,2.4151,2.419,2.4247,2.441,2.453,2.465,2.4946,2.5032,2.5164,2.529,2.538,2.5351,2.5332,2.5332,2.5332,2.5351,2.5351,2.5351,2.5351,2.539,2.5436,2.5483,2.5512,2.5562,2.563,2.5673,2.5659,2.5609,2.5567,2.5476,2.5248,2.4924,2.452,2.3934,2.3311,2.2375,2.0922,1.9156,1.772,1.7118,1.6909,1.6552,1.6637,1.668,1.6808,1.716,1.7544,1.7787,1.8092,1.8584,1.8902,1.9066,1.9163,1.9111,1.9426,1.9919,1.9989,2.0147,2.023,2.0467,2.0797,2.1007,2.0846,2.0682,2.0348,2.0004,1.9456,1.9266,1.9339,1.875,1.8052,1.8052,1.8052,1.8013,1.7867,1.7353,1.6909,1.6993,1.6993,1.6795,1.6637,1.6565,1.6436,1.6349,1.6293,1.6008,1.3731,1.3798,1.3731,1.435,1.5064,1.4607,1.5083,1.5865,1.5338,1.5496,1.5801,1.5978,1.6296,1.705,1.7943,1.8201,1.857,1.9413,2.0082,2.048,2.1032,2.1682,2.2304,2.2765,2.3388,2.3785,2.4113,2.419,2.4246,2.4246,2.4208,2.4247,2.443,2.4584,2.4778,2.5031,2.5194,2.5339,2.5437,2.5466,2.5457,2.5457,2.5457,2.5447,2.5457,2.5466,2.5456,2.5456,2.5476,2.5553,2.5518,2.5557,2.5658,2.563,2.5615,2.5605,2.5561,2.5518,2.5418,2.508,2.4709,2.43,2.3687,2.2982,2.1987,2.0575,1.8852,1.749,1.6993,1.6837,1.6837,1.6951,1.7105,1.7312,1.7558,1.8106,1.8496,1.876,1.9259,1.9748,2.0008,2.0078,2.0112,2.0501,2.0862,2.0862,2.0894,2.0975,2.1039,2.1213,2.1134,2.0878,2.0616,2.0261,1.9984,1.9449,1.9303,1.9536,1.8991,1.8302,1.821,1.821,1.821,1.7933,1.7463,1.7229,1.7312,1.7229,1.6951,1.6723,1.6565,1.6534,1.6491,1.6436,1.638,1.697,1.5229,1.5241,1.5861,1.6745,1.6519,1.6731,1.7142,1.6996,1.7259,1.7901,1.8005,1.8526,1.9366,2.0102,2.0268,2.0369,2.0873,2.1196,2.1284,2.1824,2.2401,2.2849,2.3275,2.3813,2.424,2.4448,2.454,2.4467,2.4339,2.4246,2.445,2.4575,2.4783,2.4957,2.519,2.5303,2.5361,2.5409,2.5447,2.5447,2.5476,2.5524,2.5524,2.5524,2.5524,2.5505,2.5524,2.5534,2.559,2.5572,2.5609,2.5664,2.5642,2.561,2.5608,2.552,2.5443,2.537,2.4905,2.4542,2.4077,2.3404,2.2631,2.1661,2.0655,1.9396,1.8327,1.8013,1.7706,1.7312,1.7312,1.7271,1.7463,1.7947,1.8352,1.8925,1.9549,1.9939,2.0452,2.0862,2.0878,2.0846,2.091,2.1118,2.1244,2.1244,2.1275,2.1213,2.1197,2.1007,2.0699,2.0416,2.0124,1.9894,1.9573,1.9266,1.9317,1.9118,1.8535,1.8302,1.821,1.8288,1.8302,1.8027,1.7827,1.7706,1.7271,1.6795,1.6637,1.6534,1.6534,1.6534,1.6491,1.625,1.9816,1.7641,1.7317,1.7796,1.8708,1.8723,1.8821,1.8897,1.8932,1.9284,1.9814,2.0092,2.0718,2.1414,2.1582,2.164,2.1805,2.2024,2.2074,2.2253,2.2594,2.2976,2.3338,2.371,2.416,2.4615,2.4655,2.4741,2.4725,2.4603,2.4513,2.469,2.4726,2.4936,2.5163,2.5298,2.5414,2.5457,2.5466,2.5483,2.5505,2.5532,2.5563,2.5551,2.5551,2.5547,2.5554,2.5551,2.5595,2.5609,2.5613,2.5623,2.564,2.5591,2.5549,2.5524,2.5447,2.537,2.5168,2.4801,2.4367,2.3841,2.3137,2.2312,2.1425,2.0943,2.0385,1.9051,1.8366,1.821,1.8092,1.7585,1.7626,1.7854,1.8288,1.8593,1.903,1.9748,2.0333,2.0715,2.115,2.1538,2.146,2.1275,2.1337,2.1521,2.1582,2.1521,2.1337,2.1086,2.0781,2.0449,2.0193,1.9929,1.9803,1.9588,1.9317,1.9132,1.8983,1.8893,1.8688,1.8535,1.8535,1.8496,1.838,1.8027,1.7585,1.7105,1.668,1.6565,1.6534,1.6534,1.6534,1.6534,1.6207,2.2097,2.2312,2.1091,2.0988,2.1678,2.1769,2.1888,2.1864,2.2034,2.1826,2.1647,2.2058,2.2021,2.2109,2.2331,2.2346,2.2023,2.2348,2.2647,2.2923,2.3226,2.3613,2.3886,2.4215,2.4539,2.4672,2.4823,2.4905,2.4933,2.4972,2.4884,2.4892,2.4953,2.5076,2.5223,2.5375,2.5477,2.5534,2.5572,2.5582,2.5621,2.5664,2.5664,2.5664,2.5684,2.5684,2.5703,2.5664,2.5644,2.5662,2.5626,2.5593,2.5594,2.5543,2.5495,2.5447,2.536,2.5261,2.503,2.4667,2.4356,2.386,2.3115,2.2107,2.1413,2.0335,1.9713,1.9513,1.8774,1.8235,1.8013,1.7773,1.8039,1.8288,1.8712,1.8999,1.9462,2.0147,2.0682,2.0991,2.1291,2.1538,2.1628,2.1337,2.1368,2.1552,2.1228,2.1149,2.091,2.0682,2.0499,2.0193,1.9929,1.9782,1.9675,1.9479,1.9317,1.9169,1.9006,1.9095,1.9169,1.9006,1.8727,1.8458,1.8263,1.7867,1.7504,1.7076,1.671,1.6565,1.6534,1.6534,1.6534,1.6534,1.6151,2.2911,2.3222,2.2737,2.2681,2.2952,2.2828,2.2863,2.2944,2.2968,2.2895,2.2735,2.2877,2.2999,2.3029,2.3159,2.341,2.3531,2.3714,2.3846,2.4036,2.4313,2.4421,2.4554,2.4631,2.4874,2.5005,2.5126,2.5273,2.5389,2.533,2.5384,2.537,2.5205,2.5343,2.5463,2.5466,2.5522,2.5576,2.5623,2.5627,2.5635,2.5684,2.5703,2.5703,2.5703,2.5703,2.5703,2.5703,2.5684,2.5643,2.5614,2.5582,2.5543,2.5468,2.5404,2.5341,2.5261,2.5096,2.493,2.4497,2.4044,2.3338,2.2735,2.2152,2.1491,2.0699,2.0162,1.9743,1.9368,1.9008,1.893,1.8887,1.891,1.8991,1.9118,1.9361,1.9793,2.0382,2.0698,2.0894,2.1039,2.1229,2.126,2.1244,2.1399,2.1521,2.1102,2.0732,2.0516,2.033,2.0139,2.005,1.9818,1.9726,1.969,1.953,1.9317,1.9207,1.908,1.908,1.9169,1.9058,1.8779,1.8458,1.8092,1.7666,1.7312,1.7034,1.6752,1.6565,1.6534,1.6534,1.6534,1.6436,1.5876,2.3751,2.3952,2.393,2.3794,2.3637,2.3569,2.3516,2.3526,2.3653,2.37,2.3705,2.367,2.3775,2.4,2.4096,2.4231,2.4467,2.4575,2.4716,2.478,2.4804,2.4904,2.4922,2.4986,2.5114,2.5301,2.5418,2.5524,2.5622,2.568,2.5663,2.5592,2.5526,2.557,2.5605,2.5611,2.5566,2.5609,2.5625,2.5628,2.5632,2.5664,2.5703,2.5703,2.5703,2.5684,2.5664,2.5644,2.5625,2.5582,2.5541,2.5524,2.5466,2.5399,2.534,2.5231,2.5126,2.4974,2.4766,2.4407,2.3798,2.3159,2.283,2.2241,2.1642,2.1244,2.0846,2.0483,2.0333,2.0177,1.9823,1.9441,1.9259,1.9192,1.9236,1.9456,1.9814,2.028,2.0516,2.0715,2.0894,2.1039,2.0959,2.0959,2.0878,2.091,2.055,2.0261,2.0124,1.998,1.9889,1.9833,1.9762,1.9726,1.969,1.9617,1.9493,1.9406,1.9244,1.893,1.8893,1.8855,1.8664,1.8302,1.7894,1.7463,1.7146,1.6909,1.6723,1.6522,1.6534,1.6491,1.6151,1.5964,1.5421,2.4673,2.5023,2.4817,2.4461,2.4081,2.4206,2.421,2.421,2.4481,2.465,2.465,2.4539,2.4561,2.4727,2.469,2.4783,2.4857,2.4898,2.4954,2.5005,2.507,2.4976,2.5038,2.5191,2.5341,2.5367,2.5509,2.5634,2.5683,2.5699,2.5693,2.5691,2.5629,2.5631,2.5684,2.5703,2.5683,2.5703,2.5684,2.5682,2.5662,2.5664,2.5664,2.5664,2.5664,2.5644,2.5613,2.5592,2.5573,2.5517,2.5455,2.5438,2.5409,2.5312,2.5203,2.5065,2.5018,2.4818,2.4505,2.4173,2.3668,2.3147,2.2797,2.2422,2.2158,2.184,2.1446,2.0943,2.0701,2.0369,1.9958,1.9606,1.9528,1.9413,1.9456,1.9528,1.9864,2.0054,2.0261,2.0364,2.0698,2.0942,2.0797,2.0616,2.0416,2.0227,1.9945,1.9818,1.9818,1.9782,1.9726,1.9705,1.9705,1.9705,1.9705,1.9705,1.9654,1.953,1.9369,1.9043,1.8765,1.8612,1.838,1.8092,1.7706,1.7312,1.7076,1.6837,1.668,1.6534,1.6534,1.6392,1.5964,1.5588,1.5186,2.4926,2.5167,2.5088,2.4968,2.4809,2.4722,2.4687,2.4695,2.4826,2.4884,2.489,2.481,2.4816,2.4886,2.4947,2.502,2.5149,2.517,2.5203,2.5406,2.5383,2.5434,2.5449,2.5446,2.5556,2.557,2.564,2.5646,2.5628,2.5663,2.5658,2.5642,2.5606,2.5609,2.5648,2.5658,2.5622,2.5628,2.5595,2.5564,2.5564,2.5564,2.5564,2.5564,2.5584,2.5576,2.5536,2.5522,2.5493,2.5445,2.538,2.5341,2.5311,2.5203,2.5057,2.4937,2.4826,2.4454,2.4042,2.366,2.3293,2.2996,2.2764,2.2439,2.194,2.1735,2.1491,2.1275,2.0943,2.0585,2.0215,2.0078,1.9969,1.966,1.9624,1.9624,1.9803,1.9874,1.998,1.9945,2.012,2.0224,2.0189,2.033,2.0193,2.0035,1.9782,1.9762,1.9762,1.9762,1.9705,1.9705,1.9705,1.9705,1.9705,1.9705,1.9581,1.9369,1.9295,1.9169,1.8855,1.8574,1.821,1.7933,1.7544,1.7188,1.6909,1.668,1.6607,1.6534,1.6534,1.6436,1.6139,1.5732,1.5332,2.5127,2.5336,2.5337,2.5354,2.5317,2.5187,2.5105,2.5107,2.5011,2.5007,2.5145,2.5089,2.5082,2.5152,2.5179,2.5209,2.5399,2.5418,2.5413,2.5629,2.5609,2.5576,2.5597,2.5633,2.5585,2.5606,2.5585,2.5553,2.5562,2.5611,2.5615,2.5544,2.5473,2.551,2.5571,2.5576,2.5553,2.555,2.5529,2.5525,2.5525,2.5525,2.5525,2.5525,2.5506,2.5492,2.5471,2.5459,2.5447,2.537,2.5311,2.5252,2.516,2.5041,2.4911,2.4762,2.4416,2.4079,2.3738,2.3437,2.3117,2.2772,2.2652,2.2347,2.1911,2.1748,2.1538,2.1306,2.1086,2.0715,2.0416,2.0314,2.0089,1.9803,1.969,1.969,1.9711,1.9782,1.9803,1.9747,1.9747,1.9726,1.9726,1.9889,2.0035,1.9889,1.9741,1.9705,1.9705,1.9705,1.9705,1.9705,1.9705,1.9705,1.9705,1.9705,1.9545,1.9258,1.9169,1.9132,1.8968,1.8688,1.821,1.7787,1.7463,1.7146,1.6723,1.6534,1.6534,1.6534,1.6534,1.6392,1.6238,1.5788,1.5287,2.536,2.5591,2.5601,2.559,2.5577,2.5481,2.5499,2.5541,2.5108,2.5229,2.5624,2.532,2.5332,2.5596,2.5593,2.5545,2.5545,2.557,2.555,2.5538,2.5537,2.5526,2.5522,2.5542,2.5542,2.5503,2.5492,2.5498,2.5495,2.5504,2.5504,2.5466,2.5378,2.5412,2.5464,2.5495,2.5476,2.5474,2.5418,2.5427,2.5444,2.5418,2.5437,2.5446,2.5455,2.5418,2.537,2.534,2.5301,2.5231,2.5107,2.5041,2.4949,2.485,2.4682,2.4407,2.3983,2.386,2.361,2.3305,2.3052,2.2746,2.25,2.236,2.2135,2.1823,2.1598,2.1368,2.1118,2.0748,2.0382,2.0212,2.0054,1.9874,1.9726,1.9726,1.9726,1.9747,1.9803,1.9803,1.9818,1.9818,1.9747,1.9839,1.9945,1.9818,1.9705,1.9705,1.9705,1.9705,1.9705,1.9705,1.9705,1.9705,1.969,1.9617,1.942,1.9132,1.9095,1.9058,1.8893,1.865,1.8092,1.7666,1.7463,1.7118,1.668,1.6522,1.6534,1.6534,1.6534,1.6423,1.6281,1.5599,1.5005,2.549,2.5601,2.5537,2.5531,2.554,2.5503,2.5554,2.5566,2.5396,2.5451,2.5538,2.5464,2.5464,2.5562,2.5538,2.5535,2.5535,2.5543,2.552,2.5485,2.5418,2.5481,2.547,2.5423,2.547,2.5451,2.5415,2.5312,2.538,2.537,2.536,2.5351,2.5194,2.5243,2.5284,2.5339,2.5351,2.536,2.5248,2.5269,2.5269,2.5228,2.5269,2.531,2.533,2.5261,2.5168,2.5126,2.5072,2.4949,2.4896,2.4855,2.4842,2.4685,2.4459,2.4002,2.3899,2.3896,2.35,2.3477,2.3323,2.2855,2.2625,2.2463,2.226,2.1899,2.1598,2.1337,2.091,2.0431,2.0227,2.0089,1.9984,1.9909,1.9797,1.9726,1.9726,1.9839,1.9874,1.9894,1.9909,1.9874,1.9854,1.9839,1.9909,1.9797,1.9705,1.9705,1.9705,1.9705,1.9705,1.9705,1.9705,1.9705,1.953,1.9442,1.9244,1.9043,1.9058,1.8945,1.8588,1.8263,1.7867,1.7544,1.7312,1.6951,1.6595,1.6522,1.6534,1.6534,1.6491,1.638,1.6194,1.5599,1.505,2.5518,2.5543,2.5519,2.5511,2.5492,2.5434,2.5456,2.5514,2.5507,2.5511,2.5499,2.546,2.5484,2.5486,2.5476,2.5441,2.5406,2.5434,2.5343,2.5096,2.5182,2.5111,2.5111,2.5,2.4898,2.4981,2.4905,2.4639,2.4879,2.5095,2.5101,2.4867,2.4835,2.4847,2.4841,2.4879,2.4986,2.5049,2.5061,2.5053,2.5018,2.4981,2.5037,2.5072,2.5096,2.5018,2.4956,2.4911,2.4864,2.4771,2.4741,2.4685,2.4639,2.4478,2.4211,2.3858,2.3816,2.3876,2.3692,2.3482,2.3259,2.2996,2.2772,2.2554,2.2141,2.1751,2.1477,2.1165,2.0565,2.007,2.0035,2.0,1.9965,1.9929,1.9818,1.9726,1.9818,1.9945,2.0,2.0019,2.0035,1.9965,1.9945,1.9909,1.9839,1.9762,1.9705,1.9705,1.9705,1.9705,1.9705,1.9705,1.9705,1.9705,1.953,1.9406,1.9317,1.9244,1.9281,1.9058,1.8472,1.8185,1.8027,1.7585,1.7105,1.6837,1.6552,1.6522,1.6534,1.6534,1.6534,1.6479,1.6281,1.5864,1.532,2.5478,2.5486,2.5447,2.5339,2.5348,2.5224,2.5214,2.529,2.532,2.5417,2.5379,2.529,2.5194,2.5079,2.5064,2.5044,2.4989,2.5,2.4889,2.458,2.4651,2.4686,2.4628,2.4253,2.458,2.4451,2.43,2.4267,2.4206,2.4522,2.4783,2.4323,2.4273,2.4366,2.458,2.4584,2.4695,2.4799,2.4864,2.4872,2.4842,2.4804,2.4808,2.4832,2.4832,2.4799,2.4771,2.4775,2.4779,2.4685,2.4556,2.4425,2.4338,2.4229,2.3958,2.3896,2.3855,2.3876,2.3816,2.3588,2.3346,2.3117,2.2898,2.2607,2.2186,2.1705,2.1415,2.1165,2.0649,2.0261,2.0124,1.9929,1.9839,1.9839,1.9803,1.9726,1.9762,1.9909,2.0054,2.0089,2.0158,2.0104,1.9854,1.9818,1.9839,1.9762,1.9705,1.9705,1.9705,1.9705,1.9705,1.9705,1.9705,1.969,1.9603,1.9515,1.9479,1.9479,1.9317,1.9095,1.8433,1.8302,1.8302,1.7585,1.6837,1.6795,1.6637,1.6565,1.6534,1.6534,1.6534,1.6534,1.6293,1.592,1.541,2.5369,2.5389,2.4993,2.4591,2.4302,2.4615,2.4534,2.4232,2.4648,2.4807,2.4742,2.4407,2.4261,2.4347,2.4335,2.4318,2.4266,2.4459,2.4301,2.4321,2.4349,2.4473,2.4655,2.4396,2.4526,2.4576,2.4425,2.4044,2.4063,2.4437,2.4757,2.4629,2.4401,2.434,2.4393,2.4412,2.4449,2.4437,2.4487,2.4579,2.4613,2.4639,2.4626,2.4716,2.476,2.4651,2.4588,2.4543,2.4461,2.4339,2.4022,2.3921,2.3881,2.3876,2.3813,2.3753,2.4042,2.4213,2.4013,2.3826,2.3552,2.3188,2.2925,2.2607,2.2215,2.1748,2.1385,2.1165,2.0846,2.0467,2.0177,1.9929,1.9732,1.9767,1.9767,1.9747,1.9705,1.9874,2.0089,2.0158,2.0212,2.007,1.9818,1.9762,1.9782,1.9762,1.9726,1.9705,1.9705,1.9705,1.9705,1.9705,1.9705,1.969,1.9639,1.9442,1.9317,1.893,1.8612,1.8458,1.8316,1.7947,1.7585,1.7105,1.6595,1.6595,1.6595,1.6565,1.6534,1.6534,1.6479,1.6479,1.6194,1.5864,1.5365,2.4731,2.486,2.4591,2.4199,2.3934,2.4284,2.4199,2.3879,2.386,2.3897,2.3934,2.3823,2.3801,2.3802,2.3805,2.3755,2.3798,2.3987,2.3979,2.3981,2.4118,2.4243,2.4331,2.4298,2.4262,2.4262,2.3951,2.3719,2.376,2.3855,2.4007,2.397,2.3932,2.3951,2.3932,2.3894,2.3969,2.3888,2.3966,2.4025,2.4191,2.4247,2.4266,2.4371,2.4388,2.4337,2.4229,2.4136,2.3963,2.3819,2.357,2.3653,2.3801,2.4133,2.4256,2.4502,2.4808,2.5113,2.4697,2.4257,2.3916,2.353,2.2808,2.2456,2.2332,2.1915,2.1735,2.146,2.0748,2.0314,2.0348,2.0208,2.0035,2.0,1.9839,1.9726,1.9726,1.9782,1.9874,1.9909,1.9945,1.9909,1.9726,1.9726,1.9726,1.9726,1.9741,1.9705,1.9705,1.969,1.969,1.9654,1.9617,1.9654,1.9675,1.9369,1.9006,1.8574,1.8066,1.7907,1.7801,1.7271,1.6837,1.6637,1.6522,1.6522,1.6534,1.6534,1.6534,1.6534,1.6479,1.638,1.6095,1.5688,1.505,2.4079,2.4256,2.4204,2.3953,2.3689,2.4079,2.3934,2.3487,2.3205,2.3029,2.2982,2.3397,2.3581,2.3613,2.3663,2.3654,2.3653,2.3638,2.3628,2.3728,2.3783,2.3909,2.3792,2.3581,2.3648,2.3648,2.3454,2.3136,2.2944,2.3182,2.3275,2.283,2.2772,2.2805,2.2772,2.2848,2.3076,2.331,2.3356,2.3259,2.3437,2.3732,2.3798,2.3819,2.3858,2.3896,2.3735,2.3588,2.3437,2.3369,2.3318,2.362,2.4006,2.449,2.4936,2.5216,2.5681,2.5895,2.5708,2.4906,2.4488,2.3917,2.2965,2.2496,2.2479,2.2293,2.2086,2.1631,2.091,2.0499,2.0548,2.0364,2.0193,2.007,1.9854,1.9705,1.9726,1.9726,1.9726,1.9726,1.9726,1.9726,1.9726,1.9705,1.9705,1.9705,1.9705,1.9705,1.969,1.9654,1.9603,1.9493,1.9369,1.9442,1.9515,1.9281,1.8841,1.8419,1.7987,1.768,1.7366,1.6951,1.668,1.6607,1.6534,1.6534,1.6534,1.6534,1.6534,1.6479,1.6238,1.6051,1.5732,1.5276,1.4549,2.4134,2.4026,2.3779,2.3195,2.2683,2.3578,2.3285,2.2321,2.3035,2.3059,2.2617,2.251,2.2571,2.2623,2.284,2.2946,2.303,2.3153,2.345,2.3647,2.3482,2.3592,2.3574,2.3356,2.3141,2.3076,2.3076,2.3021,2.26,2.288,2.3141,2.2996,2.3021,2.3021,2.3045,2.3021,2.2972,2.3045,2.3045,2.3038,2.294,2.3135,2.3323,2.3346,2.3346,2.3346,2.3323,2.33,2.3277,2.323,2.3277,2.3761,2.4306,2.4869,2.5366,2.5904,2.6372,2.6339,2.6004,2.542,2.4927,2.4672,2.384,2.3207,2.3054,2.2733,2.2488,2.2182,2.156,2.099,2.0811,2.0292,2.0015,1.9909,1.9747,1.9726,1.9726,1.9726,1.9726,1.9726,1.9726,1.9726,1.9726,1.9705,1.9705,1.9705,1.9705,1.9705,1.969,1.9603,1.9515,1.9406,1.9207,1.9043,1.9043,1.9006,1.865,1.8302,1.7867,1.7435,1.7034,1.671,1.6522,1.6522,1.6534,1.6534,1.6534,1.6534,1.6436,1.6337,1.5908,1.5632,1.5309,1.4858,1.4179]},{"header":{"parameterUnit":"m.s-1","parameterCategory":1,"la1":31.0,"la2":29.5877,"lo1":-88.7671,"lo2":-86.6584,"dy":0.0162,"dx":0.0185,"nx":115,"ny":88,"refTime":"2023-10-06T06:00:00:Z","depth":0,"parameterNumber":3,"parameterNumberName":"V-component_of_WINDS"},"data":[0.0,0.0,0.0,0.0,0.0,0.0,0.0,0.0,0.0,0.0,0.0,0.0,0.0,0.0,0.0,0.0,0.0,0.0,0.0,0.0,0.0,0.0,0.0,0.0,0.0,0.0,0.0,0.0,0.0,0.0,0.0,0.0,0.0,0.0,0.0,0.0,0.0,0.0,0.0,0.0,0.0,0.0,0.0,0.0,0.0,0.0,0.0,0.0,0.0,0.0,0.0,0.0,0.0,0.0,0.0,0.0,0.0,0.0,0.0,0.0,0.0,0.0,0.0,0.0,0.0,0.0,0.0,0.0,0.0,0.0,0.0,0.0,0.0,0.0,0.0,0.0,0.0,0.0,0.0,0.0,0.0,0.0,0.0,0.0,0.0,0.0,0.0,0.0,0.0,0.0,0.0,0.0,0.0,0.0,0.0,0.0,0.0,0.0,0.0,0.0,0.0,0.0,0.0,0.0,0.0,0.0,0.0,0.0,0.0,0.0,0.0,0.0,0.0,0.0,0.0,0.0,0.0,0.0,0.0,0.0,0.0,0.0,0.0,0.0,0.0,0.0,0.0,0.0,0.0,0.0,0.0,0.0,0.0,0.0,0.0,0.0,0.0,0.0,0.0,0.0,0.0,0.0,0.0,0.0,0.0,0.0,0.0,0.0,0.0,0.0,0.0,0.0,0.0,0.0,0.0,0.0,0.0,0.0,0.0,0.0,0.0,0.0,0.0,0.0,0.0,0.0,0.0,0.0,0.0,0.0,0.0,0.0,0.0,0.0,0.0,0.0,0.0,0.0,0.0,0.0,0.0,0.0,0.0,0.0,0.0,0.0,0.0,0.0,0.0,0.0,0.0,0.0,0.0,0.0,0.0,0.0,0.0,0.0,0.0,0.0,0.0,0.0,0.0,0.0,0.0,0.0,0.0,0.0,0.0,0.0,0.0,0.0,0.0,0.0,0.0,0.0,0.0,0.0,0.0,0.0,0.0,0.0,0.0,0.0,0.0,0.0,0.0,0.0,0.0,0.0,0.0,0.0,0.0,0.0,0.0,0.0,0.0,0.0,0.0,0.0,0.0,0.0,0.0,0.0,0.0,0.0,0.0,0.0,0.0,0.0,0.0,0.0,0.0,0.0,0.0,0.0,0.0,0.0,0.0,0.0,0.0,0.0,0.0,0.0,0.0,0.0,0.0,0.0,0.0,0.0,0.0,0.0,0.0,0.0,0.0,0.0,0.0,0.0,0.0,0.0,0.0,0.0,0.0,0.0,0.0,0.0,0.0,0.0,0.0,0.0,0.0,0.0,0.0,0.0,0.0,0.0,0.0,0.0,0.0,0.0,0.0,0.0,0.0,0.0,0.0,0.0,0.0,0.0,0.0,0.0,0.0,0.0,0.0,0.0,0.0,0.0,0.0,0.0,0.0,0.0,0.0,0.0,0.0,0.0,0.0,0.0,0.0,0.0,0.0,0.0,0.0,0.0,0.0,0.0,0.0,0.0,0.0,0.0,0.0,0.0,0.0,0.0,0.0,0.0,0.0,0.0,0.0,0.0,0.0,0.0,0.0,0.0,0.0,0.0,0.0,0.0,0.0,0.0,0.0,0.0,0.0,0.0,0.0,0.0,0.0,0.0,0.0,0.0,0.0,0.0,0.0,0.0,0.0,0.0,0.0,0.0,0.0,0.0,0.0,0.0,0.0,0.0,0.0,0.0,0.0,0.0,0.0,0.0,0.0,0.0,0.0,0.0,0.0,0.0,0.0,0.0,0.0,0.0,0.0,0.0,0.0,0.0,0.0,0.0,0.0,0.0,0.0,0.0,0.0,0.0,0.0,0.0,0.0,0.0,0.0,0.0,0.0,0.0,0.0,0.0,0.0,0.0,0.0,0.0,0.0,0.0,0.0,0.0,0.0,0.0,0.0,0.0,0.0,0.0,0.0,0.0,0.0,0.0,0.0,0.0,0.0,0.0,0.0,0.0,0.0,0.0,0.0,0.0,0.0,0.0,0.0,0.0,0.0,0.0,0.0,0.0,0.0,0.0,0.0,0.0,0.0,0.0,0.0,0.0,0.0,0.0,0.0,0.0,0.0,0.0,0.0,0.0,0.0,0.0,0.0,0.0,0.0,0.0,0.0,0.0,0.0,0.0,0.0,0.0,0.0,0.0,0.0,0.0,0.0,0.0,0.0,0.0,0.0,0.0,0.0,0.0,0.0,0.0,0.0,0.0,0.0,0.0,0.0,0.0,0.0,0.0,0.0,0.0,0.0,0.0,0.0,0.0,0.0,0.0,0.0,0.0,0.0,0.0,0.0,0.0,0.0,0.0,0.0,0.0,0.0,0.0,0.0,0.0,0.0,0.0,0.0,0.0,0.0,0.0,0.0,0.0,0.0,0.0,0.0,0.0,0.0,0.0,0.0,0.0,0.0,0.0,0.0,0.0,0.0,0.0,0.0,0.0,0.0,0.0,0.0,0.0,0.0,0.0,0.0,0.0,0.0,0.0,0.0,0.0,0.0,0.0,0.0,0.0,0.0,0.0,0.0,0.0,0.0,0.0,0.0,0.0,0.0,0.0,0.0,0.0,0.0,0.0,0.0,0.0,0.0,0.0,0.0,0.0,0.0,0.0,0.0,0.0,0.0,0.0,0.0,0.0,0.0,0.0,0.0,0.0,0.0,0.0,0.0,0.0,0.0,0.0,0.0,0.0,0.0,0.0,0.0,0.0,0.0,0.0,0.0,0.0,0.0,0.0,0.0,0.0,0.0,0.0,0.0,0.0,0.0,0.0,0.0,0.0,0.0,0.0,0.0,0.0,0.0,0.0,0.0,0.0,0.0,0.0,0.0,0.0,0.0,0.0,0.0,0.0,0.0,0.0,0.0,0.0,0.0,0.0,0.0,0.0,0.0,0.0,0.0,0.0,0.0,0.0,0.0,0.0,0.0,0.0,0.0,0.0,0.0,0.0,0.0,0.0,0.0,0.0,0.0,0.0,0.0,0.0,0.0,0.0,0.0,0.0,0.0,0.0,0.0,0.0,0.0,0.0,0.0,0.0,0.0,0.0,0.0,0.0,0.0,0.0,0.0,0.0,0.0,0.0,0.0,0.0,0.0,0.0,0.0,0.0,0.0,0.0,0.0,0.0,0.0,0.0,0.0,0.0,0.0,0.0,0.0,0.0,0.0,0.0,0.0,0.0,0.0,0.0,0.0,0.0,0.0,0.0,0.0,0.0,0.0,0.0,0.0,0.0,0.0,0.0,0.0,0.0,0.0,0.0,0.0,0.0,0.0,0.0,0.0,0.0,0.0,0.0,0.0,0.0,0.0,0.0,0.0,0.0,0.0,0.0,0.0,0.0,0.0,0.0,0.0,0.0,0.0,0.0,0.0,0.0,0.0,0.0,0.0,0.0,0.0,0.0,0.0,0.0,0.0,0.0,0.0,0.0,0.0,0.0,0.0,0.0,0.0,0.0,0.0,0.0,0.0,0.0,0.0,0.0,0.0,0.0,0.0,0.0,0.0,0.0,0.0,0.0,0.0,0.0,0.0,0.0,0.0,0.0,0.0,0.0,0.0,0.0,0.0,0.0,0.0,0.0,0.0,0.0,0.0,0.0,0.0,0.0,0.0,0.0,0.0,0.0,0.0,0.0,0.0,0.0,0.0,0.0,0.0,0.0,0.0,0.0,0.0,0.0,0.0,0.0,0.0,0.0,0.0,0.0,0.0,0.0,0.0,0.0,0.0,0.0,0.0,0.0,0.0,0.0,0.0,0.0,0.0,0.0,0.0,0.0,0.0,0.0,0.0,0.0,0.0,0.0,0.0,0.0,0.0,0.0,0.0,0.0,0.0,0.0,0.0,0.0,0.0,0.0,0.0,0.0,0.0,0.0,0.0,0.0,0.0,0.0,0.0,0.0,0.0,0.0,0.0,0.0,0.0,0.0,0.0,0.0,0.0,0.0,0.0,0.0,0.0,0.0,0.0,0.0,0.0,0.0,0.0,0.0,0.0,0.0,0.0,0.0,0.0,0.0,0.0,0.0,0.0,0.0,0.0,0.0,0.0,0.0,0.0,0.0,0.0,0.0,0.0,0.0,0.0,0.0,0.0,0.0,0.0,0.0,0.0,0.0,0.0,0.0,0.0,0.0,0.0,0.0,0.0,0.0,0.0,0.0,0.0,0.0,0.0,0.0,0.0,0.0,0.0,0.0,0.0,0.0,0.0,0.0,0.0,0.0,0.0,0.0,0.0,0.0,0.0,0.0,0.0,0.0,0.0,0.0,0.0,0.0,0.0,0.0,-1.7045,0.0,0.0,0.0,0.0,0.0,0.0,0.0,0.0,0.0,0.0,0.0,0.0,0.0,0.0,0.0,0.0,0.0,0.0,0.0,0.0,0.0,0.0,0.0,0.0,0.0,0.0,0.0,0.0,0.0,0.0,0.0,0.0,0.0,0.0,0.0,0.0,0.0,0.0,0.0,0.0,0.0,0.0,0.0,0.0,0.0,0.0,0.0,0.0,0.0,0.0,0.0,0.0,0.0,0.0,0.0,0.0,0.0,0.0,0.0,0.0,0.0,0.0,0.0,0.0,0.0,0.0,0.0,0.0,0.0,0.0,0.0,0.0,0.0,0.0,0.0,0.0,0.0,0.0,0.0,0.0,0.0,0.0,0.0,0.0,0.0,0.0,0.0,0.0,0.0,0.0,0.0,0.0,0.0,0.0,0.0,0.0,0.0,0.0,0.0,0.0,0.0,0.0,0.0,0.0,0.0,0.0,0.0,0.0,0.0,0.0,-1.5575,-1.6036,-1.569,-1.5979,-1.6933,0.0,0.0,0.0,0.0,0.0,0.0,0.0,0.0,0.0,0.0,0.0,0.0,0.0,0.0,0.0,0.0,0.0,0.0,0.0,0.0,0.0,0.0,0.0,0.0,0.0,0.0,0.0,0.0,0.0,0.0,0.0,0.0,0.0,0.0,0.0,0.0,0.0,0.0,0.0,0.0,0.0,0.0,0.0,0.0,0.0,0.0,0.0,0.0,0.0,0.0,0.0,0.0,0.0,0.0,0.0,0.0,0.0,0.0,0.0,0.0,0.0,0.0,0.0,0.0,0.0,0.0,0.0,0.0,0.0,0.0,0.0,0.0,0.0,0.0,0.0,0.0,0.0,0.0,0.0,0.0,0.0,0.0,0.0,0.0,0.0,0.0,0.0,0.0,0.0,0.0,0.0,0.0,0.0,0.0,0.0,0.0,0.0,0.0,0.0,0.0,0.0,0.0,0.0,0.0,0.0,0.0,0.0,0.0,0.0,0.0,0.0,0.0,-1.5108,-1.5418,-1.6456,0.0,0.0,0.0,0.0,0.0,0.0,0.0,0.0,0.0,0.0,0.0,0.0,0.0,0.0,0.0,0.0,0.0,0.0,0.0,0.0,0.0,0.0,0.0,0.0,0.0,0.0,0.0,0.0,0.0,0.0,0.0,0.0,0.0,0.0,0.0,0.0,0.0,0.0,0.0,0.0,0.0,0.0,0.0,0.0,0.0,0.0,0.0,0.0,0.0,0.0,0.0,0.0,0.0,0.0,0.0,0.0,0.0,0.0,0.0,0.0,0.0,0.0,0.0,0.0,0.0,0.0,0.0,0.0,0.0,0.0,0.0,0.0,0.0,0.0,0.0,0.0,0.0,0.0,0.0,0.0,0.0,0.0,0.0,0.0,0.0,0.0,0.0,0.0,0.0,0.0,0.0,0.0,0.0,0.0,0.0,0.0,0.0,0.0,0.0,0.0,0.0,0.0,0.0,0.0,0.0,0.0,0.0,0.0,0.0,0.0,-1.4369,-1.4942,-1.4419,0.0,-1.5004,0.0,0.0,0.0,0.0,0.0,0.0,0.0,0.0,0.0,0.0,0.0,0.0,0.0,0.0,0.0,0.0,0.0,0.0,0.0,0.0,0.0,0.0,0.0,0.0,0.0,0.0,0.0,0.0,0.0,0.0,0.0,0.0,0.0,0.0,0.0,0.0,0.0,0.0,0.0,0.0,0.0,0.0,0.0,0.0,0.0,0.0,0.0,0.0,0.0,0.0,0.0,0.0,0.0,0.0,0.0,0.0,0.0,0.0,0.0,0.0,0.0,0.0,0.0,0.0,0.0,0.0,0.0,0.0,0.0,0.0,0.0,0.0,0.0,0.0,0.0,0.0,0.0,0.0,0.0,0.0,0.0,0.0,0.0,0.0,0.0,0.0,0.0,0.0,0.0,0.0,0.0,0.0,0.0,0.0,0.0,0.0,0.0,0.0,0.0,0.0,0.0,0.0,0.0,0.0,0.0,0.0,0.0,0.0,0.0,0.0,-1.3769,-1.4052,-1.4469,-1.4888,0.0,0.0,0.0,0.0,0.0,0.0,0.0,0.0,0.0,0.0,0.0,0.0,0.0,0.0,0.0,0.0,0.0,0.0,0.0,0.0,0.0,0.0,0.0,0.0,0.0,0.0,0.0,0.0,0.0,0.0,0.0,0.0,0.0,0.0,0.0,0.0,0.0,0.0,0.0,0.0,0.0,0.0,0.0,0.0,0.0,0.0,0.0,0.0,0.0,0.0,0.0,0.0,0.0,0.0,0.0,0.0,0.0,0.0,0.0,0.0,0.0,0.0,0.0,0.0,0.0,0.0,0.0,0.0,0.0,0.0,0.0,0.0,0.0,0.0,0.0,0.0,0.0,0.0,0.0,0.0,0.0,0.0,0.0,0.0,0.0,0.0,0.0,0.0,0.0,0.0,0.0,0.0,0.0,0.0,0.0,0.0,0.0,0.0,0.0,0.0,0.0,0.0,0.0,0.0,0.0,0.0,0.0,0.0,0.0,0.0,-1.3346,-1.3294,-1.3571,-1.4469,-1.5157,-1.5505,0.0,0.0,0.0,0.0,0.0,0.0,0.0,0.0,0.0,0.0,0.0,0.0,0.0,0.0,0.0,0.0,0.0,0.0,0.0,0.0,0.0,0.0,0.0,0.0,0.0,0.0,0.0,0.0,0.0,0.0,0.0,0.0,0.0,0.0,0.0,0.0,0.0,0.0,0.0,0.0,0.0,0.0,0.0,0.0,0.0,0.0,0.0,0.0,0.0,0.0,0.0,0.0,0.0,0.0,0.0,0.0,0.0,0.0,0.0,0.0,0.0,0.0,0.0,0.0,0.0,0.0,0.0,0.0,0.0,0.0,0.0,0.0,0.0,0.0,0.0,0.0,0.0,0.0,0.0,0.0,0.0,0.0,0.0,0.0,0.0,0.0,0.0,0.0,0.0,0.0,0.0,0.0,0.0,0.0,0.0,0.0,0.0,0.0,0.0,0.0,0.0,0.0,0.0,0.0,0.0,0.0,0.0,0.0,-1.3025,-1.2867,-1.3042,-1.3502,-1.4079,-1.4646,0.0,0.0,0.0,0.0,0.0,0.0,0.0,0.0,0.0,0.0,0.0,0.0,0.0,0.0,0.0,0.0,0.0,0.0,0.0,0.0,0.0,0.0,0.0,0.0,0.0,0.0,0.0,0.0,0.0,0.0,0.0,0.0,0.0,0.0,0.0,0.0,0.0,0.0,0.0,0.0,0.0,0.0,0.0,0.0,0.0,0.0,0.0,0.0,0.0,0.0,0.0,0.0,0.0,0.0,0.0,0.0,0.0,0.0,0.0,0.0,0.0,0.0,0.0,0.0,0.0,0.0,0.0,0.0,0.0,0.0,0.0,0.0,0.0,0.0,0.0,0.0,0.0,0.0,0.0,0.0,0.0,0.0,0.0,0.0,0.0,0.0,0.0,0.0,0.0,0.0,0.0,0.0,0.0,0.0,0.0,0.0,0.0,0.0,0.0,0.0,0.0,0.0,0.0,0.0,0.0,0.0,0.0,0.0,0.0,-1.2736,-1.2428,-1.2536,-1.3009,-1.3321,-1.42,0.0,0.0,0.0,0.0,0.0,0.0,0.0,0.0,0.0,0.0,0.0,0.0,0.0,0.0,0.0,0.0,0.0,0.0,0.0,0.0,0.0,0.0,0.0,0.0,0.0,0.0,0.0,0.0,0.0,0.0,0.0,0.0,0.0,0.0,0.0,0.0,0.0,0.0,0.0,0.0,0.0,0.0,0.0,0.0,0.0,0.0,0.0,0.0,0.0,0.0,0.0,0.0,0.0,0.0,0.0,0.0,0.0,0.0,0.0,0.0,0.0,0.0,0.0,0.0,0.0,0.0,0.0,0.0,0.0,0.0,0.0,0.0,0.0,0.0,0.0,0.0,0.0,0.0,0.0,0.0,0.0,0.0,0.0,0.0,0.0,0.0,0.0,0.0,0.0,0.0,0.0,0.0,0.0,0.0,0.0,0.0,0.0,0.0,0.0,0.0,0.0,0.0,0.0,0.0,0.0,0.0,0.0,0.0,0.0,-1.2375,0.0,-1.1965,-1.2589,-1.2895,-1.3837,0.0,0.0,0.0,0.0,0.0,0.0,0.0,0.0,0.0,0.0,0.0,0.0,0.0,0.0,0.0,0.0,0.0,0.0,0.0,0.0,0.0,0.0,0.0,0.0,0.0,0.0,0.0,0.0,0.0,0.0,0.0,0.0,0.0,0.0,0.0,0.0,0.0,0.0,0.0,0.0,0.0,0.0,0.0,0.0,0.0,0.0,0.0,0.0,0.0,0.0,0.0,0.0,0.0,0.0,0.0,0.0,0.0,0.0,0.0,0.0,0.0,0.0,0.0,0.0,0.0,0.0,0.0,0.0,0.0,0.0,0.0,0.0,0.0,0.0,0.0,0.0,0.0,0.0,0.0,0.0,0.0,0.0,0.0,0.0,0.0,0.0,0.0,0.0,0.0,0.0,0.0,0.0,0.0,0.0,0.0,0.0,0.0,0.0,0.0,0.0,0.0,0.0,0.0,0.0,0.0,0.0,0.0,0.0,-1.2428,-1.1802,-1.1281,-1.1399,-1.2243,-1.2712,-1.3606,0.0,0.0,0.0,0.0,0.0,0.0,0.0,0.0,0.0,0.0,0.0,0.0,0.0,0.0,0.0,0.0,0.0,0.0,0.0,0.0,0.0,0.0,0.0,0.0,0.0,0.0,0.0,0.0,0.0,0.0,0.0,0.0,0.0,0.0,0.0,0.0,0.0,0.0,0.0,0.0,0.0,0.0,0.0,0.0,0.0,0.0,0.0,0.0,0.0,0.0,0.0,0.0,0.0,0.0,0.0,0.0,0.0,0.0,0.0,0.0,0.0,0.0,0.0,0.0,0.0,0.0,0.0,0.0,0.0,0.0,0.0,0.0,0.0,0.0,0.0,0.0,0.0,0.0,0.0,0.0,0.0,0.0,0.0,0.0,0.0,0.0,0.0,0.0,0.0,0.0,0.0,0.0,0.0,0.0,0.0,0.0,0.0,0.0,0.0,0.0,0.0,0.0,0.0,0.0,0.0,0.0,0.0,0.0,0.0,-1.0408,-1.0338,-1.071,-1.1586,-1.2081,-1.3105,0.0,0.0,0.0,0.0,0.0,0.0,0.0,0.0,0.0,0.0,0.0,0.0,0.0,0.0,0.0,0.0,0.0,0.0,0.0,0.0,0.0,0.0,0.0,0.0,0.0,0.0,0.0,0.0,0.0,0.0,0.0,0.0,0.0,0.0,0.0,0.0,0.0,0.0,0.0,0.0,0.0,0.0,0.0,0.0,0.0,0.0,0.0,0.0,0.0,0.0,0.0,0.0,0.0,0.0,0.0,0.0,0.0,0.0,0.0,0.0,0.0,0.0,0.0,0.0,0.0,0.0,0.0,0.0,0.0,0.0,0.0,0.0,0.0,0.0,0.0,0.0,0.0,0.0,0.0,0.0,0.0,0.0,0.0,0.0,0.0,0.0,0.0,0.0,0.0,0.0,0.0,0.0,0.0,0.0,0.0,0.0,0.0,0.0,0.0,0.0,0.0,0.0,0.0,0.0,0.0,0.0,0.0,0.0,0.0,-0.9379,-0.9597,-1.0268,-1.1344,-1.1764,-1.2801,-1.4451,0.0,0.0,0.0,0.0,0.0,0.0,0.0,0.0,0.0,0.0,0.0,0.0,0.0,0.0,0.0,0.0,0.0,0.0,0.0,0.0,0.0,0.0,0.0,0.0,0.0,0.0,0.0,0.0,0.0,0.0,0.0,0.0,0.0,0.0,0.0,0.0,0.0,0.0,0.0,0.0,0.0,0.0,0.0,0.0,0.0,0.0,0.0,0.0,0.0,0.0,0.0,0.0,0.0,0.0,0.0,0.0,0.0,0.0,0.0,0.0,0.0,0.0,0.0,0.0,0.0,0.0,0.0,0.0,0.0,0.0,0.0,0.0,0.0,0.0,0.0,0.0,0.0,0.0,0.0,0.0,0.0,0.0,0.0,0.0,0.0,0.0,0.0,0.0,0.0,0.0,0.0,0.0,0.0,0.0,0.0,0.0,0.0,0.0,0.0,0.0,0.0,0.0,0.0,0.0,0.0,0.0,0.0,0.0,-0.8713,-0.9144,-1.0034,-1.1421,-1.1819,-1.2541,0.0,0.0,0.0,0.0,0.0,0.0,0.0,0.0,0.0,0.0,0.0,0.0,0.0,0.0,0.0,0.0,0.0,0.0,0.0,0.0,0.0,0.0,0.0,0.0,0.0,0.0,0.0,0.0,0.0,0.0,0.0,0.0,0.0,0.0,0.0,0.0,0.0,0.0,0.0,0.0,0.0,0.0,0.0,0.0,0.0,0.0,0.0,0.0,0.0,0.0,0.0,0.0,0.0,0.0,0.0,0.0,0.0,0.0,0.0,0.0,0.0,0.0,0.0,0.0,0.0,0.0,0.0,0.0,0.0,0.0,0.0,0.0,0.0,0.0,0.0,0.0,0.0,0.0,0.0,0.0,0.0,0.0,0.0,0.0,0.0,0.0,0.0,0.0,0.0,0.0,0.0,0.0,0.0,0.0,0.0,0.0,0.0,0.0,0.0,0.0,0.0,0.0,0.0,0.0,0.0,0.0,0.0,0.0,0.0,-0.9082,-0.9586,-1.0174,-1.0982,-1.1372,-1.2079,0.0,0.0,0.0,0.0,0.0,0.0,0.0,0.0,0.0,0.0,0.0,0.0,0.0,0.0,0.0,0.0,0.0,0.0,0.0,0.0,0.0,0.0,0.0,0.0,0.0,0.0,0.0,0.0,0.0,0.0,0.0,0.0,0.0,0.0,0.0,0.0,0.0,0.0,0.0,0.0,0.0,0.0,0.0,0.0,0.0,0.0,0.0,0.0,0.0,0.0,0.0,0.0,0.0,0.0,0.0,0.0,0.0,0.0,0.0,0.0,0.0,0.0,0.0,0.0,0.0,0.0,0.0,0.0,0.0,0.0,0.0,0.0,0.0,0.0,0.0,0.0,0.0,0.0,0.0,0.0,0.0,0.0,0.0,0.0,0.0,0.0,0.0,0.0,0.0,0.0,0.0,0.0,0.0,0.0,0.0,0.0,0.0,0.0,0.0,0.0,0.0,0.0,0.0,0.0,0.0,0.0,0.0,0.0,-0.8794,-0.8969,-0.9781,-1.0428,-1.0681,-1.1238,-1.1835,0.0,0.0,0.0,0.0,0.0,0.0,0.0,0.0,0.0,0.0,0.0,0.0,0.0,0.0,0.0,0.0,0.0,0.0,0.0,0.0,0.0,0.0,0.0,0.0,0.0,0.0,0.0,0.0,0.0,0.0,0.0,0.0,0.0,0.0,0.0,0.0,0.0,0.0,0.0,0.0,0.0,0.0,0.0,0.0,0.0,0.0,0.0,0.0,0.0,0.0,0.0,0.0,0.0,0.0,0.0,0.0,0.0,0.0,0.0,0.0,0.0,0.0,0.0,0.0,0.0,0.0,0.0,0.0,0.0,0.0,0.0,0.0,0.0,0.0,0.0,0.0,0.0,0.0,0.0,0.0,0.0,0.0,0.0,0.0,0.0,0.0,0.0,0.0,0.0,0.0,0.0,0.0,0.0,0.0,0.0,0.0,0.0,0.0,0.0,0.0,0.0,0.0,0.0,0.0,0.0,0.0,0.0,0.0,-0.8757,-0.8717,-0.9952,-1.0618,-1.0611,-1.1141,-1.1721,0.0,0.0,0.0,0.0,0.0,0.0,0.0,0.0,0.0,0.0,0.0,0.0,0.0,0.0,0.0,0.0,0.0,0.0,0.0,0.0,0.0,0.0,0.0,0.0,0.0,0.0,0.0,0.0,0.0,0.0,0.0,0.0,0.0,0.0,0.0,0.0,0.0,0.0,0.0,0.0,0.0,0.0,0.0,0.0,0.0,0.0,0.0,0.0,0.0,0.0,0.0,0.0,0.0,0.0,0.0,0.0,0.0,0.0,0.0,0.0,0.0,0.0,0.0,0.0,0.0,0.0,0.0,0.0,0.0,0.0,0.0,0.0,0.0,0.0,0.0,0.0,0.0,0.0,0.0,0.0,0.0,0.0,0.0,0.0,0.0,0.0,0.0,0.0,0.0,0.0,0.0,0.0,0.0,0.0,0.0,0.0,0.0,0.0,0.0,0.0,0.0,0.0,0.0,0.0,0.0,0.0,0.0,0.0,-0.902,-0.9465,-1.0243,-1.0618,-1.0618,-1.0878,-1.1207,0.0,0.0,0.0,0.0,0.0,0.0,0.0,0.0,0.0,0.0,0.0,0.0,0.0,0.0,0.0,0.0,0.0,0.0,0.0,0.0,0.0,0.0,0.0,0.0,0.0,0.0,0.0,0.0,0.0,0.0,0.0,0.0,0.0,0.0,0.0,0.0,0.0,0.0,0.0,0.0,0.0,0.0,0.0,0.0,0.0,0.0,0.0,0.0,-1.402,0.0,0.0,0.0,0.0,0.0,0.0,0.0,0.0,0.0,0.0,0.0,0.0,0.0,0.0,0.0,0.0,0.0,0.0,0.0,0.0,0.0,0.0,0.0,0.0,0.0,0.0,0.0,0.0,0.0,0.0,0.0,0.0,0.0,0.0,0.0,0.0,0.0,0.0,0.0,0.0,0.0,0.0,0.0,0.0,0.0,0.0,0.0,0.0,0.0,0.0,0.0,0.0,0.0,0.0,0.0,0.0,0.0,0.0,0.0,-0.9114,-0.9627,-1.0276,-1.0618,-1.0604,-1.113,-1.1461,0.0,0.0,0.0,0.0,0.0,0.0,0.0,0.0,0.0,0.0,0.0,0.0,0.0,0.0,0.0,0.0,0.0,0.0,0.0,0.0,0.0,0.0,0.0,0.0,0.0,0.0,0.0,0.0,0.0,0.0,0.0,0.0,0.0,0.0,0.0,0.0,0.0,0.0,0.0,0.0,0.0,0.0,0.0,0.0,0.0,0.0,0.0,0.0,0.0,0.0,0.0,0.0,0.0,0.0,0.0,0.0,0.0,0.0,0.0,0.0,0.0,0.0,0.0,0.0,0.0,0.0,0.0,0.0,0.0,0.0,0.0,0.0,0.0,0.0,0.0,0.0,0.0,0.0,0.0,0.0,0.0,0.0,0.0,0.0,0.0,0.0,0.0,0.0,0.0,0.0,0.0,0.0,0.0,0.0,0.0,0.0,0.0,0.0,0.0,0.0,0.0,0.0,0.0,0.0,0.0,0.0,0.0,-0.8537,-0.9094,-0.9697,-1.0302,-1.0681,-1.0807,-1.1647,-1.2099,-1.2134,0.0,0.0,0.0,0.0,0.0,0.0,0.0,0.0,0.0,0.0,0.0,0.0,0.0,0.0,0.0,0.0,0.0,0.0,0.0,0.0,0.0,0.0,0.0,0.0,0.0,0.0,0.0,0.0,0.0,0.0,0.0,0.0,0.0,0.0,0.0,0.0,0.0,0.0,-0.7202,-0.714,0.0,0.0,0.0,0.0,0.0,0.0,0.0,0.0,-1.2813,0.0,0.0,0.0,0.0,0.0,0.0,0.0,0.0,0.0,0.0,0.0,0.0,0.0,0.0,0.0,0.0,0.0,0.0,0.0,0.0,0.0,0.0,0.0,0.0,0.0,0.0,0.0,0.0,0.0,0.0,0.0,0.0,0.0,0.0,0.0,0.0,0.0,0.0,0.0,0.0,0.0,0.0,0.0,0.0,0.0,0.0,0.0,0.0,0.0,0.0,0.0,0.0,0.0,0.0,0.0,0.0,-0.8566,-0.8673,-0.9296,-1.0418,-1.0541,-1.0926,-1.1586,-1.215,-1.2676,-1.3211,0.0,0.0,0.0,0.0,0.0,0.0,0.0,0.0,0.0,0.0,0.0,0.0,0.0,0.0,0.0,0.0,0.0,0.0,0.0,0.0,0.0,0.0,0.0,0.0,0.0,0.0,0.0,0.0,0.0,0.0,0.0,0.0,0.0,0.0,0.0,0.0,0.0,0.0,0.0,-0.5593,-0.5619,0.0,0.0,0.0,0.0,0.0,0.0,0.0,0.0,-1.3157,0.0,0.0,0.0,0.0,0.0,0.0,0.0,0.0,0.0,0.0,0.0,0.0,0.0,0.0,0.0,0.0,0.0,0.0,0.0,0.0,0.0,0.0,0.0,0.0,0.0,0.0,0.0,0.0,0.0,0.0,0.0,0.0,0.0,0.0,0.0,0.0,0.0,0.0,0.0,0.0,0.0,0.0,0.0,0.0,0.0,0.0,0.0,0.0,0.0,0.0,0.0,0.0,0.0,0.0,0.0,-0.868,-0.9074,-0.9706,-1.0548,-1.0618,-1.0982,-1.1764,-1.2205,-1.2704,0.0,0.0,0.0,0.0,0.0,0.0,0.0,0.0,0.0,0.0,0.0,0.0,0.0,0.0,0.0,0.0,0.0,0.0,0.0,0.0,0.0,0.0,0.0,0.0,0.0,0.0,0.0,0.0,0.0,0.0,0.0,0.0,0.0,0.0,0.0,0.0,0.0,0.0,0.0,0.0,-0.482,-0.4938,-0.5213,0.0,0.0,0.0,0.0,0.0,0.0,-1.1022,-1.1844,0.0,0.0,0.0,0.0,0.0,0.0,0.0,0.0,0.0,0.0,0.0,0.0,0.0,0.0,0.0,0.0,0.0,0.0,0.0,0.0,0.0,0.0,0.0,0.0,0.0,0.0,0.0,0.0,0.0,0.0,0.0,0.0,0.0,0.0,0.0,0.0,0.0,0.0,0.0,0.0,0.0,0.0,0.0,0.0,0.0,0.0,0.0,0.0,0.0,0.0,0.0,0.0,0.0,0.0,0.0,-0.8661,-0.9384,-1.0034,-1.0561,-1.0618,-1.1045,-1.202,-1.2143,-1.261,0.0,0.0,0.0,0.0,0.0,0.0,0.0,0.0,0.0,0.0,0.0,0.0,0.0,0.0,0.0,0.0,0.0,0.0,0.0,0.0,0.0,0.0,0.0,0.0,0.0,0.0,0.0,0.0,0.0,0.0,0.0,0.0,0.0,0.0,0.0,0.0,0.0,0.0,0.0,0.0,0.0,-0.4242,-0.4238,-0.5038,0.0,0.0,0.0,0.0,-0.8707,-0.991,0.0,0.0,0.0,0.0,0.0,0.0,0.0,0.0,0.0,0.0,0.0,0.0,0.0,0.0,0.0,0.0,0.0,0.0,0.0,0.0,0.0,0.0,0.0,0.0,0.0,0.0,0.0,0.0,0.0,0.0,0.0,0.0,0.0,0.0,0.0,0.0,0.0,0.0,0.0,0.0,0.0,0.0,0.0,0.0,0.0,0.0,0.0,0.0,0.0,0.0,0.0,0.0,0.0,0.0,0.0,0.0,-0.8667,-0.9256,-0.9849,-1.0555,-1.0618,-1.1303,-1.2757,-1.2228,-1.2567,0.0,0.0,0.0,0.0,0.0,0.0,0.0,0.0,0.0,0.0,0.0,0.0,0.0,0.0,0.0,0.0,0.0,0.0,0.0,0.0,0.0,0.0,0.0,0.0,0.0,0.0,0.0,0.0,0.0,0.0,0.0,0.0,0.0,0.0,0.0,0.0,0.0,0.0,0.0,0.0,0.0,-0.3269,-0.4088,-0.4332,-0.4667,0.0,0.0,-0.7871,-0.7938,-0.9805,0.0,0.0,0.0,0.0,0.0,0.0,0.0,0.0,0.0,0.0,0.0,0.0,0.0,0.0,0.0,0.0,0.0,0.0,0.0,0.0,0.0,0.0,0.0,0.0,0.0,0.0,0.0,0.0,0.0,0.0,0.0,0.0,0.0,0.0,0.0,0.0,0.0,0.0,0.0,0.0,0.0,0.0,0.0,0.0,0.0,0.0,0.0,0.0,0.0,0.0,0.0,0.0,0.0,0.0,0.0,-0.835,-0.8613,-0.9588,-1.0295,-1.0555,-1.0618,-1.1358,-1.2948,-1.2166,-1.2429,0.0,0.0,0.0,0.0,0.0,0.0,0.0,0.0,0.0,0.0,0.0,0.0,0.0,0.0,0.0,0.0,0.0,0.0,0.0,0.0,0.0,0.0,0.0,0.0,0.0,0.0,0.0,0.0,0.0,0.0,0.0,0.0,0.0,0.0,0.0,0.0,0.0,0.0,0.0,0.0,0.0,0.0,-0.3812,-0.4027,0.0,0.0,0.0,-0.6596,-0.7205,0.0,0.0,0.0,0.0,0.0,0.0,0.0,0.0,0.0,0.0,0.0,0.0,0.0,0.0,0.0,0.0,0.0,0.0,0.0,0.0,0.0,0.0,0.0,0.0,0.0,0.0,0.0,0.0,0.0,0.0,0.0,0.0,0.0,0.0,0.0,0.0,0.0,0.0,0.0,0.0,0.0,0.0,0.0,0.0,0.0,0.0,0.0,0.0,0.0,0.0,0.0,0.0,0.0,0.0,0.0,0.0,0.0,-0.8531,-0.9875,-1.0618,-1.0624,-1.0807,-1.1545,-1.2948,-1.2405,0.0,0.0,0.0,0.0,0.0,0.0,0.0,0.0,0.0,0.0,0.0,0.0,0.0,0.0,0.0,0.0,0.0,0.0,0.0,0.0,0.0,0.0,0.0,0.0,0.0,0.0,0.0,-0.7344,0.0,0.0,0.0,0.0,0.0,0.0,0.0,0.0,0.0,0.0,0.0,0.0,0.0,0.0,-0.3313,-0.3313,-0.3684,-0.4192,0.0,0.0,-0.5696,-0.6788,-0.8001,-0.8792,0.0,0.0,0.0,0.0,0.0,0.0,0.0,0.0,0.0,0.0,0.0,0.0,0.0,0.0,0.0,0.0,0.0,0.0,0.0,0.0,0.0,0.0,0.0,0.0,0.0,0.0,0.0,0.0,0.0,0.0,0.0,0.0,0.0,0.0,0.0,0.0,0.0,0.0,0.0,0.0,0.0,0.0,0.0,0.0,0.0,0.0,0.0,0.0,0.0,0.0,0.0,0.0,0.0,0.0,0.0,-0.8477,-0.9844,-1.0618,-1.0624,-1.1351,-1.2135,-1.2948,-1.326,-1.3462,0.0,0.0,0.0,0.0,0.0,0.0,0.0,0.0,0.0,0.0,0.0,0.0,0.0,0.0,0.0,0.0,0.0,0.0,0.0,0.0,0.0,0.0,0.0,0.0,0.0,0.0,0.0,0.0,0.0,0.0,0.0,0.0,0.0,0.0,0.0,0.0,0.0,0.0,0.0,0.0,0.0,-0.2572,-0.2572,-0.3313,-0.4036,0.0,0.0,-0.5601,-0.7045,-0.8348,-0.9131,-0.8859,0.0,0.0,0.0,0.0,0.0,0.0,0.0,0.0,0.0,0.0,0.0,0.0,0.0,0.0,0.0,0.0,0.0,0.0,0.0,0.0,0.0,0.0,0.0,0.0,0.0,0.0,0.0,0.0,0.0,0.0,0.0,0.0,0.0,0.0,0.0,0.0,0.0,0.0,0.0,0.0,0.0,0.0,0.0,0.0,0.0,0.0,0.0,0.0,0.0,0.0,0.0,0.0,0.0,-0.8242,-0.8315,-0.9831,-1.0618,-1.0624,-1.1406,-1.2197,-1.3,-1.3321,-1.3512,0.0,0.0,0.0,0.0,0.0,0.0,0.0,0.0,0.0,0.0,0.0,0.0,0.0,0.0,0.0,0.0,0.0,0.0,0.0,0.0,0.0,0.0,0.0,0.0,0.0,0.0,0.0,0.0,-0.6128,-0.5408,-0.4143,0.0,0.0,0.0,0.0,0.0,0.0,0.0,0.0,0.0,0.0,-0.1728,-0.2012,-0.2904,0.0,0.0,-0.4448,-0.5271,-0.6323,-0.7173,-0.767,-0.765,-0.7684,0.0,0.0,0.0,0.0,0.0,0.0,0.0,0.0,0.0,0.0,0.0,0.0,0.0,0.0,0.0,0.0,0.0,0.0,0.0,0.0,0.0,0.0,0.0,0.0,0.0,0.0,0.0,0.0,0.0,0.0,0.0,0.0,0.0,0.0,0.0,0.0,0.0,0.0,0.0,0.0,0.0,0.0,0.0,0.0,0.0,0.0,0.0,0.0,0.0,0.0,0.0,0.0,-0.8143,-0.8204,-0.9787,-1.0618,-1.0618,-1.1593,-1.2451,-1.3009,-1.3674,-1.4023,0.0,0.0,0.0,0.0,0.0,0.0,0.0,0.0,0.0,0.0,0.0,0.0,0.0,0.0,0.0,0.0,0.0,0.0,0.0,0.0,0.0,0.0,0.0,0.0,0.0,0.0,0.0,0.0,-0.5151,-0.4296,-0.3319,0.0,0.0,0.0,0.0,0.0,0.0,0.0,0.0,0.0,0.0,-0.1062,-0.1202,-0.228,-0.3105,-0.3103,-0.3648,-0.4476,-0.5502,-0.5961,-0.6332,-0.6599,0.0,0.0,0.0,0.0,0.0,0.0,0.0,0.0,0.0,0.0,0.0,0.0,0.0,0.0,0.0,0.0,0.0,0.0,0.0,0.0,0.0,0.0,0.0,0.0,0.0,0.0,0.0,0.0,0.0,0.0,-1.5468,0.0,0.0,0.0,0.0,0.0,0.0,0.0,0.0,0.0,0.0,0.0,0.0,0.0,0.0,0.0,0.0,0.0,0.0,0.0,0.0,0.0,0.0,-0.8032,-0.821,-0.9822,-1.0624,-1.0688,-1.2158,-1.3009,-1.3061,-1.451,-1.5032,-1.442,0.0,0.0,0.0,0.0,0.0,0.0,0.0,0.0,0.0,0.0,0.0,0.0,0.0,0.0,0.0,0.0,0.0,0.0,0.0,0.0,0.0,0.0,0.0,0.0,0.0,0.0,-0.394,-0.3225,-0.2872,0.0,0.0,0.0,0.0,0.0,0.0,0.0,0.0,0.0,0.0,0.0433,-0.0507,-0.0123,-0.129,-0.2277,-0.2519,-0.2639,-0.3264,-0.4743,-0.5012,-0.5317,0.0,0.0,0.0,0.0,0.0,0.0,0.0,0.0,0.0,0.0,0.0,0.0,0.0,0.0,0.0,0.0,0.0,0.0,0.0,0.0,0.0,0.0,0.0,0.0,0.0,0.0,0.0,-1.737,-1.7543,0.0,0.0,0.0,0.0,0.0,0.0,0.0,0.0,0.0,0.0,0.0,-1.2639,-1.2639,0.0,0.0,0.0,0.0,0.0,0.0,0.0,0.0,0.0,0.0,0.0,0.0,-0.7833,-0.7968,-1.0214,-1.1406,-1.1406,-1.2931,-1.3795,-1.3786,-1.4805,-1.5157,-1.4561,0.0,0.0,0.0,0.0,0.0,0.0,0.0,0.0,0.0,0.0,0.0,0.0,0.0,0.0,0.0,0.0,0.0,0.0,0.0,0.0,0.0,0.0,0.0,0.0,0.0,-0.3793,0.0,0.0,0.0,0.0,0.0,0.0,0.0,0.0,0.0,0.0,0.0,0.1718,0.1572,0.1333,0.1154,0.092,-0.0061,-0.1049,0.0,0.0,0.0,0.0,0.0,0.0,0.0,0.0,0.0,0.0,0.0,0.0,0.0,0.0,-0.7202,-0.5742,-0.5579,-0.5638,-0.5396,0.0,0.0,0.0,0.0,0.0,0.0,0.0,0.0,0.0,0.0,0.0,0.0,0.0,0.0,0.0,0.0,-1.7978,0.0,0.0,0.0,0.0,0.0,0.0,0.0,0.0,-1.3425,-1.3468,-1.3415,-1.3356,-1.327,0.0,-1.2344,-1.0811,0.0,0.0,0.0,0.0,0.0,0.0,0.0,0.0,-0.7887,-0.7844,-1.0384,-1.1834,-1.1896,-1.3356,-1.4213,-1.4213,-1.4991,-1.5341,-1.5226,-1.5053,-1.4881,0.0,0.0,0.0,0.0,0.0,0.0,0.0,0.0,0.0,0.0,0.0,0.0,0.0,0.0,0.0,0.0,0.0,0.0,0.0,0.0,0.0,0.0,0.0,-0.335,0.0,0.0,0.0,0.0,0.0,0.0,0.0,0.0,0.0,0.1527,0.1779,0.1866,0.1474,0.1588,0.176,0.1696,0.0,0.0,0.0,0.0,0.0,0.0,0.0,-0.3447,-0.4107,-0.4371,-0.5029,-0.6395,-0.7739,-0.8526,-0.8187,0.0,0.0,-0.6156,-0.578,-0.5634,-0.5443,-0.517,-0.4915,-0.4779,-0.371,-0.2691,0.0,0.0,0.0,0.0,0.0,0.0,0.0,0.0,-1.9183,-1.825,0.0,-1.7877,0.0,0.0,0.0,0.0,0.0,-1.4895,0.0,0.0,-1.4578,-1.484,-1.391,-1.3729,-1.366,-1.3575,-1.2476,-1.1599,-1.115,-1.0931,0.0,0.0,0.0,0.0,0.0,0.0,-0.831,-0.7855,-1.0458,-1.1834,-1.1896,-1.3416,-1.4213,-1.4264,-1.4991,-1.569,-1.6415,-1.6208,-1.6396,-1.7074,-1.578,0.0,0.0,0.0,0.0,0.0,0.0,0.0,0.0,0.0,0.0,0.0,0.0,0.0,0.0,0.0,0.0,0.0,0.0,0.0,0.0,-0.489,0.0,0.0,0.0,0.0,0.0,0.0,0.0,0.0,0.0,0.0,0.2181,0.1872,0.1599,0.1659,0.0,0.0,0.0,0.0,0.0,0.0851,-0.0112,-0.1072,-0.1413,-0.2079,-0.2789,-0.3542,0.0,0.0,-0.5719,-0.6592,-0.692,-0.5875,-0.6917,-0.7638,-0.7149,-0.6219,-0.5421,-0.4877,-0.4647,-0.4447,-0.4266,-0.3535,-0.2745,-1.6128,0.0,0.0,0.0,0.0,-1.8189,-1.8862,-1.9773,-1.9618,-1.9353,-1.899,-1.9211,0.0,0.0,0.0,0.0,0.0,0.0,-1.5189,-1.4636,-1.4777,-1.4827,-1.4936,-1.4926,-1.4897,-1.4868,-1.4524,-1.4285,-1.4121,-1.4068,-1.239,-0.9125,0.0,0.0,0.0,0.0,-0.8527,-0.8763,-1.1297,-1.2642,-1.2696,-1.4204,-1.505,-1.505,-1.5294,-1.5526,-1.569,-1.6131,-1.6248,-1.6019,-1.6114,0.0,0.0,0.0,0.0,0.0,0.0,0.0,0.0,0.0,0.0,0.0,0.0,0.0,0.0,0.0,0.0,0.0,0.0,0.0,-0.3565,-0.3079,-0.2277,0.0,0.0,0.0,0.0,0.0,0.0,0.0,0.0,0.0,0.1946,0.2221,0.238,0.0,0.0,0.2723,0.2899,0.1572,0.0297,-0.0357,0.0,0.0,0.0,-0.3425,-0.3525,-0.4169,-0.5427,-0.6485,-0.6717,-0.761,-0.8192,-0.7845,-0.7606,-0.7414,-0.7237,-0.664,-0.6019,-0.5849,-0.5761,-0.5712,-0.5504,-0.4637,-0.3845,-1.741,-1.8276,-1.7444,-1.7824,-1.8929,-1.9121,-1.9642,-2.0471,-2.0263,-1.9879,-1.9377,-1.9672,-1.881,-1.7221,-1.744,0.0,0.0,0.0,-1.5869,-1.5351,-1.5021,-1.5059,-1.541,-1.542,-1.542,-1.542,-1.542,-1.542,-1.5352,-1.4936,-1.342,-1.1002,0.0,0.0,-0.8952,-0.9588,-0.9939,-1.0107,-1.2305,-1.3494,-1.3494,-1.4756,-1.542,-1.542,-1.542,-1.542,-1.541,-1.6093,-1.63,-1.5918,-1.6148,-1.5648,0.0,0.0,0.0,0.0,0.0,0.0,0.0,0.0,0.0,0.0,0.0,-0.865,-0.7444,0.0,0.0,0.0,-0.5804,-0.4382,-0.2912,-0.2483,0.0,0.0,0.0,0.0,0.0,0.0,0.0,0.1802,0.1804,0.1787,0.1786,0.212,0.2222,0.1885,0.2158,0.2477,0.2563,0.0,0.0183,-0.0673,-0.1471,-0.247,-0.3708,-0.3828,-0.4012,-0.4763,-0.5734,-0.6501,-0.6513,-0.7427,-0.8047,-0.7703,-0.7425,-0.7141,-0.6789,-0.639,-0.6078,-0.6078,-0.6078,-0.6044,-0.5952,-0.486,-0.3907,-1.8725,-1.9841,-1.737,-1.7745,-1.9976,-1.9812,-2.0342,-2.1305,-2.0803,-1.9904,-1.8833,-1.9475,-1.8437,-1.6187,-1.6905,0.0,-1.5871,-1.6667,-1.6543,-1.5592,-1.5496,-1.5478,-1.5468,-1.5526,-1.5468,-1.5468,-1.5468,-1.5468,-1.5449,-1.4315,-1.3729,-1.372,-1.3627,-1.264,-1.0918,-1.1676,-1.1908,-1.144,-1.3101,-1.4109,-1.4264,-1.505,-1.542,-1.542,-1.542,-1.542,-1.541,-1.6197,-1.6539,-1.6482,-1.6229,-1.603,-1.5815,0.0,0.0,0.0,0.0,0.0,0.0,0.0,0.0,0.0,0.0,0.0,0.0,0.0,0.0,0.0,-0.5632,0.0,-0.3779,-0.279,0.0,0.0,0.0,0.0,-0.0368,0.0308,0.074,0.0614,0.0,0.0,0.1731,0.1731,0.1499,0.0898,0.0899,0.1143,0.1731,0.0758,-0.0128,-0.0371,-0.0989,-0.186,-0.2995,-0.3488,-0.4084,-0.4979,-0.541,-0.548,-0.5693,-0.6414,-0.6734,-0.6029,-0.6533,-0.6875,-0.5973,-0.5684,-0.5691,-0.5623,-0.5649,-0.5659,-0.5421,-0.4124,-0.3219,-1.8544,-1.9017,-1.8325,-1.9024,-2.049,-2.049,-2.0382,-2.0188,-2.0062,-1.982,-1.9527,-1.9695,-1.9443,-1.8863,-1.9064,-1.8992,-1.878,-1.8412,-1.7827,-1.7059,-1.6518,-1.6265,-1.6265,-1.6265,-1.6265,-1.6265,-1.6265,-1.6265,-1.6208,-1.5418,-1.4965,-1.4907,-1.3919,-1.2347,-1.0543,-1.0666,-1.0894,-1.1026,-1.211,-1.3412,-1.504,-1.5284,-1.542,-1.542,-1.542,-1.542,-1.541,-1.6631,-1.7079,-1.6539,-1.7455,-1.7263,-1.5519,-1.4028,0.0,0.0,0.0,0.0,0.0,0.0,0.0,0.0,0.0,-0.7027,-0.5199,0.0,-0.5504,0.0,-0.5257,-0.4842,-0.386,-0.3584,0.0,0.0,-0.1465,-0.088,-0.043,-0.0251,0.0315,0.1357,0.1257,0.1083,0.1147,0.1146,0.0895,0.0322,0.1012,0.1676,0.1728,0.0568,-0.032,-0.0509,-0.1483,-0.2428,-0.2747,-0.29,-0.3313,-0.4146,-0.4375,-0.4599,-0.5349,-0.5642,-0.573,-0.5531,-0.567,-0.5734,-0.5471,-0.4913,-0.4507,-0.445,-0.4649,-0.4536,-0.3747,-0.3153,-0.2911,-1.876,-1.9202,-1.9202,-1.9608,-2.0288,-2.0288,-2.01,-1.9811,-1.9798,-1.9798,-1.9798,-1.9798,-1.9798,-1.9798,-1.9798,-1.9783,-1.9738,-1.9052,-1.8667,-1.8503,-1.7457,-1.6978,-1.6968,-1.6978,-1.6821,-1.6492,-1.6492,-1.6492,-1.6492,-1.6093,-1.5948,-1.6079,-1.5475,-1.4157,-1.2068,-1.1148,-1.0845,-1.1098,-1.2109,-1.3705,-1.5786,-1.5864,-1.5716,-1.5345,-1.5335,-1.5019,-1.4327,-1.5064,-1.534,-1.4916,-1.5529,-1.5243,-1.3931,-1.2698,-1.1477,0.0,0.0,0.0,0.0,0.0,0.0,0.0,0.0,0.0,0.0,0.0,-0.5038,-0.4325,-0.4452,-0.4262,-0.3272,-0.3076,-0.2858,-0.2421,-0.1764,-0.1363,-0.1405,-0.0713,-0.0065,0.0385,0.0455,0.0523,0.0517,0.0516,0.0513,0.0507,0.1058,0.1355,0.0987,0.025,-0.0378,-0.0757,-0.1532,-0.2259,-0.2581,-0.2709,-0.2851,-0.3275,-0.3414,-0.3624,-0.4074,-0.4215,-0.4217,-0.4215,-0.4217,-0.4217,-0.4151,-0.3813,-0.3345,-0.2887,-0.2599,-0.2565,-0.2749,-0.2191,-0.1564,-1.9202,-1.9798,-1.9798,-1.9862,-1.9965,-1.9888,-1.9952,-1.9952,-1.9991,-2.0003,-1.9901,-1.985,-1.9798,-1.9798,-1.9798,-1.9798,-1.9747,-1.915,-1.9165,-1.9703,-1.8379,-1.7743,-1.7731,-1.7743,-1.7413,-1.6821,-1.6765,-1.6754,-1.6765,-1.6708,-1.6797,-1.7086,-1.728,-1.6305,-1.4275,-1.2487,-1.1511,-1.1375,-1.2623,-1.4194,-1.6095,-1.593,-1.5537,-1.4954,-1.4879,-1.4253,-1.2877,-1.2913,-1.2968,-1.2868,-1.2639,-1.2483,-1.2508,-1.1551,-1.0725,0.0,-0.9503,0.0,0.0,0.0,0.0,0.0,0.0,0.0,0.0,-0.567,-0.491,-0.3725,-0.3796,-0.3531,-0.2876,-0.2608,-0.2609,-0.2743,-0.2008,-0.1808,-0.2544,-0.1209,-0.0403,-0.0934,-0.0334,0.0133,0.0322,0.0257,0.0571,0.1108,0.1283,0.1156,0.0487,0.0368,0.0123,-0.08,-0.0923,-0.1178,-0.1855,-0.2159,-0.2301,-0.2476,-0.2488,-0.2574,-0.2763,-0.2775,-0.2715,-0.2723,-0.2722,-0.2594,-0.2539,-0.2341,-0.1872,-0.1137,-0.0335,-0.0268,-0.1407,-0.0737,0.0267,-1.9695,-1.9798,-1.9798,-2.0105,-2.0597,-2.061,-2.061,-2.0646,-2.1148,-2.1051,-2.0597,-2.0042,-1.9798,-1.9798,-1.9798,-1.9798,-1.9811,-1.9643,-1.9656,-1.9783,-1.891,-1.8501,-1.8501,-1.8489,-1.8447,-1.8274,-1.8274,-1.8274,-1.8286,-1.7688,-1.7655,-1.805,-1.6678,-1.5785,-1.5277,0.0,0.0,0.0,-1.2558,-1.3429,-1.4232,-1.2972,-1.2436,-1.2689,-1.2689,0.0,-1.2317,-1.3032,-1.3195,-1.2639,-1.3249,0.0,0.0,0.0,0.0,0.0,0.0,0.0,0.0,0.0,0.0,0.0,-0.7352,-0.6475,-0.6693,-0.5601,-0.4807,-0.4464,-0.414,-0.4178,-0.4746,-0.4821,-0.4752,-0.4821,-0.4015,-0.328,-0.2744,-0.1675,-0.0665,0.0521,0.0779,0.1091,0.1622,0.1798,0.1838,0.1963,0.201,0.1932,0.183,0.1725,0.1717,0.1534,0.0917,0.0614,0.043,-0.0184,-0.0798,-0.1303,-0.1551,-0.1804,-0.2379,-0.2568,-0.2654,-0.2572,-0.2064,-0.1557,-0.1524,-0.0466,0.0466,0.0733,0.1534,0.1873,0.0803,0.1404,0.2207,-2.0308,0.0,-2.0607,-2.0953,0.0,-2.1609,-2.1752,-2.1738,-2.1724,-2.152,-2.121,-2.0904,-2.0706,-2.0756,-2.0756,-2.0401,-1.9858,-2.0427,-2.0756,-2.0706,-2.0382,-2.0029,-1.9748,-2.0016,-1.9813,-1.9218,-1.9165,-1.9165,-1.9165,-1.8838,-1.8815,-1.9078,-1.8482,-1.8227,-1.8287,-1.7415,-1.592,-1.3763,-1.4061,-1.4848,-1.6108,-1.5399,-1.4894,-1.4777,0.0,0.0,0.0,0.0,0.0,0.0,0.0,0.0,0.0,0.0,0.0,-1.4457,-1.3588,-1.3158,-1.3332,-1.2276,-1.1391,-1.096,-0.9065,-0.7534,-0.6566,-0.561,-0.5104,-0.5049,-0.4851,-0.4879,-0.5348,-0.4957,-0.4688,-0.4622,-0.348,-0.2332,-0.1512,-0.0656,0.0325,0.1392,0.1635,0.1803,0.217,0.2221,0.237,0.2703,0.2742,0.2899,0.3142,0.2695,0.2227,0.2169,0.1936,0.1643,0.1643,0.1351,0.1006,0.0538,0.042,0.0242,-0.0184,-0.0307,-0.0246,-0.025,0.0125,0.0441,0.051,0.1229,0.1898,0.1966,0.2649,0.3533,0.365,0.3593,0.3478,-2.0845,-2.1028,-2.1459,-2.1758,-2.1899,-2.2438,-2.274,-2.283,0.0,0.0,0.0,-2.1744,-2.1697,-2.1697,-2.1697,-2.1138,-2.0233,-2.1226,-2.1813,-2.2005,-2.1799,-2.1424,-2.0979,-2.1472,-2.1108,-2.0054,-2.0054,-2.0054,-2.0054,-2.0042,-2.008,-2.0166,-2.0677,-2.108,-2.1178,-2.0934,-1.9434,-1.6796,-1.601,-1.6567,-1.8301,-1.809,-1.7757,-1.7275,-1.7173,-1.653,-1.5265,-1.5243,-1.5305,-1.5295,-1.5078,-1.5016,-1.5192,-1.4904,-1.4707,-1.48,-1.4548,-1.4546,-1.4949,-1.4598,-1.3914,-1.2854,-1.0514,-0.827,-0.6303,-0.5799,-0.5554,-0.5428,-0.5292,-0.5156,-0.5156,-0.435,-0.3739,-0.3723,-0.2192,-0.0855,-0.0256,0.0701,0.1577,0.2208,0.2375,0.2469,0.2628,0.2671,0.282,0.337,0.3519,0.3788,0.4291,0.3519,0.2749,0.2749,0.2589,0.2406,0.24,0.2402,0.2366,0.2308,0.2432,0.2574,0.2569,0.2591,0.2596,0.2424,0.2671,0.2859,0.2997,0.3427,0.3547,0.3673,0.4315,0.5298,0.6514,0.602,0.5466,-2.1113,-2.1568,-2.1649,-2.2039,-2.2603,-2.2649,-2.3024,-2.3421,-2.283,-2.2558,-2.2498,-2.1946,-2.1697,-2.1697,-2.1697,-2.1608,-2.1431,-2.1622,-2.2272,0.0,-2.2183,-2.1663,-2.1568,-2.1649,-2.1602,-2.1397,-2.1397,-2.1411,-2.1424,-2.1407,-2.1434,-2.1423,-2.1545,-2.1594,-2.1602,-2.1568,-2.1329,-2.081,-1.7647,-1.6395,-1.7082,-1.5763,-1.5448,-1.6342,-1.5953,-1.5502,-1.5286,-1.5559,-1.5609,-1.5659,-1.6353,-1.7327,-1.8566,-1.8591,-1.8953,-1.9635,-1.8606,-1.7653,-1.7159,-1.5311,-1.3588,-1.2004,-0.9615,-0.7747,-0.6681,-0.6572,-0.6203,-0.5491,-0.4688,-0.4217,-0.4148,-0.3407,-0.2845,-0.2718,-0.1354,-0.0319,-0.0062,0.1173,0.2321,0.3078,0.3123,0.3435,0.3966,0.416,0.4209,0.4298,0.4659,0.4728,0.5261,0.4673,0.4236,0.407,0.3569,0.3234,0.35,0.3219,0.3332,0.3174,0.3837,0.4229,0.4265,0.4274,0.4247,0.4113,0.4768,0.5389,0.5956,0.6816,0.7249,0.764,0.7993,0.8504,0.9276,0.9253,0.9285,-2.1974,-2.23,-2.2606,-2.2891,-2.3187,-2.3201,-2.3334,-2.3551,-2.3334,-2.3187,-2.3143,-2.2846,-2.2741,-2.2741,-2.2741,-2.2741,-2.2741,-2.2741,-2.3051,-2.3554,-2.3036,-2.256,-2.23,-2.2575,-2.256,-2.2239,-2.2253,-2.2253,-2.2221,-2.2236,-2.208,-2.1758,-2.2072,-2.2259,-2.2253,-2.256,-2.2727,-2.2639,-2.0324,-1.9256,-1.9517,-1.8758,-1.8631,-1.9162,-1.89,-1.878,-1.878,-1.8902,-1.8963,-1.8963,-1.9361,-1.9898,-2.0597,-2.0671,-2.0819,-2.1218,-2.0677,-1.9635,-1.8205,-1.5293,-1.2846,-1.1148,-0.9151,-0.7172,-0.5397,-0.5738,-0.5613,-0.4752,-0.4217,-0.3789,-0.3342,-0.2093,-0.1357,-0.1318,0.0125,0.1237,0.1684,0.2272,0.3245,0.4232,0.4154,0.4247,0.4956,0.5374,0.5638,0.5747,0.6464,0.7378,0.7687,0.775,0.7344,0.6362,0.5584,0.5517,0.6026,0.586,0.5851,0.6158,0.6526,0.6685,0.6744,0.6733,0.678,0.6756,0.7376,0.7884,0.8323,0.8989,0.9562,0.9809,1.0063,1.0576,1.2058,1.3902,1.4405,-2.2785,-2.2965,-2.3421,-2.3595,-2.3595,-2.3595,-2.3595,-2.3595,-2.3595,-2.3595,-2.3595,-2.3595,-2.3595,-2.3595,-2.3595,-2.3595,-2.3595,-2.3595,-2.3595,-2.3595,-2.3709,-2.3375,-2.2805,-2.327,-2.3167,-2.2571,-2.2454,-2.2468,-2.2483,-2.2478,-2.2271,-2.1955,-2.2455,-2.2789,-2.2774,-2.3215,-2.3462,-2.3427,-2.2584,-2.2087,-2.2033,-2.186,-2.1849,-2.1983,-2.182,-2.1744,-2.179,-2.1917,-2.2048,-2.2048,-2.2312,-2.2474,-2.2489,-2.2489,-2.2398,-2.2151,-2.1937,-2.0806,-1.839,-1.483,-1.2119,-1.0759,-0.8794,-0.6694,-0.4652,-0.473,-0.4683,-0.3838,-0.3488,-0.2988,-0.2103,-0.0825,0.0126,0.0366,0.1578,0.258,0.3205,0.3697,0.4399,0.55,0.5529,0.5692,0.6171,0.6694,0.7105,0.7506,0.917,1.0458,1.0499,1.1151,1.1125,0.9883,0.8481,0.7868,0.8933,0.9024,0.9098,0.9617,1.0047,1.0327,1.0376,1.0311,1.0278,1.0401,1.0685,1.116,1.1226,1.1686,1.2231,1.2561,1.2803,1.342,1.5417,1.7677,1.857,-2.3009,-2.3465,-2.3551,-2.3595,-2.3595,-2.3595,-2.3638,-2.3638,-2.3595,-2.3595,-2.3608,-2.3595,-2.3623,-2.3595,-2.358,-2.3608,-2.3593,-2.358,-2.3593,-2.3621,-2.4101,-2.3769,-2.2813,-2.3172,-2.2867,-2.1964,-2.1839,-2.1939,-2.1913,-2.1883,-2.1984,-2.2267,-2.2734,-2.2996,-2.298,-2.3033,-2.3155,-2.3416,-2.3315,-2.3158,-2.2961,-2.23,-2.2248,-2.2844,-2.2301,-2.1957,-2.2063,-2.2613,-2.2958,-2.306,-2.4123,-2.4792,-2.4831,-2.4847,-2.4378,-2.3359,-2.2658,-2.0948,-1.7756,-1.4024,-1.1775,-1.1219,-0.8348,-0.6079,-0.4948,-0.4265,-0.3633,-0.28,-0.2012,-0.1304,-0.0493,0.0432,0.1279,0.1831,0.2761,0.3251,0.361,0.5105,0.6342,0.644,0.7471,0.8352,0.83,0.8586,0.8875,0.9675,1.1949,1.3465,1.3269,1.46,1.5785,1.4987,1.2775,1.0683,1.0867,1.1677,1.2403,1.2738,1.3899,1.4435,1.4516,1.4617,1.4802,1.4308,1.4764,1.5036,1.5507,1.6081,1.6163,1.6389,1.6807,1.756,1.8593,1.9672,1.9423,-2.3363,-2.3595,-2.3595,-2.3595,-2.3638,-2.3906,-2.4074,-2.4074,-2.443,-2.4293,-2.3896,-2.3896,-2.3788,-2.3603,-2.3462,-2.3473,-2.356,-2.3351,-2.3227,-2.3251,-2.3481,-2.3302,-2.2932,-2.3073,-2.2917,-2.2512,-2.2459,-2.2496,-2.2512,-2.2627,-2.2892,-2.3204,-2.326,-2.332,-2.3489,-2.316,-2.3264,-2.3865,-2.3605,-2.3571,-2.3735,-2.3372,-2.3258,-2.3473,-2.3258,-2.3124,-2.314,-2.34,-2.358,-2.3596,-2.4144,-2.4444,-2.4428,-2.4428,-2.4151,-2.3427,-2.1992,-2.0178,-1.7871,-1.5012,-1.231,-0.9891,-0.7941,-0.5828,-0.3055,-0.1739,-0.0655,0.0,-0.0305,-0.0183,0.1077,0.197,0.2596,0.3033,0.4241,0.5262,0.5307,0.678,0.7945,0.8371,0.8903,0.9497,0.9988,1.1037,1.2204,1.3331,1.5374,1.6492,1.6775,1.7949,1.8793,1.9005,1.7713,1.6416,1.5434,1.5274,1.5892,1.6565,1.7249,1.7731,1.7716,1.7746,1.7731,1.7716,1.796,1.8233,1.8521,1.9055,1.9386,1.9727,2.0188,2.0673,2.1276,2.2084,2.2372,-2.3681,-2.3837,-2.3948,-2.3926,-2.3773,-2.4151,-2.4201,-2.4045,-2.4433,-2.4297,-2.3829,-2.3813,-2.3623,-2.3359,-2.3227,-2.3224,-2.3196,-2.3084,-2.3032,-2.3106,-2.3262,-2.3149,-2.2884,-2.2989,-2.2893,-2.2645,-2.2547,-2.2625,-2.2804,-2.3129,-2.3444,-2.3685,-2.3619,-2.3681,-2.386,-2.347,-2.3616,-2.4164,-2.379,-2.3739,-2.4139,-2.3883,-2.3768,-2.3899,-2.3938,-2.3938,-2.3938,-2.4132,-2.4218,-2.4218,-2.4411,-2.4535,-2.4505,-2.4552,-2.4306,-2.3605,-2.1727,-1.9978,-1.8616,-1.5312,-1.2087,-0.9072,-0.6706,-0.3706,-0.0884,0.115,0.2546,0.3465,0.2721,0.2781,0.2945,0.3792,0.4363,0.4798,0.6445,0.7448,0.7687,0.8926,1.0073,1.073,1.1393,1.172,1.2652,1.429,1.5801,1.6777,1.8411,1.9733,2.02,2.0727,2.1326,2.1697,2.166,2.0757,1.9328,1.8729,1.9039,1.9368,1.9777,2.0061,2.0119,2.0118,2.021,2.0147,2.0657,2.0915,2.0952,2.1403,2.1771,2.2043,2.2347,2.2754,2.3195,2.4136,2.4707,-2.3879,-2.4374,-2.4879,-2.4598,-2.4042,-2.4095,-2.3729,-2.3215,-2.3203,-2.3124,-2.3163,-2.3131,-2.2962,-2.2815,-2.298,-2.2778,-2.2501,-2.2821,-2.3135,-2.3408,-2.3829,-2.3498,-2.2505,-2.2909,-2.2668,-2.198,-2.1963,-2.2082,-2.245,-2.2829,-2.3168,-2.3394,-2.3638,-2.3876,-2.3788,-2.3679,-2.4056,-2.4113,-2.371,-2.3688,-2.3925,-2.348,-2.3381,-2.3785,-2.3975,-2.3943,-2.4022,-2.4658,-2.4974,-2.501,-2.5504,-2.5966,-2.6003,-2.5985,-2.5454,-2.4381,-2.235,-2.0813,-1.9418,-1.4496,-1.0214,-0.8595,-0.3211,0.0884,0.2366,0.4372,0.6005,0.7106,0.7689,0.7442,0.6149,0.6284,0.6913,0.8022,0.8929,0.971,1.0294,1.1682,1.2769,1.375,1.4799,1.5768,1.6979,1.8316,1.8843,1.9489,2.1004,2.23,2.2334,2.2914,2.3186,2.3244,2.306,2.2427,2.0765,2.0662,2.0993,2.1217,2.1601,2.2053,2.2141,2.2201,2.2262,2.2357,2.2431,2.2615,2.2987,2.3299,2.3573,2.3736,2.3695,2.4071,2.4219,2.4741,2.5201,-2.374,-2.3538,-2.3724,-2.3617,-2.3446,-2.3719,-2.3696,-2.3518,-2.3836,-2.3669,-2.332,-2.3488,-2.33,-2.2824,-2.3022,-2.3033,-2.2889,-2.2845,-2.3039,-2.3392,-2.3302,-2.317,-2.315,-2.3092,-2.3135,-2.3063,-2.3035,-2.3081,-2.3126,-2.3301,-2.3009,-2.2402,-2.2279,-2.2107,-2.1786,-2.1852,-2.2114,-2.2416,-2.2366,-2.2449,-2.2462,-2.2093,-2.1962,-2.2182,-2.3022,-2.3487,-2.3487,-2.3974,-2.4103,-2.39,-2.4346,-2.4677,-2.4843,-2.5021,-2.4663,-2.3672,-2.2929,-2.1726,-1.977,-1.7496,-1.1342,-0.1743,0.1403,0.4524,0.7238,0.9563,1.0847,1.0766,1.2037,1.2442,1.1748,1.0278,0.9278,0.9914,1.1363,1.2625,1.329,1.4631,1.6021,1.6571,1.7539,1.8566,1.9642,2.0766,2.1366,2.1501,2.2483,2.3271,2.3663,2.3758,2.369,2.4004,2.3888,2.3335,2.2364,2.2518,2.2848,2.2959,2.3182,2.3174,2.3235,2.3044,2.3017,2.2867,2.3211,2.3476,2.3577,2.3935,2.4375,2.4405,2.444,2.4494,2.4788,2.4948,2.5362,-2.3677,-2.3291,-2.3432,-2.3422,-2.3342,-2.3632,-2.3653,-2.3604,-2.3915,-2.3801,-2.3433,-2.358,-2.3422,-2.3157,-2.3223,-2.3399,-2.349,-2.3084,-2.3135,-2.3594,-2.3282,-2.3356,-2.366,-2.3566,-2.3646,-2.3976,-2.3998,-2.3774,-2.3375,-2.303,-2.2286,-2.1331,-2.088,-2.0443,-2.014,-2.0241,-2.0441,-2.0634,-2.0651,-2.0528,-2.0301,-1.9877,-1.9745,-2.0032,-2.0863,-2.179,-2.2468,-2.3327,-2.3522,-2.3157,-2.3492,-2.3879,-2.4068,-2.4252,-2.3802,-2.2773,-2.2603,-2.1745,-1.9562,-1.7983,-1.1032,0.2174,0.6815,0.9796,1.2304,1.4501,1.5101,1.4956,1.5797,1.7021,1.6648,1.512,1.3659,1.3325,1.4694,1.6006,1.651,1.7802,1.8806,1.9484,2.0221,2.1061,2.1771,2.2553,2.2962,2.3103,2.3566,2.4077,2.4337,2.4006,2.3687,2.4085,2.3873,2.3453,2.2739,2.263,2.2735,2.2875,2.2883,2.3271,2.3382,2.3346,2.3309,2.3327,2.3509,2.3819,2.4138,2.4473,2.4563,2.4555,2.4589,2.4586,2.4788,2.4919,2.5273,-2.3687,-2.3719,-2.4252,-2.4113,-2.3788,-2.3819,-2.3624,-2.3323,-2.3283,-2.3318,-2.3313,-2.3265,-2.3432,-2.3491,-2.3596,-2.3818,-2.4063,-2.3602,-2.3541,-2.3914,-2.393,-2.4063,-2.4292,-2.4284,-2.4319,-2.4382,-2.4195,-2.3675,-2.2836,-2.1929,-2.0992,-2.0119,-1.9353,-1.8878,-1.9115,-1.8865,-1.9044,-1.8925,-1.8487,-1.8016,-1.7427,-1.6928,-1.6877,-1.732,-1.7602,-1.8673,-2.0755,-2.2668,-2.3212,-2.2629,-2.3249,-2.3886,-2.3611,-2.3656,-2.32,-2.1829,-2.135,-2.0657,-1.9343,-1.5876,-1.0055,0.2399,1.1335,1.6246,1.6298,1.7912,1.9013,1.8883,1.9429,2.0055,2.0171,2.0169,1.9519,1.835,1.8672,1.9597,2.0288,2.086,2.1476,2.2224,2.2791,2.3467,2.362,2.3695,2.3842,2.394,2.4103,2.4273,2.4266,2.3769,2.3566,2.3488,2.3174,2.2674,2.2513,2.2373,2.2293,2.2235,2.2209,2.2306,2.2168,2.2108,2.2143,2.2168,2.2401,2.2757,2.3471,2.3781,2.3995,2.406,2.429,2.4568,2.4733,2.4864,2.5013,-2.3371,-2.3371,-2.3519,-2.3535,-2.3457,-2.3561,-2.3508,-2.3418,-2.34,-2.3491,-2.3619,-2.3715,-2.3874,-2.4063,-2.4275,-2.4479,-2.461,-2.4391,-2.4391,-2.4468,-2.4357,-2.4479,-2.4768,-2.4721,-2.4681,-2.4647,-2.4469,-2.3333,-2.173,-2.1065,-1.9832,-1.772,-1.6721,-1.6077,-1.5568,-1.5633,-1.5731,-1.5697,-1.5526,-1.5302,-1.5052,-1.4306,-1.4026,-1.4295,-1.5241,-1.5998,-1.6145,-1.9328,-2.0815,-2.0385,-2.0895,-2.1079,-2.0956,-2.1181,-2.0938,-2.0291,-2.0895,-2.115,-2.0843,-2.0448,-1.2341,0.4017,1.5752,1.9845,1.9795,2.0672,2.1268,2.1066,2.1403,2.1842,2.2391,2.2517,2.1796,2.0294,2.0894,2.1579,2.1958,2.2486,2.3067,2.3478,2.3626,2.3778,2.4049,2.4186,2.3985,2.3962,2.3927,2.3864,2.3746,2.3124,2.2586,2.2555,2.2118,2.1881,2.1766,2.1648,2.1532,2.1568,2.1615,2.1538,2.1306,2.1181,2.1149,2.1258,2.15,2.1911,2.2618,2.3097,2.3345,2.3695,2.4011,2.4324,2.462,2.4727,2.4733,-2.3302,-2.332,-2.3396,-2.3487,-2.3593,-2.3741,-2.3895,-2.3989,-2.3971,-2.4063,-2.4188,-2.4264,-2.4403,-2.4595,-2.4832,-2.4983,-2.5057,-2.5067,-2.507,-2.5061,-2.4801,-2.4903,-2.5178,-2.4921,-2.4742,-2.4512,-2.3841,-2.2331,-2.0276,-1.9345,-1.7638,-1.5195,-1.4215,-1.3501,-1.2715,-1.2795,-1.2769,-1.2496,-1.2449,-1.2232,-1.1665,-1.1123,-1.0896,-1.1305,-1.2196,-1.2582,-1.2644,-1.5121,-1.6965,-1.7998,-1.8717,-1.8933,-1.876,-1.8812,-1.8612,-1.8386,-1.8595,-1.8485,-1.7167,-1.9172,-1.3253,0.6329,1.7144,2.1661,2.1877,2.2588,2.2708,2.2831,2.2978,2.3344,2.3769,2.3796,2.3183,2.2332,2.2712,2.3111,2.3349,2.3708,2.3926,2.3973,2.378,2.3839,2.3968,2.3915,2.3709,2.3657,2.3331,2.3062,2.2858,2.2271,2.19,2.1635,2.1472,2.1243,2.107,2.091,2.0765,2.0894,2.0991,2.0959,2.0813,2.0748,2.0699,2.083,2.1022,2.1272,2.1927,2.2453,2.2821,2.3254,2.35,2.3603,2.3725,2.4079,2.4163,-2.3578,-2.3581,-2.3783,-2.4044,-2.4293,-2.4346,-2.4516,-2.476,-2.478,-2.478,-2.4804,-2.4786,-2.4903,-2.5095,-2.5171,-2.5298,-2.5457,-2.5455,-2.5432,-2.5402,-2.5252,-2.5228,-2.5291,-2.488,-2.4504,-2.3965,-2.2524,-2.0736,-1.8733,-1.7111,-1.4887,-1.2944,-1.2143,-1.1449,-1.099,-1.0746,-1.0343,-0.989,-0.9702,-0.9027,-0.7992,-0.7799,-0.7992,-0.8604,-0.8892,-0.9423,-1.0319,-1.0985,-1.252,-1.5398,-1.6609,-1.7062,-1.7127,-1.6679,-1.6097,-1.5782,-1.5772,-1.3304,-1.0838,-1.0582,-0.7075,0.7555,1.5516,2.0512,2.2088,2.2484,2.3033,2.3705,2.3879,2.41,2.4217,2.4176,2.3973,2.3979,2.3906,2.4138,2.4347,2.4271,2.3998,2.3802,2.3652,2.3451,2.3355,2.3111,2.3006,2.2849,2.2384,2.2055,2.1894,2.148,2.1038,2.0862,2.0781,2.0616,2.0416,2.0431,2.0296,2.033,2.0447,2.0398,2.0364,2.033,2.0296,2.0416,2.0583,2.0846,2.1118,2.1619,2.1984,2.2204,2.2392,2.2574,2.2944,2.3404,2.3676,-2.4465,-2.4465,-2.4512,-2.4584,-2.4703,-2.4873,-2.5001,-2.5088,-2.508,-2.5163,-2.5241,-2.5153,-2.5191,-2.5386,-2.5413,-2.5473,-2.5521,-2.5515,-2.5427,-2.5315,-2.5242,-2.5134,-2.4953,-2.4496,-2.3772,-2.2756,-2.1305,-1.9176,-1.6334,-1.5255,-1.3556,-1.139,-1.0754,-1.0261,-0.9953,-0.9072,-0.8442,-0.8171,-0.7688,-0.7309,-0.6945,-0.6843,-0.6945,-0.709,-0.7535,-0.7986,-0.8371,-0.8875,-1.0192,-1.2528,-1.3535,-1.4013,-1.3969,-1.3401,-1.3016,-1.3104,-1.3254,-1.1816,-0.6739,0.016,0.5575,0.717,1.4045,1.8467,1.9713,2.0657,2.1642,2.2567,2.2686,2.2843,2.351,2.3446,2.3268,2.3433,2.3598,2.3712,2.3562,2.3289,2.3062,2.2927,2.2442,2.2159,2.2078,2.1888,2.1707,2.1589,2.1254,2.0926,2.1022,2.0391,1.9838,2.0078,2.0058,1.9899,1.9823,1.9859,1.9874,1.9874,1.9909,1.9909,1.9909,1.9925,1.9874,1.9909,2.0158,2.0416,2.0483,2.0733,2.0959,2.1502,2.1915,2.2361,2.2669,2.3059,2.3234,-2.4931,-2.4926,-2.5034,-2.5101,-2.5126,-2.5261,-2.5339,-2.5332,-2.5297,-2.5354,-2.5408,-2.536,-2.5363,-2.5453,-2.5479,-2.5449,-2.5421,-2.5389,-2.5232,-2.4899,-2.4374,-2.4276,-2.4276,-2.3773,-2.2784,-2.1691,-1.9893,-1.764,-1.5374,-1.4126,-1.2474,-1.073,-1.0012,-0.9503,-0.8869,-0.819,-0.7343,-0.6843,-0.6308,-0.6036,-0.5773,-0.5719,-0.5714,-0.5769,-0.6126,-0.6279,-0.6382,-0.7009,-0.8274,-0.9973,-1.0797,-1.1012,-1.0963,-1.0346,-1.0292,-1.0889,-1.1153,-1.037,-0.7209,0.339,1.0113,1.0045,1.3873,1.638,1.8275,1.9292,2.0256,2.1985,2.1922,2.234,2.2847,2.2633,2.23,2.2241,2.2418,2.2558,2.2677,2.2401,2.2095,2.1814,2.1404,2.1068,2.1225,2.0911,2.083,2.083,2.0487,2.0469,2.0485,1.9468,1.897,1.9368,1.9615,1.9573,1.9449,1.9464,1.9427,1.9427,1.9588,1.9566,1.969,1.9705,1.9726,1.9747,1.9874,1.9965,2.0054,2.0348,2.0991,2.1488,2.1874,2.213,2.2415,2.2591,2.2754,-2.5145,-2.5137,-2.5397,-2.5519,-2.5493,-2.5512,-2.5483,-2.5483,-2.5445,-2.5409,-2.5406,-2.5383,-2.5357,-2.5379,-2.5372,-2.5328,-2.5159,-2.5159,-2.4764,-2.4174,-2.3412,-2.2989,-2.3117,-2.2347,-2.1442,-2.0416,-1.8115,-1.6223,-1.4484,-1.3074,-1.1612,-1.0108,-0.9658,-0.8974,-0.8143,-0.7723,-0.6907,-0.5869,-0.5546,-0.5222,-0.4846,-0.4736,-0.4791,-0.4787,-0.4787,-0.4838,-0.4893,-0.532,-0.6372,-0.8149,-0.841,-0.8619,-0.8521,-0.7864,-0.8336,-0.9439,-0.947,-0.9955,-0.9719,0.0874,0.9496,1.1293,1.2812,1.488,1.7156,1.8176,1.9436,2.1163,2.179,2.1961,2.2255,2.1886,2.1535,2.1336,2.1117,2.1272,2.1648,2.1602,2.1256,2.091,2.0371,2.0387,2.0469,2.0469,2.0237,2.0348,1.9939,1.9626,1.9483,1.8731,1.866,1.9103,1.9281,1.9332,1.9207,1.908,1.9006,1.9006,1.9281,1.9406,1.9654,1.9705,1.9705,1.9762,1.9803,1.9803,1.9803,2.0296,2.0878,2.107,2.1133,2.1612,2.2073,2.2136,2.2275,-2.5416,-2.5421,-2.5541,-2.5557,-2.5506,-2.5546,-2.5537,-2.5492,-2.5476,-2.5443,-2.5422,-2.5283,-2.5228,-2.5198,-2.5065,-2.5,-2.4869,-2.4737,-2.4256,-2.2998,-2.238,-2.1441,-2.101,-2.0397,-1.9611,-1.8339,-1.7037,-1.4949,-1.2845,-1.1706,-1.0509,-0.9256,-0.9061,-0.858,-0.783,-0.7532,-0.682,-0.566,-0.5011,-0.4688,-0.4574,-0.4463,-0.4463,-0.4463,-0.4463,-0.4463,-0.4519,-0.4625,-0.4944,-0.5534,-0.645,-0.7042,-0.7052,-0.7241,-0.7538,-0.7853,-0.8482,-0.9007,-0.7698,-0.0326,0.664,0.9635,1.2061,1.39,1.4597,1.6954,1.8295,1.9431,2.0125,2.0943,2.1319,2.1259,2.1055,2.0862,2.0665,2.0516,2.0651,2.0651,2.0403,1.9993,1.9549,1.9222,1.9368,1.9332,1.9368,1.9702,1.9398,1.8849,1.843,1.8039,1.8249,1.8688,1.865,1.8664,1.8741,1.8612,1.8482,1.8482,1.8765,1.9207,1.9457,1.9617,1.9566,1.9639,1.9711,1.9711,1.9711,1.9803,2.033,2.0364,2.0483,2.1023,2.1477,2.1598,2.1794,-2.5356,-2.5351,-2.5311,-2.5266,-2.5226,-2.5255,-2.5267,-2.5226,-2.5197,-2.5179,-2.5108,-2.4892,-2.4798,-2.4764,-2.4503,-2.4348,-2.41,-2.3606,-2.2852,-2.1732,-2.0787,-1.982,-1.898,-1.8012,-1.7022,-1.6494,-1.5514,-1.3577,-1.1695,-1.0588,-0.9865,-0.891,-0.8752,-0.8427,-0.7783,-0.749,-0.6717,-0.5605,-0.4853,-0.4473,-0.4463,-0.4463,-0.4463,-0.4463,-0.4463,-0.4463,-0.4519,-0.4519,-0.4515,-0.468,-0.5234,-0.5618,-0.5618,-0.585,-0.6028,-0.6165,-0.6428,-0.5001,-0.1882,0.093,0.4977,0.8425,1.0713,1.2214,1.3641,1.588,1.753,1.8573,1.9587,2.0449,2.0616,2.0682,2.0616,2.0364,2.0208,2.0035,2.0019,2.0035,1.9965,1.9558,1.9051,1.9029,1.8968,1.8612,1.8688,1.9103,1.8507,1.8013,1.8249,1.7907,1.7827,1.8027,1.7947,1.7973,1.8145,1.8092,1.792,1.792,1.8078,1.8636,1.9132,1.9244,1.9369,1.9515,1.9711,1.9726,1.9726,1.9818,1.9945,2.0227,2.0483,2.0731,2.0926,2.1213,2.1354,-2.5137,-2.5154,-2.4975,-2.4881,-2.4828,-2.4869,-2.485,-2.4716,-2.4735,-2.4711,-2.4603,-2.4295,-2.4189,-2.4134,-2.3859,-2.3619,-2.3221,-2.2073,-2.1242,-2.0575,-1.9311,-1.8275,-1.7394,-1.6011,-1.4928,-1.5097,-1.4005,-1.2273,-1.0878,-1.0027,-0.9555,-0.885,-0.8586,-0.8103,-0.7622,-0.7441,-0.6678,-0.5391,-0.4743,-0.4473,-0.4463,-0.4463,-0.4463,-0.4463,-0.4463,-0.4463,-0.4463,-0.4463,-0.4463,-0.4467,-0.4473,-0.4477,-0.4484,-0.4484,-0.4262,-0.4166,-0.3421,-0.0893,0.184,0.3442,0.4732,0.8193,0.9377,1.0656,1.2693,1.4942,1.6775,1.8093,1.9177,2.0143,2.0212,2.0212,2.0054,1.9839,1.9726,1.969,1.9603,1.9566,1.9515,1.9281,1.8727,1.8535,1.8419,1.8171,1.8341,1.8341,1.7706,1.7353,1.7544,1.7544,1.7286,1.7037,1.6899,1.6857,1.7011,1.7787,1.7572,1.7639,1.7679,1.8313,1.893,1.9244,1.9479,1.9603,1.9726,1.969,1.9726,1.9803,2.0,2.0246,2.0348,2.0398,2.0599,2.0862,2.1007,-2.4953,-2.4939,-2.4907,-2.4742,-2.4518,-2.4708,-2.4459,-2.4099,-2.4259,-2.4223,-2.3934,-2.3704,-2.3544,-2.3461,-2.3356,-2.3329,-2.2634,-2.1191,-1.9888,-1.9322,-1.8236,-1.7236,-1.561,-1.471,-1.3545,-1.2082,-1.1661,-1.1195,-1.0253,-0.9828,-0.9361,-0.8798,-0.8209,-0.7563,-0.7263,-0.7035,-0.6425,-0.5175,-0.4636,-0.4473,-0.4463,-0.4463,-0.4463,-0.4463,-0.4463,-0.4463,-0.4463,-0.4463,-0.4467,-0.4477,-0.4467,-0.448,-0.4497,-0.4504,-0.3875,-0.2235,0.0447,0.286,0.416,0.4978,0.5395,0.6756,0.841,0.9636,1.1309,1.3954,1.6288,1.7317,1.8688,1.9803,1.9803,1.9874,1.9818,1.9741,1.9654,1.9515,1.9207,1.9006,1.8855,1.8496,1.8171,1.8013,1.7973,1.7814,1.7693,1.7639,1.7286,1.6883,1.687,1.6617,1.6232,1.5983,1.572,1.572,1.5796,1.687,1.7394,1.7531,1.776,1.8366,1.893,1.9369,1.9566,1.9369,1.9493,1.9654,1.9711,1.9767,1.9839,1.998,2.0015,2.007,2.0243,2.0481,2.0797,-2.4644,-2.4486,-2.4361,-2.4096,-2.3828,-2.3917,-2.3806,-2.3533,-2.3637,-2.3361,-2.2835,-2.2474,-2.2038,-2.168,-2.1334,-2.1275,-2.0917,-1.9783,-1.8517,-1.7773,-1.6972,-1.6077,-1.4381,-1.3678,-1.2272,-1.0995,-1.042,-0.9982,-0.934,-0.9302,-0.9106,-0.8745,-0.8049,-0.7509,-0.7085,-0.6742,-0.6082,-0.5066,-0.4688,-0.4473,-0.4463,-0.4463,-0.4463,-0.4463,-0.4463,-0.4463,-0.4463,-0.4463,-0.4467,-0.4307,-0.3738,-0.3863,-0.4216,-0.4284,-0.3431,-0.0894,0.2352,0.4455,0.4504,0.5041,0.5567,0.6838,0.8384,0.9673,1.1204,1.3811,1.6308,1.7625,1.8218,1.9406,1.9675,1.969,1.9705,1.9654,1.9479,1.9169,1.893,1.865,1.821,1.7773,1.7612,1.7612,1.7827,1.7585,1.7175,1.6925,1.6701,1.6476,1.6176,1.5752,1.532,1.5365,1.5276,1.5555,1.572,1.6544,1.7118,1.7258,1.7733,1.8327,1.8574,1.8855,1.8855,1.8727,1.8968,1.9479,1.9479,1.9464,1.9566,1.9705,1.9797,1.9889,1.9945,2.0104,2.0398,-2.3603,-2.3336,-2.3118,-2.2761,-2.241,-2.2418,-2.2324,-2.228,-2.2246,-2.1895,-2.1375,-2.1024,-2.0448,-1.9691,-1.9254,-1.9087,-1.9191,-1.8228,-1.7001,-1.6218,-1.5528,-1.479,-1.3689,-1.2436,-1.1064,-1.016,-0.9511,-0.8804,-0.8903,-0.891,-0.8804,-0.8586,-0.8049,-0.7676,-0.7419,-0.651,-0.5837,-0.5234,-0.4802,-0.4532,-0.447,-0.4467,-0.4467,-0.4467,-0.447,-0.447,-0.447,-0.447,-0.4477,-0.4086,-0.3355,-0.2963,-0.4163,-0.4462,-0.2755,0.0504,0.2974,0.3878,0.4549,0.5022,0.5869,0.7031,0.8476,1.0015,1.1835,1.4178,1.6725,1.843,1.9095,1.9281,1.9639,1.9566,1.953,1.942,1.9058,1.865,1.8419,1.8092,1.7558,1.7244,1.7092,1.6954,1.6983,1.6591,1.6058,1.5971,1.574,1.5664,1.5353,1.4903,1.4641,1.4869,1.5096,1.5543,1.5983,1.6617,1.6896,1.6811,1.7409,1.8131,1.8131,1.8131,1.8171,1.8341,1.8855,1.9281,1.9207,1.9207,1.9406,1.9566,1.9654,1.9762,1.9833,1.9854,2.0035,-2.0845,-2.0847,-2.0845,-2.0304,-1.9632,-1.983,-1.9568,-1.9245,-1.9544,-1.9568,-1.96,-1.9556,-1.9165,-1.8364,-1.7632,-1.8121,-1.8248,-1.6876,-1.5409,-1.4608,-1.412,-1.3287,-1.2173,-1.1288,-1.023,-0.9429,-0.8956,-0.8804,-0.8765,-0.8765,-0.8811,-0.8646,-0.8115,-0.7634,-0.7399,-0.6009,-0.547,-0.4754,-0.4543,-0.449,-0.4432,-0.4432,-0.4317,-0.4373,-0.4317,-0.4262,-0.4203,-0.4203,-0.432,-0.4333,-0.3077,-0.3081,-0.4179,-0.4462,-0.123,0.1734,0.3365,0.3077,0.4425,0.5445,0.6333,0.7429,0.9034,1.0656,1.2503,1.4676,1.7124,1.8674,1.9207,1.9369,1.9369,1.9244,1.908,1.8893,1.8664,1.8106,1.7706,1.7341,1.6815,1.6207,1.5915,1.5828,1.5784,1.5309,1.488,1.488,1.4835,1.4755,1.4663,1.4376,1.4457,1.4824,1.5186,1.5688,1.6039,1.6685,1.6854,1.6612,1.7175,1.7907,1.7973,1.7973,1.7973,1.8249,1.8727,1.8968,1.8893,1.8968,1.9244,1.9493,1.9654,1.9705,1.9741,1.9762,1.9782,-1.8118,-1.958,-1.9595,-1.9071,-1.8273,-1.8346,-1.8259,-1.8063,-1.8147,-1.7951,-1.7591,-1.754,-1.6902,-1.5964,-1.5286,-1.6122,-1.6866,-1.5165,-1.3439,-1.2852,-1.2473,-1.2036,-1.1206,-1.0485,-0.9621,-0.9063,-0.8778,-0.8811,-0.8784,-0.8679,-0.8765,-0.8658,-0.7985,-0.7518,-0.7274,-0.5011,-0.4405,-0.4301,-0.448,-0.4487,-0.4258,-0.3694,-0.319,-0.319,-0.319,-0.319,-0.3188,-0.319,-0.3702,-0.411,-0.3708,-0.2805,-0.1738,-0.0336,0.2184,0.3599,0.3928,0.3916,0.4588,0.5864,0.6806,0.7998,0.9694,1.1469,1.3209,1.4801,1.6566,1.7854,1.8171,1.8496,1.8893,1.8893,1.893,1.8727,1.8263,1.78,1.719,1.6476,1.6003,1.5342,1.4812,1.4824,1.4869,1.4778,1.4514,1.4329,1.4329,1.4283,1.4376,1.4433,1.4641,1.5039,1.5454,1.5864,1.6182,1.657,1.6896,1.6866,1.7063,1.7666,1.7907,1.7973,1.7894,1.7907,1.8185,1.838,1.8496,1.893,1.9406,1.9566,1.9705,1.9705,1.9705,1.9741,1.9889,-1.5274,-1.6962,-1.7622,-1.7336,-1.6406,-1.6419,-1.6217,-1.6068,-1.6027,-1.5756,-1.5341,-1.5072,-1.4372,-1.3642,-1.3486,-1.4121,-1.5339,-1.3364,-1.1737,-1.0914,-1.0837,-1.0898,-1.0391,-0.9821,-0.9274,-0.8717,-0.7538,-0.7387,-0.7441,-0.7639,-0.7729,-0.8622,-0.709,-0.7209,-0.6978,-0.5899,-0.4882,-0.4432,-0.449,-0.4036,-0.3188,-0.2178,-0.1788,-0.1675,-0.1675,0.0,-0.1619,-0.1675,-0.2352,-0.2805,-0.1903,-0.0335,0.1119,0.2183,0.3307,0.4271,0.4258,0.4473,0.512,0.6126,0.7276,0.8619,1.0362,1.2241,1.3914,1.4732,1.5431,1.7079,1.7814,1.7973,1.8092,1.8612,1.8574,1.8327,1.7894,1.7491,1.6985,1.6207,1.5531,1.505,1.4468,1.392,1.4003,1.4283,1.419,1.3909,1.3815,1.3909,1.419,1.456,1.496,1.541,1.5776,1.6139,1.6324,1.6582,1.6866,1.7076,1.7242,1.7312,1.7504,1.7666,1.7666,1.7706,1.7827,1.8185,1.8612,1.908,1.953,1.9654,1.9705,1.9705,1.9705,1.9705,1.9925,-1.2186,-1.1492,-1.396,-1.429,-1.3219,-1.3145,-1.2829,-1.256,-1.234,-1.2665,-1.3007,-1.2416,-1.2522,-1.2445,-1.2125,-1.226,-1.2908,-1.2134,-1.0681,-0.973,-0.9561,-0.9902,-0.965,-0.9295,-0.8871,-0.8375,-0.7177,-0.5864,-0.4903,-0.5479,-0.6668,-0.8148,-0.6861,-0.7072,-0.7054,-0.6327,-0.5068,-0.4445,-0.4222,-0.3198,-0.1792,0.0,0.0,0.0,0.0,0.0,0.0,0.0,-0.0056,-0.0336,0.1399,0.2577,0.3256,0.3193,0.3697,0.4258,0.4643,0.4853,0.5492,0.6494,0.7446,0.8625,1.0412,1.2764,1.4039,1.5463,1.625,1.6519,1.7354,1.792,1.8171,1.8405,1.8118,1.7894,1.745,1.7107,1.6549,1.574,1.5096,1.4698,1.4294,1.392,1.3779,1.419,1.4143,1.3862,1.4318,1.44,1.4778,1.5096,1.5377,1.5776,1.6139,1.638,1.6509,1.671,1.6866,1.7034,1.7188,1.7118,1.7034,1.7188,1.7463,1.7747,1.7947,1.8341,1.8688,1.9132,1.9479,1.9654,1.9705,1.9705,1.9705,1.9705,1.9945,-1.0989,-1.0218,-1.1213,-1.137,-1.0948,-1.1382,-1.1399,-1.119,-1.114,-1.129,-1.1522,-1.1282,-1.1032,-1.0923,-1.0738,-1.0423,-1.0293,-1.0066,-0.9273,-0.9106,-0.909,-0.9192,-0.9059,-0.8904,-0.8747,-0.8488,-0.7324,-0.5835,-0.4591,-0.4125,-0.6211,-0.7395,-0.6754,-0.5041,-0.4834,-0.4605,-0.3644,-0.3084,-0.3487,-0.3602,-0.2921,0.0,0.0,0.0,0.0,0.0,0.0,0.0,0.0,0.2469,0.3828,0.4281,0.4504,0.3749,0.391,0.4525,0.4853,0.5277,0.5756,0.6967,0.8279,1.0148,1.1522,1.2725,1.3956,1.5039,1.5752,1.6275,1.6689,1.704,1.7271,1.7231,1.7177,1.7175,1.7063,1.6756,1.6244,1.5499,1.5107,1.4835,1.4663,1.4387,1.434,1.4329,1.4097,1.3909,1.4503,1.4994,1.532,1.5599,1.5876,1.602,1.6337,1.6479,1.6522,1.668,1.6866,1.6993,1.7105,1.7105,1.7034,1.716,1.7435,1.7747,1.8092,1.8535,1.8893,1.9169,1.9442,1.9654,1.9705,1.9705,1.9705,1.9762,2.0139,-0.9356,-0.8659,-0.8888,-0.9193,-0.943,-0.9703,-0.9982,-1.0108,-0.9858,-0.9999,-1.0185,-1.0169,-0.997,-0.9575,-0.9492,-0.9362,-0.8784,-0.7985,-0.6912,-0.6524,-0.6588,-0.7318,-0.7798,-0.83,-0.877,-0.8466,-0.6396,-0.4501,-0.2863,-0.3039,-0.3893,-0.5091,-0.5952,-0.314,-0.1734,-0.0838,-0.1004,-0.0894,-0.1736,-0.3147,-0.2581,0.0,0.0,0.0,0.0,0.0,0.0,0.0,0.0,0.3198,0.4045,0.4386,0.449,0.4536,0.4639,0.4904,0.5226,0.5651,0.6347,0.7346,0.9016,1.0738,1.1507,1.2648,1.3721,1.4329,1.4869,1.5365,1.5531,1.5764,1.6269,1.6604,1.6815,1.698,1.687,1.6617,1.6188,1.5632,1.532,1.505,1.4835,1.4663,1.4744,1.4744,1.4824,1.4778,1.5276,1.5688,1.5864,1.6107,1.625,1.6349,1.6436,1.6479,1.6522,1.6607,1.6723,1.6795,1.6951,1.7271,1.7312,1.7353,1.7558,1.7907,1.8288,1.8727,1.9043,1.9281,1.9493,1.969,1.9705,1.9741,1.9945,2.007,2.0465,-0.7133,-0.6123,-0.7058,-0.783,-0.8292,-0.7982,-0.8218,-0.8633,-0.7895,-0.8069,-0.8911,-0.8871,-0.8637,-0.8514,-0.8261,-0.8413,-0.8377,-0.6381,-0.4008,-0.2573,-0.3635,-0.4348,-0.5265,-0.6339,-0.6849,-0.6975,-0.3869,-0.0727,-0.0112,-0.0449,-0.0729,-0.0785,-0.1343,-0.0839,-0.0,0.0056,0.0056,0.0056,-0.0,-0.028,-0.028,0.0112,0.0,0.0,0.0,0.0,0.2579,0.3426,0.3423,0.3246,0.4089,0.4428,0.448,0.4577,0.4842,0.5328,0.5546,0.6303,0.7492,0.8265,0.9563,1.0855,1.1616,1.2365,1.2987,1.3515,1.4061,1.4732,1.4971,1.5419,1.5947,1.6378,1.6532,1.6727,1.6617,1.6532,1.6157,1.5952,1.5688,1.5555,1.5107,1.4801,1.4971,1.5186,1.5454,1.5732,1.6151,1.6337,1.6337,1.638,1.6479,1.6534,1.6534,1.6534,1.6534,1.6534,1.6565,1.668,1.6837,1.7146,1.7422,1.7585,1.7827,1.8092,1.8496,1.8893,1.9132,1.9369,1.953,1.9705,1.9705,1.9797,2.007,2.0314,2.0616,-0.6737,-0.6275,-0.5677,-0.5023,-0.4822,-0.7382,-0.8021,-0.7198,-0.619,-0.6668,-0.8027,-0.6939,-0.5901,-0.586,-0.6105,-0.6763,-0.805,-0.8178,-0.5242,-0.0443,-0.1164,-0.1333,-0.2003,-0.2674,-0.3251,-0.1956,0.1119,0.2639,0.2977,0.202,0.1513,0.1456,0.1398,0.0894,0.0896,0.1513,0.3033,0.2807,0.2127,0.1452,0.1452,0.1452,0.1452,0.1452,0.1453,0.2125,0.3249,0.4042,0.4095,0.3633,0.4418,0.4525,0.4691,0.4842,0.5269,0.5814,0.619,0.7593,0.881,0.974,1.0493,1.1216,1.1724,1.2374,1.3314,1.3647,1.3956,1.4283,1.4664,1.5163,1.5652,1.5828,1.6027,1.6497,1.6539,1.6539,1.6324,1.6238,1.6107,1.6151,1.5932,1.58,1.5844,1.5599,1.5776,1.6008,1.638,1.6436,1.6436,1.6436,1.6534,1.6534,1.6534,1.6534,1.6534,1.6534,1.665,1.6837,1.6921,1.7034,1.7353,1.7626,1.7973,1.8249,1.865,1.9006,1.9281,1.953,1.9617,1.9705,1.9705,1.9762,1.9929,2.0227,2.0532,-0.5859,-0.5733,-0.4868,-0.2609,-0.0884,-0.4611,-0.6201,-0.5681,-0.4805,-0.5031,-0.523,-0.403,-0.2581,-0.2035,-0.2591,-0.3487,-0.5631,-0.4311,-0.3289,0.1343,0.0894,0.0726,0.067,0.0783,0.0167,0.1398,0.2464,0.3705,0.4163,0.3429,0.3088,0.3023,0.2959,0.2625,0.2406,0.3084,0.3705,0.3591,0.3304,0.3021,0.3021,0.3021,0.3021,0.3021,0.3019,0.313,0.3297,0.3805,0.4487,0.4588,0.4691,0.4794,0.5062,0.5437,0.5923,0.6519,0.7581,0.8823,0.9651,1.0312,1.0965,1.1665,1.1981,1.2579,1.3362,1.3589,1.392,1.4236,1.456,1.505,1.5454,1.5588,1.5908,1.6324,1.6522,1.6522,1.6466,1.638,1.6324,1.6423,1.6423,1.6479,1.6479,1.625,1.6008,1.625,1.6491,1.6534,1.6534,1.6534,1.6534,1.6534,1.6534,1.6534,1.6534,1.6534,1.6693,1.6964,1.7034,1.7076,1.7229,1.7504,1.7973,1.8419,1.8727,1.9043,1.9493,1.9705,1.9705,1.9705,1.9705,1.9797,1.9874,2.0208,2.0565,-0.4187,-0.4225,-0.4284,-0.0894,0.2914,-0.0612,-0.2905,-0.4045,-0.4033,-0.2485,-0.0224,-0.1604,-0.0055,0.2916,0.1285,-0.0279,-0.0334,0.1956,0.3137,0.3532,0.274,0.2458,0.2289,0.2291,0.2291,0.2287,0.2792,0.3811,0.4438,0.4154,0.4154,0.4262,0.4076,0.3855,0.3635,0.3413,0.3694,0.4092,0.4425,0.4141,0.403,0.4311,0.42,0.4144,0.4089,0.4196,0.4359,0.4639,0.4746,0.4904,0.5222,0.5437,0.576,0.6253,0.6961,0.7871,0.9026,0.9399,0.9961,1.0559,1.1057,1.1715,1.2344,1.2715,1.3104,1.3505,1.3826,1.4143,1.4514,1.5005,1.5499,1.572,1.5952,1.6238,1.6479,1.6479,1.6479,1.6423,1.6324,1.6324,1.6337,1.6337,1.6423,1.6281,1.6151,1.6337,1.6534,1.6534,1.6534,1.6534,1.6534,1.6534,1.6534,1.6534,1.6522,1.6607,1.6808,1.7076,1.7118,1.716,1.7312,1.7544,1.8092,1.8535,1.8727,1.9095,1.953,1.969,1.9705,1.9705,1.9705,1.9747,1.9839,2.033,2.0748,0.0946,0.179,0.0724,0.1338,0.2516,0.1504,0.1283,0.1732,0.0831,0.0944,0.1562,0.1112,0.2284,0.4278,0.3532,0.1898,0.1898,0.2685,0.3928,0.4265,0.4196,0.3922,0.3863,0.3913,0.3863,0.386,0.3968,0.4236,0.4532,0.4588,0.4643,0.447,0.4783,0.4736,0.4515,0.407,0.4356,0.4529,0.5022,0.4912,0.4912,0.5018,0.4912,0.4805,0.4695,0.4853,0.512,0.5226,0.5386,0.5932,0.615,0.6312,0.6367,0.702,0.7771,0.8974,0.9354,0.9413,1.0218,1.0269,1.0568,1.1458,1.203,1.2452,1.2852,1.342,1.3826,1.419,1.4778,1.5466,1.5732,1.5908,1.6039,1.6194,1.6392,1.6479,1.6479,1.6281,1.6238,1.6182,1.6194,1.6238,1.6293,1.6281,1.6194,1.6392,1.6534,1.6534,1.6534,1.6534,1.6534,1.6534,1.6534,1.6534,1.668,1.6752,1.6951,1.7146,1.716,1.7284,1.7639,1.7947,1.8341,1.865,1.8893,1.9244,1.9603,1.969,1.9705,1.9705,1.9741,1.9782,1.9909,2.033,2.0715,0.3077,0.4274,0.353,0.3132,0.313,0.3123,0.3691,0.4212,0.3471,0.3132,0.3074,0.307,0.3638,0.4379,0.432,0.3519,0.2279,0.3574,0.5041,0.6315,0.5525,0.5395,0.5395,0.5714,0.5806,0.571,0.5864,0.6372,0.5973,0.5736,0.5795,0.5855,0.5734,0.5679,0.5792,0.5801,0.5597,0.5496,0.5441,0.5382,0.5546,0.571,0.555,0.5386,0.5277,0.5546,0.5819,0.5923,0.6199,0.6637,0.6745,0.702,0.7182,0.7777,0.8514,0.9458,0.9562,0.9465,0.9814,1.021,1.0661,1.1216,1.1665,1.2246,1.2977,1.3658,1.4014,1.4411,1.5287,1.5964,1.6008,1.6051,1.6095,1.6139,1.6337,1.6479,1.6337,1.6151,1.6051,1.5996,1.6008,1.6095,1.6151,1.6194,1.6281,1.6436,1.6534,1.6534,1.6534,1.6534,1.6534,1.6534,1.6534,1.6534,1.668,1.6795,1.6866,1.6951,1.6909,1.716,1.776,1.8027,1.8185,1.8612,1.908,1.9369,1.9639,1.969,1.9705,1.9705,1.9705,1.9726,1.9839,2.0124,2.0516,0.3241,0.4494,0.4601,0.4754,0.4812,0.4732,0.4787,0.4802,0.475,0.4653,0.4646,0.4802,0.4783,0.4761,0.5042,0.5782,0.5311,0.5887,0.6495,0.8523,0.7069,0.6499,0.6714,0.7647,0.6817,0.7127,0.7429,0.7535,0.7982,0.7439,0.6815,0.7553,0.7248,0.6929,0.6817,0.6876,0.6617,0.6529,0.6199,0.6086,0.6367,0.6588,0.6647,0.648,0.648,0.6529,0.6637,0.6696,0.6756,0.702,0.7391,0.7877,0.8203,0.8521,0.9256,0.9413,0.9517,0.9465,0.9562,1.0012,1.0517,1.0965,1.1416,1.2147,1.2939,1.3695,1.4107,1.4411,1.5141,1.5688,1.5864,1.6139,1.6281,1.6281,1.6324,1.6479,1.6436,1.6194,1.5952,1.5908,1.582,1.592,1.6293,1.6337,1.6281,1.6436,1.6534,1.6534,1.6534,1.6534,1.6534,1.6534,1.6534,1.6522,1.6595,1.6667,1.671,1.671,1.6866,1.7118,1.7801,1.7907,1.7907,1.8612,1.9369,1.9406,1.9566,1.9654,1.9705,1.9705,1.9705,1.9705,1.9854,2.0104,2.0449,0.4132,0.4591,0.5655,0.6704,0.7488,0.6538,0.6689,0.7582,0.6489,0.6185,0.6284,0.6999,0.6501,0.5231,0.6749,0.8078,0.9804,0.7771,0.8131,0.8374,0.7794,0.7191,0.6838,0.7517,0.7149,0.7047,0.7351,0.822,0.8285,0.7646,0.6982,0.7004,0.7228,0.7499,0.7458,0.7463,0.7475,0.7646,0.7486,0.7106,0.7058,0.7182,0.7295,0.6912,0.675,0.7069,0.7283,0.7503,0.783,0.8262,0.8922,0.9242,0.9347,0.9465,0.9621,0.9718,0.947,0.9355,0.9702,1.0052,1.0486,1.0998,1.1493,1.2147,1.289,1.3589,1.4154,1.4411,1.4869,1.5353,1.5764,1.6139,1.6411,1.6367,1.6367,1.6423,1.6534,1.6238,1.5908,1.582,1.572,1.5964,1.6337,1.6436,1.638,1.6436,1.6479,1.6534,1.6534,1.6534,1.6534,1.6534,1.6534,1.6522,1.6552,1.6752,1.6866,1.7271,1.7585,1.7747,1.7921,1.8263,1.8612,1.908,1.9603,1.9603,1.9603,1.9654,1.9705,1.9705,1.9726,1.9726,1.9909,2.0124,2.0483,0.6166,0.5968,0.6704,0.7688,0.8358,0.7482,0.7688,0.8515,0.8508,0.8463,0.8358,0.8553,0.7964,0.6769,0.8313,1.0267,1.193,0.9449,0.9145,0.9086,0.86,0.7994,0.7788,0.7953,0.8,0.8,0.8717,0.9224,0.9061,0.8978,0.8678,0.8665,0.877,0.8717,0.877,0.8874,0.8724,0.911,0.896,0.8744,0.8212,0.829,0.8355,0.7919,0.7865,0.8084,0.8343,0.8666,0.9079,0.9503,1.0005,0.9858,0.9859,0.9873,0.9985,0.9899,0.971,0.9515,1.0041,1.0484,1.0773,1.1413,1.1936,1.2705,1.2764,1.343,1.3647,1.4003,1.5005,1.5588,1.5543,1.5788,1.6008,1.6051,1.6281,1.6479,1.6479,1.638,1.6238,1.6194,1.6151,1.6194,1.6479,1.6479,1.6479,1.6479,1.6491,1.6534,1.6534,1.6522,1.6522,1.6565,1.6607,1.6565,1.6509,1.6837,1.7188,1.7626,1.8145,1.8302,1.8433,1.893,1.9369,1.9566,1.969,1.969,1.9705,1.9705,1.9705,1.9705,1.9726,1.9782,1.9965,2.0261,2.0715,0.8115,0.7764,0.7864,0.8423,0.8975,0.8115,0.8476,0.949,1.021,1.0739,1.0839,0.9811,0.9828,0.9902,0.9681,1.1156,1.1473,1.0095,0.9969,0.9829,0.9488,0.8999,0.9252,0.9828,0.9614,0.9614,1.0077,1.0788,1.119,1.0687,1.0485,1.1507,1.1665,1.1557,1.1665,1.1516,1.1007,1.0501,1.0399,1.0661,1.0312,0.9769,0.9555,0.9503,0.9458,0.9413,0.971,1.0012,1.0312,1.0466,1.0626,1.0332,1.0128,1.0082,1.0075,1.006,1.0051,1.02,1.0714,1.1285,1.1811,1.2384,1.2795,1.2988,1.2978,1.3066,1.3337,1.3847,1.4846,1.5377,1.5344,1.5555,1.5776,1.5964,1.6293,1.6534,1.6479,1.6479,1.6479,1.6479,1.6479,1.6479,1.6479,1.6534,1.6534,1.6534,1.6534,1.6534,1.6522,1.6565,1.6595,1.6723,1.6837,1.6752,1.6667,1.6909,1.734,1.7787,1.8224,1.8549,1.8869,1.9244,1.953,1.9617,1.9705,1.9705,1.9705,1.9705,1.9705,1.9726,1.9874,2.0,2.0227,2.055,2.107,0.8075,0.8508,0.9068,1.0327,1.1495,0.9526,1.0124,1.2183,1.068,1.0814,1.1963,1.2286,1.2255,1.2283,1.1575,1.2009,1.231,1.0981,1.0379,1.0221,1.021,0.9953,0.9946,1.0399,1.0914,1.1007,1.1007,1.1166,1.1953,1.1408,1.0914,1.1216,1.1166,1.1166,1.1116,1.1166,1.1266,1.1116,1.1116,1.1174,1.1375,1.0973,1.0568,1.0517,1.0517,1.0517,1.0568,1.0618,1.0669,1.0771,1.0854,1.0641,1.0568,1.0492,1.0572,1.0598,1.0588,1.0977,1.151,1.2125,1.277,1.3049,1.3351,1.3398,1.3311,1.3125,1.3312,1.3329,1.4136,1.4834,1.5051,1.5712,1.6064,1.6194,1.6423,1.6479,1.6479,1.6479,1.6479,1.6479,1.6479,1.6479,1.6479,1.6534,1.6534,1.6534,1.6534,1.6534,1.6522,1.6595,1.6667,1.6795,1.6993,1.7146,1.7146,1.7188,1.7544,1.7907,1.8341,1.8779,1.9169,1.9479,1.969,1.969,1.9705,1.9705,1.9705,1.9705,1.9762,1.9818,2.0089,2.028,2.0501,2.083,2.1321]}]]